Wetterdaten: aktuell Samstag, 03.06.2023 17:17
Datum Zeit Temp 2m Temp 5cm Teichtemp Luftf 2m Luftdruck Regen Wind Richtung Richtung ET Solar Taupunkt Windchill Windben Empfang
03.06.2023 17:17 15,6 C 15,0 C 21,7 C 53 % 1017,0 hPa 0,0 l/m 6,4 km/h (2 Bft) O-NO 67 0,000 mm 496 W/m 6,1 C 15,6 C 12,9 km/h (3 Bft) 100,00 %
03.06.2023 17:16 15,6 C 15,0 C 21,7 C 51 % 1017,1 hPa 0,0 l/m 4,8 km/h (1 Bft) SO 135 0,000 mm 499 W/m 5,5 C 15,6 C 12,9 km/h (3 Bft) 100,00 %
03.06.2023 17:15 15,6 C 15,6 C 21,7 C 51 % 1017,1 hPa 0,0 l/m 9,7 km/h (2 Bft) NO 45 0,000 mm 501 W/m 5,5 C 15,6 C 12,9 km/h (3 Bft) 95,65 %
03.06.2023 17:14 15,6 C 15,6 C 21,7 C 51 % 1017,0 hPa 0,0 l/m 6,4 km/h (2 Bft) NO 45 0,000 mm 501 W/m 5,5 C 15,6 C 14,5 km/h (3 Bft) 100,00 %
03.06.2023 17:13 15,6 C 15,6 C 21,7 C 55 % 1017,0 hPa 0,0 l/m 4,8 km/h (1 Bft) NO 45 0,000 mm 503 W/m 6,6 C 15,6 C 9,7 km/h (2 Bft) 100,00 %
03.06.2023 17:12 15,5 C 15,0 C 21,7 C 52 % 1017,0 hPa 0,0 l/m 4,8 km/h (1 Bft) N-NO 22 0,000 mm 504 W/m 5,7 C 15,5 C 8,0 km/h (2 Bft) 95,65 %
03.06.2023 17:11 15,5 C 15,0 C 21,7 C 50 % 1017,1 hPa 0,0 l/m 9,7 km/h (2 Bft) N-NO 22 0,000 mm 506 W/m 5,1 C 15,5 C 14,5 km/h (3 Bft) 100,00 %
03.06.2023 17:10 15,5 C 15,0 C 21,7 C 54 % 1017,0 hPa 0,0 l/m 4,8 km/h (1 Bft) O 90 0,000 mm 512 W/m 6,2 C 15,5 C 11,3 km/h (2 Bft) 95,65 %
03.06.2023 17:09 15,5 C 15,0 C 21,7 C 52 % 1017,0 hPa 0,0 l/m 9,7 km/h (2 Bft) O 90 0,000 mm 513 W/m 5,7 C 15,5 C 16,1 km/h (3 Bft) 100,00 %
03.06.2023 17:08 15,6 C 15,0 C 21,7 C 52 % 1017,0 hPa 0,0 l/m 11,3 km/h (2 Bft) O 90 0,000 mm 519 W/m 5,8 C 15,6 C 16,1 km/h (3 Bft) 100,00 %
03.06.2023 17:07 15,6 C 15,0 C 21,7 C 56 % 1017,1 hPa 0,0 l/m 6,4 km/h (2 Bft) N-NO 22 0,000 mm 519 W/m 6,9 C 15,6 C 11,3 km/h (2 Bft) 100,00 %
03.06.2023 17:06 15,6 C 15,0 C 21,7 C 57 % 1017,1 hPa 0,0 l/m 8,0 km/h (2 Bft) O-NO 67 0,000 mm 522 W/m 7,1 C 15,6 C 14,5 km/h (3 Bft) 100,00 %
03.06.2023 17:05 15,6 C 15,0 C 21,7 C 57 % 1017,0 hPa 0,0 l/m 8,0 km/h (2 Bft) O-SO 112 0,000 mm 524 W/m 7,1 C 15,6 C 14,5 km/h (3 Bft) 95,65 %
03.06.2023 17:04 15,6 C 15,0 C 21,7 C 57 % 1017,0 hPa 0,0 l/m 6,4 km/h (2 Bft) SO 135 0,000 mm 527 W/m 7,1 C 15,6 C 9,7 km/h (2 Bft) 100,00 %
03.06.2023 17:03 15,5 C 15,6 C 21,7 C 54 % 1017,1 hPa 0,0 l/m 6,4 km/h (2 Bft) SO 135 0,000 mm 529 W/m 6,2 C 15,5 C 11,3 km/h (2 Bft) 95,65 %
03.06.2023 17:02 15,5 C 15,6 C 21,7 C 54 % 1017,0 hPa 0,0 l/m 9,7 km/h (2 Bft) O 90 0,000 mm 531 W/m 6,2 C 15,5 C 16,1 km/h (3 Bft) 100,00 %
03.06.2023 17:01 15,5 C 15,6 C 21,7 C 51 % 1017,1 hPa 0,0 l/m 6,4 km/h (2 Bft) O 90 0,000 mm 534 W/m 5,4 C 15,5 C 16,1 km/h (3 Bft) 100,00 %
03.06.2023 17:00 15,5 C 15,6 C 21,7 C 53 % 1017,0 hPa 0,0 l/m 3,2 km/h (1 Bft) N-NO 22 0,381 mm 534 W/m 6,0 C 15,5 C 9,7 km/h (2 Bft) 95,65 %
03.06.2023 16:59 15,6 C 15,6 C 21,7 C 54 % 1017,0 hPa 0,0 l/m 6,4 km/h (2 Bft) N-NO 22 0,000 mm 538 W/m 6,3 C 15,6 C 16,1 km/h (3 Bft) 100,00 %
03.06.2023 16:58 15,6 C 15,6 C 21,7 C 54 % 1016,9 hPa 0,0 l/m 4,8 km/h (1 Bft) S 180 0,000 mm 543 W/m 6,3 C 15,6 C 8,0 km/h (2 Bft) 91,30 %
03.06.2023 16:57 15,5 C 15,6 C 21,7 C 53 % 1017,0 hPa 0,0 l/m 4,8 km/h (1 Bft) O 90 0,000 mm 543 W/m 6,0 C 15,5 C 6,4 km/h (2 Bft) 100,00 %
03.06.2023 16:56 15,6 C 16,1 C 21,7 C 56 % 1017,1 hPa 0,0 l/m 4,8 km/h (1 Bft) O-NO 67 0,000 mm 545 W/m 6,9 C 15,6 C 8,0 km/h (2 Bft) 95,65 %
03.06.2023 16:55 15,6 C 16,1 C 21,7 C 57 % 1017,1 hPa 0,0 l/m 8,0 km/h (2 Bft) N 360 0,000 mm 547 W/m 7,1 C 15,6 C 14,5 km/h (3 Bft) 100,00 %
03.06.2023 16:54 15,5 C 16,1 C 21,7 C 55 % 1017,0 hPa 0,0 l/m 1,6 km/h (1 Bft) N-NO 22 0,000 mm 550 W/m 6,5 C 15,5 C 4,8 km/h (1 Bft) 100,00 %
03.06.2023 16:53 15,6 C 16,1 C 21,7 C 53 % 1017,1 hPa 0,0 l/m 4,8 km/h (1 Bft) S-SW 202 0,000 mm 550 W/m 6,1 C 15,6 C 8,0 km/h (2 Bft) 100,00 %
03.06.2023 16:52 15,6 C 16,1 C 21,7 C 55 % 1017,1 hPa 0,0 l/m 6,4 km/h (2 Bft) SO 135 0,000 mm 552 W/m 6,6 C 15,6 C 12,9 km/h (3 Bft) 100,00 %
03.06.2023 16:51 15,6 C 16,1 C 21,7 C 54 % 1017,1 hPa 0,0 l/m 9,7 km/h (2 Bft) O 90 0,000 mm 554 W/m 6,3 C 15,6 C 14,5 km/h (3 Bft) 95,65 %
03.06.2023 16:50 15,6 C 16,1 C 21,7 C 52 % 1017,1 hPa 0,0 l/m 6,4 km/h (2 Bft) O 90 0,000 mm 554 W/m 5,8 C 15,6 C 16,1 km/h (3 Bft) 100,00 %
03.06.2023 16:49 15,5 C 16,1 C 21,7 C 52 % 1017,1 hPa 0,0 l/m 8,0 km/h (2 Bft) NO 45 0,000 mm 555 W/m 5,7 C 15,5 C 16,1 km/h (3 Bft) 100,00 %
03.06.2023 16:48 15,6 C 16,7 C 21,7 C 55 % 1017,1 hPa 0,0 l/m 8,0 km/h (2 Bft) N-NO 22 0,000 mm 559 W/m 6,6 C 15,6 C 14,5 km/h (3 Bft) 100,00 %
03.06.2023 16:47 15,5 C 16,7 C 21,7 C 53 % 1017,1 hPa 0,0 l/m 6,4 km/h (2 Bft) NO 45 0,000 mm 564 W/m 6,0 C 15,5 C 11,3 km/h (2 Bft) 100,00 %
03.06.2023 16:46 15,5 C 16,7 C 21,7 C 52 % 1017,1 hPa 0,0 l/m 8,0 km/h (2 Bft) N-NO 22 0,000 mm 568 W/m 5,7 C 15,5 C 14,5 km/h (3 Bft) 100,00 %
03.06.2023 16:45 15,5 C 16,7 C 21,7 C 56 % 1017,1 hPa 0,0 l/m 8,0 km/h (2 Bft) N-NO 22 0,000 mm 568 W/m 6,8 C 15,5 C 14,5 km/h (3 Bft) 100,00 %
03.06.2023 16:44 15,4 C 16,7 C 21,7 C 56 % 1017,1 hPa 0,0 l/m 3,2 km/h (1 Bft) N-NO 22 0,000 mm 570 W/m 6,7 C 15,4 C 8,0 km/h (2 Bft) 100,00 %
03.06.2023 16:43 15,4 C 16,7 C 21,1 C 52 % 1017,1 hPa 0,0 l/m 6,4 km/h (2 Bft) O 90 0,000 mm 571 W/m 5,6 C 15,4 C 12,9 km/h (3 Bft) 95,65 %
03.06.2023 16:42 15,4 C 16,7 C 21,1 C 51 % 1017,1 hPa 0,0 l/m 9,7 km/h (2 Bft) O-SO 112 0,000 mm 573 W/m 5,3 C 15,4 C 14,5 km/h (3 Bft) 100,00 %
03.06.2023 16:41 15,5 C 17,2 C 21,1 C 53 % 1017,1 hPa 0,0 l/m 6,4 km/h (2 Bft) NO 45 0,000 mm 577 W/m 6,0 C 15,5 C 9,7 km/h (2 Bft) 100,00 %
03.06.2023 16:40 15,6 C 17,2 C 21,1 C 58 % 1017,1 hPa 0,0 l/m 9,7 km/h (2 Bft) N-NO 22 0,000 mm 580 W/m 7,4 C 15,6 C 14,5 km/h (3 Bft) 95,65 %
03.06.2023 16:39 15,5 C 17,2 C 21,1 C 54 % 1017,1 hPa 0,0 l/m 4,8 km/h (1 Bft) O 90 0,000 mm 582 W/m 6,2 C 15,5 C 17,7 km/h (3 Bft) 100,00 %
03.06.2023 16:38 15,6 C 17,2 C 21,1 C 55 % 1017,1 hPa 0,0 l/m 6,4 km/h (2 Bft) O-SO 112 0,000 mm 584 W/m 6,6 C 15,6 C 12,9 km/h (3 Bft) 100,00 %
03.06.2023 16:37 15,6 C 17,8 C 21,1 C 53 % 1017,2 hPa 0,0 l/m 6,4 km/h (2 Bft) SO 135 0,000 mm 584 W/m 6,1 C 15,6 C 9,7 km/h (2 Bft) 100,00 %
03.06.2023 16:36 15,6 C 17,8 C 21,1 C 60 % 1017,1 hPa 0,0 l/m 8,0 km/h (2 Bft) NO 45 0,000 mm 585 W/m 7,9 C 15,6 C 14,5 km/h (3 Bft) 95,65 %
03.06.2023 16:35 15,5 C 17,8 C 21,1 C 53 % 1017,1 hPa 0,0 l/m 4,8 km/h (1 Bft) S 180 0,000 mm 591 W/m 6,0 C 15,5 C 11,3 km/h (2 Bft) 100,00 %
03.06.2023 16:34 15,4 C 17,8 C 21,1 C 55 % 1017,1 hPa 0,0 l/m 3,2 km/h (1 Bft) S 180 0,000 mm 596 W/m 6,4 C 15,4 C 8,0 km/h (2 Bft) 100,00 %
03.06.2023 16:33 15,4 C 18,3 C 21,1 C 54 % 1017,1 hPa 0,0 l/m 8,0 km/h (2 Bft) N-NO 22 0,000 mm 596 W/m 6,1 C 15,4 C 14,5 km/h (3 Bft) 100,00 %
03.06.2023 16:32 15,4 C 18,3 C 21,1 C 51 % 1017,1 hPa 0,0 l/m 4,8 km/h (1 Bft) O 90 0,000 mm 596 W/m 5,3 C 15,4 C 12,9 km/h (3 Bft) 100,00 %
03.06.2023 16:31 15,4 C 18,3 C 21,1 C 53 % 1017,1 hPa 0,0 l/m 4,8 km/h (1 Bft) N-NO 22 0,000 mm 596 W/m 5,9 C 15,4 C 6,4 km/h (2 Bft) 100,00 %
03.06.2023 16:30 15,4 C 18,3 C 21,1 C 53 % 1017,1 hPa 0,0 l/m 3,2 km/h (1 Bft) N-NO 22 0,000 mm 598 W/m 5,9 C 15,4 C 6,4 km/h (2 Bft) 100,00 %
03.06.2023 16:29 15,5 C 18,3 C 21,1 C 53 % 1017,2 hPa 0,0 l/m 6,4 km/h (2 Bft) NO 45 0,000 mm 601 W/m 6,0 C 15,5 C 16,1 km/h (3 Bft) 95,65 %
03.06.2023 16:28 15,5 C 18,3 C 21,1 C 54 % 1017,1 hPa 0,0 l/m 3,2 km/h (1 Bft) O 90 0,000 mm 603 W/m 6,2 C 15,5 C 4,8 km/h (1 Bft) 95,65 %
03.06.2023 16:27 15,4 C 18,3 C 21,1 C 53 % 1017,2 hPa 0,0 l/m 4,8 km/h (1 Bft) O-NO 67 0,000 mm 606 W/m 5,9 C 15,4 C 6,4 km/h (2 Bft) 95,65 %
03.06.2023 16:26 15,4 C 18,3 C 21,1 C 54 % 1017,2 hPa 0,0 l/m 3,2 km/h (1 Bft) N 360 0,000 mm 608 W/m 6,1 C 15,4 C 6,4 km/h (2 Bft) 100,00 %
03.06.2023 16:25 15,4 C 18,3 C 21,1 C 52 % 1017,2 hPa 0,0 l/m 4,8 km/h (1 Bft) O-NO 67 0,000 mm 610 W/m 5,6 C 15,4 C 8,0 km/h (2 Bft) 95,65 %
03.06.2023 16:24 15,4 C 18,3 C 21,1 C 55 % 1017,1 hPa 0,0 l/m 6,4 km/h (2 Bft) NO 45 0,000 mm 612 W/m 6,4 C 15,4 C 11,3 km/h (2 Bft) 100,00 %
03.06.2023 16:23 15,4 C 18,3 C 21,1 C 54 % 1017,2 hPa 0,0 l/m 6,4 km/h (2 Bft) N 360 0,000 mm 619 W/m 6,1 C 15,4 C 9,7 km/h (2 Bft) 100,00 %
03.06.2023 16:22 15,4 C 18,3 C 21,1 C 57 % 1017,2 hPa 0,0 l/m 4,8 km/h (1 Bft) O-NO 67 0,000 mm 619 W/m 6,9 C 15,4 C 9,7 km/h (2 Bft) 95,65 %
03.06.2023 16:21 15,4 C 18,3 C 21,1 C 54 % 1017,3 hPa 0,0 l/m 6,4 km/h (2 Bft) N-NO 22 0,000 mm 617 W/m 6,1 C 15,4 C 14,5 km/h (3 Bft) 100,00 %
03.06.2023 16:20 15,5 C 18,3 C 21,1 C 56 % 1017,2 hPa 0,0 l/m 3,2 km/h (1 Bft) S-SO 157 0,000 mm 617 W/m 6,8 C 15,5 C 6,4 km/h (2 Bft) 100,00 %
03.06.2023 16:19 15,5 C 18,3 C 21,1 C 60 % 1017,2 hPa 0,0 l/m 3,2 km/h (1 Bft) O-SO 112 0,000 mm 621 W/m 7,8 C 15,5 C 8,0 km/h (2 Bft) 91,30 %
03.06.2023 16:18 15,4 C 18,9 C 21,1 C 57 % 1017,3 hPa 0,0 l/m 8,0 km/h (2 Bft) O 90 0,000 mm 624 W/m 6,9 C 15,4 C 11,3 km/h (2 Bft) 95,65 %
03.06.2023 16:17 15,5 C 18,9 C 21,1 C 53 % 1017,3 hPa 0,0 l/m 8,0 km/h (2 Bft) O 90 0,000 mm 626 W/m 6,0 C 15,5 C 17,7 km/h (3 Bft) 95,65 %
03.06.2023 16:16 15,5 C 19,4 C 21,1 C 58 % 1017,4 hPa 0,0 l/m 6,4 km/h (2 Bft) SO 135 0,000 mm 626 W/m 7,3 C 15,5 C 17,7 km/h (3 Bft) 100,00 %
03.06.2023 16:15 15,4 C 20,0 C 21,1 C 54 % 1017,3 hPa 0,0 l/m 3,2 km/h (1 Bft) NO 45 0,000 mm 628 W/m 6,1 C 15,4 C 4,8 km/h (1 Bft) 91,30 %
03.06.2023 16:14 15,4 C 20,0 C 21,1 C 54 % 1017,3 hPa 0,0 l/m 8,0 km/h (2 Bft) O 90 0,000 mm 631 W/m 6,1 C 15,4 C 14,5 km/h (3 Bft) 95,65 %
03.06.2023 16:13 15,4 C 20,0 C 21,1 C 53 % 1017,3 hPa 0,0 l/m 4,8 km/h (1 Bft) N-NO 22 0,000 mm 633 W/m 5,9 C 15,4 C 6,4 km/h (2 Bft) 95,65 %
03.06.2023 16:12 15,5 C 20,0 C 21,1 C 55 % 1017,3 hPa 0,0 l/m 4,8 km/h (1 Bft) N 360 0,000 mm 635 W/m 6,5 C 15,5 C 8,0 km/h (2 Bft) 95,65 %
03.06.2023 16:11 15,5 C 20,0 C 21,7 C 55 % 1017,4 hPa 0,0 l/m 8,0 km/h (2 Bft) N 360 0,000 mm 636 W/m 6,5 C 15,5 C 12,9 km/h (3 Bft) 100,00 %
03.06.2023 16:10 15,5 C 19,4 C 21,7 C 57 % 1017,4 hPa 0,0 l/m 3,2 km/h (1 Bft) O 90 0,000 mm 638 W/m 7,0 C 15,5 C 6,4 km/h (2 Bft) 95,65 %
03.06.2023 16:09 15,5 C 19,4 C 21,7 C 54 % 1017,4 hPa 0,0 l/m 3,2 km/h (1 Bft) N-NW 337 0,000 mm 640 W/m 6,2 C 15,5 C 4,8 km/h (1 Bft) 95,65 %
03.06.2023 16:08 15,4 C 19,4 C 21,7 C 54 % 1017,4 hPa 0,0 l/m 3,2 km/h (1 Bft) W-NW 292 0,000 mm 640 W/m 6,1 C 15,4 C 6,4 km/h (2 Bft) 86,96 %
03.06.2023 16:07 15,4 C 19,4 C 21,7 C 51 % 1017,4 hPa 0,0 l/m 4,8 km/h (1 Bft) N-NW 337 0,000 mm 642 W/m 5,3 C 15,4 C 9,7 km/h (2 Bft) 95,65 %
03.06.2023 16:06 15,4 C 19,4 C 21,7 C 55 % 1017,4 hPa 0,0 l/m 3,2 km/h (1 Bft) S-SW 202 0,000 mm 647 W/m 6,4 C 15,4 C 6,4 km/h (2 Bft) 91,30 %
03.06.2023 16:05 15,5 C 19,4 C 21,7 C 57 % 1017,4 hPa 0,0 l/m 4,8 km/h (1 Bft) O-SO 112 0,000 mm 649 W/m 7,0 C 15,5 C 8,0 km/h (2 Bft) 100,00 %
03.06.2023 16:04 15,6 C 19,4 C 21,7 C 56 % 1017,5 hPa 0,0 l/m 4,8 km/h (1 Bft) N-NO 22 0,000 mm 650 W/m 6,9 C 15,6 C 11,3 km/h (2 Bft) 95,65 %
03.06.2023 16:03 15,6 C 19,4 C 21,7 C 59 % 1017,5 hPa 0,0 l/m 4,8 km/h (1 Bft) N-NO 22 0,000 mm 652 W/m 7,6 C 15,6 C 6,4 km/h (2 Bft) 100,00 %
03.06.2023 16:02 15,4 C 19,4 C 21,7 C 57 % 1017,5 hPa 0,0 l/m 4,8 km/h (1 Bft) O 90 0,000 mm 654 W/m 6,9 C 15,4 C 6,4 km/h (2 Bft) 86,96 %
03.06.2023 16:01 15,3 C 20,0 C 21,7 C 53 % 1017,5 hPa 0,0 l/m 6,4 km/h (2 Bft) O-NO 67 0,000 mm 654 W/m 5,8 C 15,3 C 12,9 km/h (3 Bft) 95,65 %
03.06.2023 16:00 15,3 C 19,4 C 21,7 C 57 % 1017,4 hPa 0,0 l/m 9,7 km/h (2 Bft) N-NO 22 0,457 mm 657 W/m 6,8 C 15,3 C 16,1 km/h (3 Bft) 95,65 %
03.06.2023 15:59 15,2 C 19,4 C 21,7 C 56 % 1017,4 hPa 0,0 l/m 6,4 km/h (2 Bft) S-SO 157 0,000 mm 661 W/m 6,5 C 15,2 C 14,5 km/h (3 Bft) 100,00 %
03.06.2023 15:58 15,3 C 19,4 C 21,7 C 54 % 1017,4 hPa 0,0 l/m 1,6 km/h (1 Bft) S-SW 202 0,000 mm 663 W/m 6,0 C 15,3 C 3,2 km/h (1 Bft) 95,65 %
03.06.2023 15:57 15,4 C 19,4 C 21,7 C 56 % 1017,4 hPa 0,0 l/m 4,8 km/h (1 Bft) S-SW 202 0,000 mm 664 W/m 6,7 C 15,4 C 8,0 km/h (2 Bft) 95,65 %
03.06.2023 15:56 15,4 C 19,4 C 21,1 C 62 % 1017,4 hPa 0,0 l/m 4,8 km/h (1 Bft) O-SO 112 0,000 mm 666 W/m 8,2 C 15,4 C 9,7 km/h (2 Bft) 95,65 %
03.06.2023 15:55 15,4 C 19,4 C 21,1 C 62 % 1017,5 hPa 0,0 l/m 6,4 km/h (2 Bft) O-SO 112 0,000 mm 666 W/m 8,2 C 15,4 C 12,9 km/h (3 Bft) 95,65 %
03.06.2023 15:54 15,4 C 20,0 C 21,1 C 59 % 1017,5 hPa 0,0 l/m 8,0 km/h (2 Bft) O 90 0,000 mm 668 W/m 7,4 C 15,4 C 12,9 km/h (3 Bft) 91,30 %
03.06.2023 15:53 15,3 C 20,0 C 21,1 C 56 % 1017,5 hPa 0,0 l/m 9,7 km/h (2 Bft) O 90 0,000 mm 670 W/m 6,6 C 15,3 C 12,9 km/h (3 Bft) 100,00 %
03.06.2023 15:52 15,3 C 20,0 C 21,1 C 57 % 1017,4 hPa 0,0 l/m 9,7 km/h (2 Bft) O 90 0,000 mm 670 W/m 6,8 C 15,3 C 16,1 km/h (3 Bft) 100,00 %
03.06.2023 15:51 15,3 C 19,4 C 21,1 C 53 % 1017,4 hPa 0,0 l/m 4,8 km/h (1 Bft) O 90 0,000 mm 673 W/m 5,8 C 15,3 C 11,3 km/h (2 Bft) 95,65 %
03.06.2023 15:50 15,3 C 19,4 C 21,7 C 53 % 1017,4 hPa 0,0 l/m 3,2 km/h (1 Bft) O-NO 67 0,000 mm 679 W/m 5,8 C 15,3 C 6,4 km/h (2 Bft) 100,00 %
03.06.2023 15:49 15,4 C 19,4 C 21,7 C 56 % 1017,4 hPa 0,0 l/m 6,4 km/h (2 Bft) NO 45 0,000 mm 679 W/m 6,7 C 15,4 C 8,0 km/h (2 Bft) 100,00 %
03.06.2023 15:48 15,3 C 19,4 C 21,1 C 55 % 1017,4 hPa 0,0 l/m 3,2 km/h (1 Bft) N-NW 337 0,000 mm 682 W/m 6,3 C 15,3 C 6,4 km/h (2 Bft) 100,00 %
03.06.2023 15:47 15,3 C 19,4 C 21,1 C 57 % 1017,4 hPa 0,0 l/m 8,0 km/h (2 Bft) O 90 0,000 mm 684 W/m 6,8 C 15,3 C 16,1 km/h (3 Bft) 95,65 %
03.06.2023 15:46 15,4 C 20,0 C 21,1 C 59 % 1017,4 hPa 0,0 l/m 8,0 km/h (2 Bft) O-SO 112 0,000 mm 684 W/m 7,4 C 15,4 C 16,1 km/h (3 Bft) 95,65 %
03.06.2023 15:45 15,4 C 20,0 C 21,1 C 60 % 1017,4 hPa 0,0 l/m 8,0 km/h (2 Bft) O 90 0,000 mm 684 W/m 7,7 C 15,4 C 14,5 km/h (3 Bft) 95,65 %
03.06.2023 15:44 15,4 C 20,0 C 21,1 C 55 % 1017,4 hPa 0,0 l/m 6,4 km/h (2 Bft) O-SO 112 0,000 mm 684 W/m 6,4 C 15,4 C 16,1 km/h (3 Bft) 100,00 %
03.06.2023 15:43 15,5 C 20,6 C 21,1 C 57 % 1017,4 hPa 0,0 l/m 9,7 km/h (2 Bft) O 90 0,000 mm 686 W/m 7,0 C 15,5 C 14,5 km/h (3 Bft) 95,65 %
03.06.2023 15:42 15,4 C 20,6 C 21,1 C 54 % 1017,4 hPa 0,0 l/m 6,4 km/h (2 Bft) SO 135 0,000 mm 689 W/m 6,1 C 15,4 C 9,7 km/h (2 Bft) 100,00 %
03.06.2023 15:41 15,3 C 21,1 C 21,1 C 54 % 1017,3 hPa 0,0 l/m 8,0 km/h (2 Bft) O 90 0,000 mm 691 W/m 6,0 C 15,3 C 14,5 km/h (3 Bft) 95,65 %
03.06.2023 15:40 15,4 C 21,1 C 21,1 C 55 % 1017,3 hPa 0,0 l/m 3,2 km/h (1 Bft) O-SO 112 0,000 mm 693 W/m 6,4 C 15,4 C 8,0 km/h (2 Bft) 91,30 %
03.06.2023 15:39 15,4 C 21,1 C 21,1 C 56 % 1017,3 hPa 0,0 l/m 4,8 km/h (1 Bft) O 90 0,000 mm 693 W/m 6,7 C 15,4 C 11,3 km/h (2 Bft) 95,65 %
03.06.2023 15:38 15,3 C 21,1 C 21,1 C 57 % 1017,4 hPa 0,0 l/m 4,8 km/h (1 Bft) N 360 0,000 mm 696 W/m 6,8 C 15,3 C 8,0 km/h (2 Bft) 95,65 %
03.06.2023 15:37 15,3 C 21,1 C 21,1 C 58 % 1017,4 hPa 0,0 l/m 8,0 km/h (2 Bft) N-NO 22 0,000 mm 698 W/m 7,1 C 15,3 C 14,5 km/h (3 Bft) 100,00 %
03.06.2023 15:36 15,3 C 21,7 C 21,1 C 55 % 1017,4 hPa 0,0 l/m 9,7 km/h (2 Bft) N-NO 22 0,000 mm 701 W/m 6,3 C 15,3 C 17,7 km/h (3 Bft) 100,00 %
03.06.2023 15:35 15,3 C 21,7 C 21,1 C 52 % 1017,5 hPa 0,0 l/m 4,8 km/h (1 Bft) N-NO 22 0,000 mm 705 W/m 5,5 C 15,3 C 11,3 km/h (2 Bft) 100,00 %
03.06.2023 15:34 15,3 C 21,7 C 21,1 C 54 % 1017,5 hPa 0,0 l/m 6,4 km/h (2 Bft) N-NO 22 0,000 mm 707 W/m 6,0 C 15,3 C 12,9 km/h (3 Bft) 95,65 %
03.06.2023 15:33 15,3 C 21,7 C 21,1 C 54 % 1017,5 hPa 0,0 l/m 6,4 km/h (2 Bft) O-SO 112 0,000 mm 707 W/m 6,0 C 15,3 C 17,7 km/h (3 Bft) 95,65 %
03.06.2023 15:32 15,3 C 22,2 C 21,1 C 55 % 1017,5 hPa 0,0 l/m 8,0 km/h (2 Bft) N-NO 22 0,000 mm 708 W/m 6,3 C 15,3 C 14,5 km/h (3 Bft) 100,00 %
03.06.2023 15:31 15,3 C 22,2 C 21,1 C 55 % 1017,5 hPa 0,0 l/m 4,8 km/h (1 Bft) O 90 0,000 mm 708 W/m 6,3 C 15,3 C 9,7 km/h (2 Bft) 100,00 %
03.06.2023 15:30 15,2 C 22,2 C 21,1 C 55 % 1017,5 hPa 0,0 l/m 8,0 km/h (2 Bft) O-SO 112 0,000 mm 710 W/m 6,2 C 15,2 C 11,3 km/h (2 Bft) 100,00 %
03.06.2023 15:29 15,3 C 22,2 C 21,1 C 56 % 1017,5 hPa 0,0 l/m 3,2 km/h (1 Bft) NO 45 0,000 mm 712 W/m 6,6 C 15,3 C 8,0 km/h (2 Bft) 100,00 %
03.06.2023 15:28 15,3 C 22,8 C 21,1 C 56 % 1017,5 hPa 0,0 l/m 6,4 km/h (2 Bft) W-NW 292 0,000 mm 712 W/m 6,6 C 15,3 C 14,5 km/h (3 Bft) 100,00 %
03.06.2023 15:27 15,3 C 22,8 C 21,1 C 57 % 1017,4 hPa 0,0 l/m 3,2 km/h (1 Bft) O 90 0,000 mm 712 W/m 6,8 C 15,3 C 6,4 km/h (2 Bft) 100,00 %
03.06.2023 15:26 15,3 C 22,8 C 21,1 C 59 % 1017,4 hPa 0,0 l/m 3,2 km/h (1 Bft) NO 45 0,000 mm 714 W/m 7,3 C 15,3 C 8,0 km/h (2 Bft) 91,30 %
03.06.2023 15:25 15,2 C 22,8 C 21,1 C 55 % 1017,4 hPa 0,0 l/m 4,8 km/h (1 Bft) NO 45 0,000 mm 715 W/m 6,2 C 15,2 C 8,0 km/h (2 Bft) 100,00 %
03.06.2023 15:24 15,3 C 22,8 C 21,1 C 54 % 1017,5 hPa 0,0 l/m 4,8 km/h (1 Bft) N-NO 22 0,000 mm 717 W/m 6,0 C 15,3 C 6,4 km/h (2 Bft) 100,00 %
03.06.2023 15:23 15,3 C 22,8 C 21,1 C 55 % 1017,5 hPa 0,0 l/m 4,8 km/h (1 Bft) NO 45 0,000 mm 719 W/m 6,3 C 15,3 C 11,3 km/h (2 Bft) 100,00 %
03.06.2023 15:22 15,3 C 22,8 C 21,1 C 57 % 1017,6 hPa 0,0 l/m 6,4 km/h (2 Bft) N-NO 22 0,000 mm 721 W/m 6,8 C 15,3 C 14,5 km/h (3 Bft) 95,65 %
03.06.2023 15:21 15,2 C 22,2 C 21,1 C 57 % 1017,6 hPa 0,0 l/m 6,4 km/h (2 Bft) O 90 0,000 mm 721 W/m 6,7 C 15,2 C 12,9 km/h (3 Bft) 100,00 %
03.06.2023 15:20 15,2 C 22,2 C 21,1 C 57 % 1017,7 hPa 0,0 l/m 6,4 km/h (2 Bft) W-NW 292 0,000 mm 722 W/m 6,7 C 15,2 C 12,9 km/h (3 Bft) 100,00 %
03.06.2023 15:19 15,2 C 22,8 C 21,1 C 55 % 1017,7 hPa 0,0 l/m 9,7 km/h (2 Bft) N 360 0,000 mm 726 W/m 6,2 C 15,2 C 16,1 km/h (3 Bft) 95,65 %
03.06.2023 15:18 15,3 C 23,3 C 21,1 C 57 % 1017,7 hPa 0,0 l/m 6,4 km/h (2 Bft) SO 135 0,000 mm 728 W/m 6,8 C 15,3 C 11,3 km/h (2 Bft) 100,00 %
03.06.2023 15:17 15,2 C 23,3 C 21,1 C 58 % 1017,7 hPa 0,0 l/m 6,4 km/h (2 Bft) O-SO 112 0,000 mm 729 W/m 7,0 C 15,2 C 12,9 km/h (3 Bft) 95,65 %
03.06.2023 15:16 15,2 C 23,3 C 21,1 C 53 % 1017,7 hPa 0,0 l/m 3,2 km/h (1 Bft) O 90 0,000 mm 731 W/m 5,7 C 15,2 C 9,7 km/h (2 Bft) 100,00 %
03.06.2023 15:15 15,3 C 22,8 C 21,1 C 58 % 1017,8 hPa 0,0 l/m 3,2 km/h (1 Bft) N-NO 22 0,000 mm 733 W/m 7,1 C 15,3 C 6,4 km/h (2 Bft) 95,65 %
03.06.2023 15:14 15,4 C 22,8 C 21,1 C 60 % 1017,6 hPa 0,0 l/m 1,6 km/h (1 Bft) S-SO 157 0,000 mm 735 W/m 7,7 C 15,4 C 3,2 km/h (1 Bft) 100,00 %
03.06.2023 15:13 15,3 C 23,3 C 21,1 C 54 % 1017,6 hPa 0,0 l/m 4,8 km/h (1 Bft) O-SO 112 0,000 mm 737 W/m 6,0 C 15,3 C 9,7 km/h (2 Bft) 100,00 %
03.06.2023 15:12 15,3 C 23,3 C 21,1 C 53 % 1017,8 hPa 0,0 l/m 8,0 km/h (2 Bft) O-SO 112 0,000 mm 738 W/m 5,8 C 15,3 C 12,9 km/h (3 Bft) 95,65 %
03.06.2023 15:11 15,3 C 22,8 C 21,1 C 54 % 1017,7 hPa 0,0 l/m 8,0 km/h (2 Bft) O-SO 112 0,000 mm 738 W/m 6,0 C 15,3 C 11,3 km/h (2 Bft) 100,00 %
03.06.2023 15:10 15,3 C 22,8 C 21,1 C 63 % 1017,7 hPa 0,0 l/m 4,8 km/h (1 Bft) O 90 0,000 mm 738 W/m 8,3 C 15,3 C 9,7 km/h (2 Bft) 100,00 %
03.06.2023 15:09 15,2 C 22,8 C 21,1 C 58 % 1017,7 hPa 0,0 l/m 3,2 km/h (1 Bft) N-NW 337 0,000 mm 738 W/m 7,0 C 15,2 C 8,0 km/h (2 Bft) 100,00 %
03.06.2023 15:08 15,2 C 22,8 C 21,1 C 58 % 1017,8 hPa 0,0 l/m 9,7 km/h (2 Bft) N-NO 22 0,000 mm 740 W/m 7,0 C 15,2 C 14,5 km/h (3 Bft) 100,00 %
03.06.2023 15:07 15,2 C 22,8 C 21,1 C 53 % 1017,8 hPa 0,0 l/m 4,8 km/h (1 Bft) O 90 0,000 mm 742 W/m 5,7 C 15,2 C 11,3 km/h (2 Bft) 100,00 %
03.06.2023 15:06 15,1 C 23,3 C 21,1 C 53 % 1017,9 hPa 0,0 l/m 4,8 km/h (1 Bft) O-SO 112 0,000 mm 744 W/m 5,6 C 15,1 C 9,7 km/h (2 Bft) 100,00 %
03.06.2023 15:05 15,2 C 23,3 C 21,1 C 58 % 1017,9 hPa 0,0 l/m 6,4 km/h (2 Bft) O-SO 112 0,000 mm 747 W/m 7,0 C 15,2 C 11,3 km/h (2 Bft) 95,65 %
03.06.2023 15:04 15,2 C 23,3 C 21,1 C 59 % 1017,9 hPa 0,0 l/m 9,7 km/h (2 Bft) SO 135 0,000 mm 747 W/m 7,2 C 15,2 C 12,9 km/h (3 Bft) 100,00 %
03.06.2023 15:03 15,1 C 23,3 C 21,1 C 59 % 1017,9 hPa 0,0 l/m 14,5 km/h (3 Bft) SO 135 0,000 mm 749 W/m 7,1 C 15,1 C 16,1 km/h (3 Bft) 100,00 %
03.06.2023 15:02 15,1 C 23,3 C 21,1 C 60 % 1017,9 hPa 0,0 l/m 9,7 km/h (2 Bft) O 90 0,000 mm 751 W/m 7,4 C 15,1 C 17,7 km/h (3 Bft) 100,00 %
03.06.2023 15:01 15,0 C 23,3 C 21,1 C 56 % 1018,0 hPa 0,0 l/m 8,0 km/h (2 Bft) O-SO 112 0,000 mm 751 W/m 6,3 C 15,0 C 14,5 km/h (3 Bft) 95,65 %
03.06.2023 15:00 14,9 C 23,3 C 21,1 C 58 % 1017,8 hPa 0,0 l/m 9,7 km/h (2 Bft) O 90 0,508 mm 751 W/m 6,7 C 14,9 C 16,1 km/h (3 Bft) 100,00 %
03.06.2023 14:59 14,8 C 22,8 C 21,1 C 56 % 1017,9 hPa 0,0 l/m 6,4 km/h (2 Bft) SO 135 0,000 mm 752 W/m 6,1 C 14,8 C 11,3 km/h (2 Bft) 100,00 %
03.06.2023 14:58 14,8 C 22,8 C 21,1 C 53 % 1018,0 hPa 0,0 l/m 6,4 km/h (2 Bft) O 90 0,000 mm 754 W/m 5,3 C 14,8 C 9,7 km/h (2 Bft) 95,65 %
03.06.2023 14:57 14,8 C 22,8 C 21,1 C 54 % 1018,0 hPa 0,0 l/m 6,4 km/h (2 Bft) S 180 0,000 mm 756 W/m 5,6 C 14,8 C 9,7 km/h (2 Bft) 100,00 %
03.06.2023 14:56 14,9 C 23,3 C 21,1 C 54 % 1017,9 hPa 0,0 l/m 6,4 km/h (2 Bft) S 180 0,000 mm 759 W/m 5,7 C 14,9 C 9,7 km/h (2 Bft) 95,65 %
03.06.2023 14:55 15,1 C 23,3 C 21,1 C 55 % 1018,0 hPa 0,0 l/m 8,0 km/h (2 Bft) SO 135 0,000 mm 761 W/m 6,1 C 15,1 C 14,5 km/h (3 Bft) 100,00 %
03.06.2023 14:54 15,2 C 23,3 C 21,1 C 57 % 1018,0 hPa 0,0 l/m 8,0 km/h (2 Bft) O 90 0,000 mm 761 W/m 6,7 C 15,2 C 12,9 km/h (3 Bft) 91,30 %
03.06.2023 14:53 15,2 C 23,9 C 21,1 C 55 % 1018,1 hPa 0,0 l/m 3,2 km/h (1 Bft) O-SO 112 0,000 mm 763 W/m 6,2 C 15,2 C 6,4 km/h (2 Bft) 91,30 %
03.06.2023 14:52 15,1 C 24,4 C 21,1 C 57 % 1018,1 hPa 0,0 l/m 9,7 km/h (2 Bft) O 90 0,000 mm 763 W/m 6,6 C 15,1 C 16,1 km/h (3 Bft) 100,00 %
03.06.2023 14:51 15,1 C 24,4 C 21,1 C 54 % 1018,1 hPa 0,0 l/m 11,3 km/h (2 Bft) N-NO 22 0,000 mm 765 W/m 5,9 C 15,1 C 14,5 km/h (3 Bft) 91,30 %
03.06.2023 14:50 15,1 C 24,4 C 21,1 C 56 % 1018,0 hPa 0,0 l/m 6,4 km/h (2 Bft) O 90 0,000 mm 768 W/m 6,4 C 15,1 C 16,1 km/h (3 Bft) 95,65 %
03.06.2023 14:49 15,2 C 24,4 C 21,1 C 55 % 1018,0 hPa 0,0 l/m 4,8 km/h (1 Bft) N-NO 22 0,000 mm 768 W/m 6,2 C 15,2 C 8,0 km/h (2 Bft) 91,30 %
03.06.2023 14:48 15,2 C 25,0 C 21,1 C 54 % 1017,9 hPa 0,0 l/m 6,4 km/h (2 Bft) O-SO 112 0,000 mm 770 W/m 6,0 C 15,2 C 9,7 km/h (2 Bft) 95,65 %
03.06.2023 14:47 15,2 C 25,0 C 21,1 C 57 % 1018,0 hPa 0,0 l/m 8,0 km/h (2 Bft) O-NO 67 0,000 mm 770 W/m 6,7 C 15,2 C 16,1 km/h (3 Bft) 95,65 %
03.06.2023 14:46 15,2 C 24,4 C 21,1 C 58 % 1017,9 hPa 0,0 l/m 4,8 km/h (1 Bft) O-SO 112 0,000 mm 768 W/m 7,0 C 15,2 C 11,3 km/h (2 Bft) 100,00 %
03.06.2023 14:45 15,2 C 24,4 C 21,1 C 55 % 1017,9 hPa 0,0 l/m 6,4 km/h (2 Bft) SO 135 0,000 mm 765 W/m 6,2 C 15,2 C 12,9 km/h (3 Bft) 95,65 %
03.06.2023 14:44 15,2 C 24,4 C 21,1 C 58 % 1017,9 hPa 0,0 l/m 4,8 km/h (1 Bft) O-SO 112 0,000 mm 766 W/m 7,0 C 15,2 C 11,3 km/h (2 Bft) 95,65 %
03.06.2023 14:43 15,1 C 24,4 C 21,1 C 57 % 1018,0 hPa 0,0 l/m 3,2 km/h (1 Bft) N-NW 337 0,000 mm 768 W/m 6,6 C 15,1 C 6,4 km/h (2 Bft) 95,65 %
03.06.2023 14:42 15,0 C 24,4 C 21,1 C 58 % 1017,9 hPa 0,0 l/m 4,8 km/h (1 Bft) N-NO 22 0,000 mm 770 W/m 6,8 C 15,0 C 9,7 km/h (2 Bft) 95,65 %
03.06.2023 14:41 14,9 C 24,4 C 21,1 C 55 % 1017,9 hPa 0,0 l/m 3,2 km/h (1 Bft) N-NW 337 0,000 mm 775 W/m 5,9 C 14,9 C 6,4 km/h (2 Bft) 95,65 %
03.06.2023 14:40 14,8 C 24,4 C 21,1 C 55 % 1017,9 hPa 0,0 l/m 3,2 km/h (1 Bft) N-NO 22 0,000 mm 773 W/m 5,8 C 14,8 C 6,4 km/h (2 Bft) 100,00 %
03.06.2023 14:39 14,9 C 24,4 C 21,1 C 59 % 1018,0 hPa 0,0 l/m 1,6 km/h (1 Bft) W-NW 292 0,000 mm 773 W/m 7,0 C 14,9 C 4,8 km/h (1 Bft) 95,65 %
03.06.2023 14:38 14,9 C 24,4 C 21,1 C 56 % 1017,9 hPa 0,0 l/m 3,2 km/h (1 Bft) SO 135 0,000 mm 777 W/m 6,2 C 14,9 C 6,4 km/h (2 Bft) 95,65 %
03.06.2023 14:37 14,9 C 25,0 C 21,1 C 62 % 1018,0 hPa 0,0 l/m 8,0 km/h (2 Bft) O-SO 112 0,000 mm 779 W/m 7,7 C 14,9 C 12,9 km/h (3 Bft) 91,30 %
03.06.2023 14:36 14,8 C 25,6 C 21,1 C 58 % 1018,0 hPa 0,0 l/m 8,0 km/h (2 Bft) O 90 0,000 mm 777 W/m 6,6 C 14,8 C 17,7 km/h (3 Bft) 95,65 %
03.06.2023 14:35 14,7 C 26,1 C 21,1 C 55 % 1018,0 hPa 0,0 l/m 6,4 km/h (2 Bft) O 90 0,000 mm 777 W/m 5,8 C 14,7 C 11,3 km/h (2 Bft) 100,00 %
03.06.2023 14:34 14,7 C 26,1 C 21,1 C 54 % 1018,0 hPa 0,0 l/m 4,8 km/h (1 Bft) O 90 0,000 mm 777 W/m 5,5 C 14,7 C 17,7 km/h (3 Bft) 91,30 %
03.06.2023 14:33 14,8 C 26,1 C 21,1 C 55 % 1018,0 hPa 0,0 l/m 6,4 km/h (2 Bft) O 90 0,000 mm 779 W/m 5,8 C 14,8 C 16,1 km/h (3 Bft) 95,65 %
03.06.2023 14:32 14,8 C 26,1 C 21,1 C 55 % 1018,0 hPa 0,0 l/m 9,7 km/h (2 Bft) NO 45 0,000 mm 782 W/m 5,8 C 14,8 C 14,5 km/h (3 Bft) 95,65 %
03.06.2023 14:31 14,9 C 26,1 C 21,1 C 57 % 1018,0 hPa 0,0 l/m 8,0 km/h (2 Bft) NO 45 0,000 mm 784 W/m 6,5 C 14,9 C 12,9 km/h (3 Bft) 100,00 %
03.06.2023 14:30 14,9 C 25,6 C 21,1 C 54 % 1018,0 hPa 0,0 l/m 6,4 km/h (2 Bft) N-NO 22 0,000 mm 786 W/m 5,7 C 14,9 C 11,3 km/h (2 Bft) 95,65 %
03.06.2023 14:29 14,9 C 25,6 C 21,1 C 59 % 1018,0 hPa 0,0 l/m 4,8 km/h (1 Bft) N-NO 22 0,000 mm 786 W/m 7,0 C 14,9 C 6,4 km/h (2 Bft) 100,00 %
03.06.2023 14:28 14,9 C 25,6 C 21,1 C 61 % 1018,0 hPa 0,0 l/m 3,2 km/h (1 Bft) N 360 0,000 mm 784 W/m 7,4 C 14,9 C 4,8 km/h (1 Bft) 100,00 %
03.06.2023 14:27 14,8 C 26,1 C 21,1 C 61 % 1018,0 hPa 0,0 l/m 8,0 km/h (2 Bft) O-NO 67 0,000 mm 784 W/m 7,4 C 14,8 C 14,5 km/h (3 Bft) 95,65 %
03.06.2023 14:26 14,7 C 26,1 C 21,1 C 58 % 1018,1 hPa 0,0 l/m 8,0 km/h (2 Bft) N-NO 22 0,000 mm 784 W/m 6,5 C 14,7 C 12,9 km/h (3 Bft) 95,65 %
03.06.2023 14:25 14,7 C 25,6 C 21,1 C 60 % 1018,1 hPa 0,0 l/m 4,8 km/h (1 Bft) O 90 0,000 mm 786 W/m 7,0 C 14,7 C 6,4 km/h (2 Bft) 100,00 %
03.06.2023 14:24 14,7 C 25,6 C 21,1 C 60 % 1018,0 hPa 0,0 l/m 6,4 km/h (2 Bft) O-NO 67 0,000 mm 786 W/m 7,0 C 14,7 C 16,1 km/h (3 Bft) 100,00 %
03.06.2023 14:23 14,7 C 25,6 C 21,1 C 56 % 1018,0 hPa 0,0 l/m 4,8 km/h (1 Bft) NO 45 0,000 mm 786 W/m 6,0 C 14,7 C 8,0 km/h (2 Bft) 100,00 %
03.06.2023 14:22 14,7 C 25,0 C 21,1 C 59 % 1018,0 hPa 0,0 l/m 4,8 km/h (1 Bft) N 360 0,000 mm 786 W/m 6,8 C 14,7 C 8,0 km/h (2 Bft) 95,65 %
03.06.2023 14:21 14,6 C 25,0 C 21,1 C 56 % 1018,1 hPa 0,0 l/m 1,6 km/h (1 Bft) O-SO 112 0,000 mm 788 W/m 5,9 C 14,6 C 6,4 km/h (2 Bft) 95,65 %
03.06.2023 14:20 14,6 C 24,4 C 21,1 C 64 % 1018,0 hPa 0,0 l/m 6,4 km/h (2 Bft) N 360 0,000 mm 791 W/m 7,9 C 14,6 C 8,0 km/h (2 Bft) 100,00 %
03.06.2023 14:19 14,4 C 25,0 C 21,1 C 58 % 1018,0 hPa 0,0 l/m 4,8 km/h (1 Bft) N-NO 22 0,000 mm 791 W/m 6,2 C 14,4 C 12,9 km/h (3 Bft) 100,00 %
03.06.2023 14:18 14,4 C 25,6 C 21,1 C 54 % 1018,0 hPa 0,0 l/m 3,2 km/h (1 Bft) O 90 0,000 mm 791 W/m 5,2 C 14,4 C 6,4 km/h (2 Bft) 95,65 %
03.06.2023 14:17 14,5 C 25,6 C 21,1 C 56 % 1018,0 hPa 0,0 l/m 6,4 km/h (2 Bft) SO 135 0,000 mm 793 W/m 5,8 C 14,5 C 17,7 km/h (3 Bft) 100,00 %
03.06.2023 14:16 14,6 C 25,0 C 21,1 C 61 % 1018,1 hPa 0,0 l/m 4,8 km/h (1 Bft) O-SO 112 0,000 mm 793 W/m 7,2 C 14,6 C 9,7 km/h (2 Bft) 95,65 %
03.06.2023 14:15 14,6 C 25,6 C 20,6 C 56 % 1018,0 hPa 0,0 l/m 3,2 km/h (1 Bft) O-NO 67 0,000 mm 796 W/m 5,9 C 14,6 C 8,0 km/h (2 Bft) 95,65 %
03.06.2023 14:14 14,7 C 25,6 C 20,6 C 57 % 1018,2 hPa 0,0 l/m 9,7 km/h (2 Bft) O 90 0,000 mm 796 W/m 6,3 C 14,7 C 12,9 km/h (3 Bft) 100,00 %
03.06.2023 14:13 14,7 C 25,6 C 20,6 C 60 % 1018,2 hPa 0,0 l/m 11,3 km/h (2 Bft) O 90 0,000 mm 796 W/m 7,0 C 14,7 C 17,7 km/h (3 Bft) 100,00 %
03.06.2023 14:12 14,8 C 26,1 C 20,6 C 58 % 1018,2 hPa 0,0 l/m 9,7 km/h (2 Bft) O 90 0,000 mm 800 W/m 6,6 C 14,8 C 14,5 km/h (3 Bft) 100,00 %
03.06.2023 14:11 14,8 C 26,1 C 20,6 C 58 % 1018,2 hPa 0,0 l/m 8,0 km/h (2 Bft) O 90 0,000 mm 800 W/m 6,6 C 14,8 C 16,1 km/h (3 Bft) 100,00 %
03.06.2023 14:10 14,8 C 26,1 C 20,6 C 56 % 1018,2 hPa 0,0 l/m 6,4 km/h (2 Bft) O 90 0,000 mm 800 W/m 6,1 C 14,8 C 11,3 km/h (2 Bft) 100,00 %
03.06.2023 14:09 14,8 C 26,1 C 20,6 C 58 % 1018,2 hPa 0,0 l/m 9,7 km/h (2 Bft) O-NO 67 0,000 mm 802 W/m 6,6 C 14,8 C 14,5 km/h (3 Bft) 95,65 %
03.06.2023 14:08 14,7 C 26,1 C 20,6 C 60 % 1018,2 hPa 0,0 l/m 11,3 km/h (2 Bft) N-NO 22 0,000 mm 802 W/m 7,0 C 14,7 C 17,7 km/h (3 Bft) 95,65 %
03.06.2023 14:07 14,6 C 26,1 C 20,6 C 60 % 1018,1 hPa 0,0 l/m 12,9 km/h (3 Bft) NO 45 0,000 mm 793 W/m 6,9 C 14,6 C 24,1 km/h (4 Bft) 100,00 %
03.06.2023 14:06 14,6 C 25,6 C 20,6 C 56 % 1018,1 hPa 0,0 l/m 8,0 km/h (2 Bft) N 360 0,000 mm 802 W/m 5,9 C 14,6 C 16,1 km/h (3 Bft) 100,00 %
03.06.2023 14:05 14,4 C 25,6 C 20,6 C 56 % 1018,2 hPa 0,0 l/m 3,2 km/h (1 Bft) O-NO 67 0,000 mm 800 W/m 5,7 C 14,4 C 4,8 km/h (1 Bft) 100,00 %
03.06.2023 14:04 14,5 C 25,6 C 20,6 C 58 % 1018,1 hPa 0,0 l/m 1,6 km/h (1 Bft) O-NO 67 0,000 mm 802 W/m 6,3 C 14,5 C 3,2 km/h (1 Bft) 100,00 %
03.06.2023 14:03 14,5 C 26,1 C 20,6 C 54 % 1018,2 hPa 0,0 l/m 3,2 km/h (1 Bft) N-NW 337 0,000 mm 803 W/m 5,3 C 14,5 C 6,4 km/h (2 Bft) 100,00 %
03.06.2023 14:02 14,6 C 25,6 C 20,6 C 62 % 1018,1 hPa 0,0 l/m 6,4 km/h (2 Bft) N-NO 22 0,000 mm 805 W/m 7,4 C 14,6 C 12,9 km/h (3 Bft) 95,65 %
03.06.2023 14:01 14,5 C 26,1 C 20,6 C 61 % 1018,2 hPa 0,0 l/m 6,4 km/h (2 Bft) SO 135 0,000 mm 805 W/m 7,1 C 14,5 C 11,3 km/h (2 Bft) 95,65 %
03.06.2023 14:00 14,5 C 26,1 C 20,6 C 57 % 1018,2 hPa 0,0 l/m 8,0 km/h (2 Bft) S-SO 157 0,533 mm 807 W/m 6,1 C 14,5 C 12,9 km/h (3 Bft) 100,00 %
03.06.2023 13:59 14,6 C 26,1 C 20,6 C 57 % 1018,3 hPa 0,0 l/m 11,3 km/h (2 Bft) N-NO 22 0,000 mm 807 W/m 6,2 C 14,6 C 17,7 km/h (3 Bft) 100,00 %
03.06.2023 13:58 14,6 C 26,7 C 20,6 C 60 % 1018,2 hPa 0,0 l/m 8,0 km/h (2 Bft) O-SO 112 0,000 mm 807 W/m 6,9 C 14,6 C 14,5 km/h (3 Bft) 100,00 %
03.06.2023 13:57 14,7 C 26,7 C 20,6 C 60 % 1018,3 hPa 0,0 l/m 6,4 km/h (2 Bft) O 90 0,000 mm 809 W/m 7,0 C 14,7 C 9,7 km/h (2 Bft) 95,65 %
03.06.2023 13:56 14,6 C 27,2 C 20,6 C 58 % 1018,3 hPa 0,0 l/m 8,0 km/h (2 Bft) N-NO 22 0,000 mm 807 W/m 6,4 C 14,6 C 11,3 km/h (2 Bft) 100,00 %
03.06.2023 13:55 14,6 C 27,8 C 20,6 C 56 % 1018,3 hPa 0,0 l/m 9,7 km/h (2 Bft) O-SO 112 0,000 mm 810 W/m 5,9 C 14,6 C 12,9 km/h (3 Bft) 100,00 %
03.06.2023 13:54 14,7 C 28,3 C 20,6 C 58 % 1018,3 hPa 0,0 l/m 8,0 km/h (2 Bft) O-NO 67 0,000 mm 810 W/m 6,5 C 14,7 C 14,5 km/h (3 Bft) 95,65 %
03.06.2023 13:53 14,7 C 28,3 C 20,6 C 57 % 1018,2 hPa 0,0 l/m 8,0 km/h (2 Bft) O-SO 112 0,000 mm 812 W/m 6,3 C 14,7 C 14,5 km/h (3 Bft) 95,65 %
03.06.2023 13:52 14,6 C 28,3 C 20,6 C 54 % 1018,3 hPa 0,0 l/m 4,8 km/h (1 Bft) N-NO 22 0,000 mm 812 W/m 5,4 C 14,6 C 14,5 km/h (3 Bft) 100,00 %
03.06.2023 13:51 14,5 C 28,3 C 20,6 C 57 % 1018,4 hPa 0,0 l/m 6,4 km/h (2 Bft) NO 45 0,000 mm 810 W/m 6,1 C 14,5 C 9,7 km/h (2 Bft) 100,00 %
03.06.2023 13:50 14,4 C 27,8 C 20,6 C 60 % 1018,4 hPa 0,0 l/m 9,7 km/h (2 Bft) N-NO 22 0,000 mm 812 W/m 6,7 C 14,4 C 14,5 km/h (3 Bft) 100,00 %
03.06.2023 13:49 14,2 C 27,8 C 20,6 C 55 % 1018,2 hPa 0,0 l/m 4,8 km/h (1 Bft) O-SO 112 0,000 mm 812 W/m 5,3 C 14,2 C 9,7 km/h (2 Bft) 100,00 %
03.06.2023 13:48 14,2 C 27,8 C 20,6 C 56 % 1018,3 hPa 0,0 l/m 3,2 km/h (1 Bft) N 360 0,000 mm 814 W/m 5,6 C 14,2 C 6,4 km/h (2 Bft) 95,65 %
03.06.2023 13:47 14,3 C 27,2 C 20,6 C 54 % 1018,3 hPa 0,0 l/m 8,0 km/h (2 Bft) N-NO 22 0,000 mm 814 W/m 5,1 C 14,3 C 14,5 km/h (3 Bft) 95,65 %
03.06.2023 13:46 14,4 C 27,2 C 21,1 C 57 % 1018,4 hPa 0,0 l/m 6,4 km/h (2 Bft) O 90 0,000 mm 816 W/m 6,0 C 14,4 C 12,9 km/h (3 Bft) 100,00 %
03.06.2023 13:45 14,4 C 27,2 C 21,1 C 54 % 1018,3 hPa 0,0 l/m 6,4 km/h (2 Bft) N 360 0,000 mm 819 W/m 5,2 C 14,4 C 12,9 km/h (3 Bft) 100,00 %
03.06.2023 13:44 14,4 C 26,7 C 20,6 C 62 % 1018,3 hPa 0,0 l/m 6,4 km/h (2 Bft) N-NO 22 0,000 mm 819 W/m 7,2 C 14,4 C 14,5 km/h (3 Bft) 100,00 %
03.06.2023 13:43 14,4 C 26,7 C 21,1 C 58 % 1018,4 hPa 0,0 l/m 3,2 km/h (1 Bft) O-SO 112 0,000 mm 817 W/m 6,2 C 14,4 C 4,8 km/h (1 Bft) 95,65 %
03.06.2023 13:42 14,4 C 26,7 C 20,6 C 60 % 1018,3 hPa 0,0 l/m 3,2 km/h (1 Bft) O 90 0,000 mm 821 W/m 6,7 C 14,4 C 6,4 km/h (2 Bft) 100,00 %
03.06.2023 13:41 14,4 C 26,7 C 20,6 C 54 % 1018,3 hPa 0,0 l/m 6,4 km/h (2 Bft) N-NO 22 0,000 mm 817 W/m 5,2 C 14,4 C 12,9 km/h (3 Bft) 100,00 %
03.06.2023 13:40 14,5 C 26,7 C 20,6 C 58 % 1018,3 hPa 0,0 l/m 3,2 km/h (1 Bft) O 90 0,000 mm 817 W/m 6,3 C 14,5 C 4,8 km/h (1 Bft) 95,65 %
03.06.2023 13:39 14,4 C 26,7 C 20,6 C 64 % 1018,4 hPa 0,0 l/m 4,8 km/h (1 Bft) N-NW 337 0,000 mm 816 W/m 7,7 C 14,4 C 9,7 km/h (2 Bft) 100,00 %
03.06.2023 13:38 14,3 C 27,2 C 20,6 C 59 % 1018,4 hPa 0,0 l/m 9,7 km/h (2 Bft) N-NO 22 0,000 mm 817 W/m 6,4 C 14,3 C 17,7 km/h (3 Bft) 100,00 %
03.06.2023 13:37 14,2 C 27,2 C 20,6 C 58 % 1018,4 hPa 0,0 l/m 8,0 km/h (2 Bft) O 90 0,000 mm 816 W/m 6,1 C 14,2 C 20,9 km/h (4 Bft) 95,65 %
03.06.2023 13:36 14,2 C 26,7 C 20,6 C 55 % 1018,4 hPa 0,0 l/m 4,8 km/h (1 Bft) N-NO 22 0,000 mm 821 W/m 5,3 C 14,2 C 11,3 km/h (2 Bft) 100,00 %
03.06.2023 13:35 14,2 C 26,1 C 20,6 C 61 % 1018,4 hPa 0,0 l/m 3,2 km/h (1 Bft) N-NO 22 0,000 mm 817 W/m 6,8 C 14,2 C 6,4 km/h (2 Bft) 100,00 %
03.06.2023 13:34 14,2 C 26,1 C 20,6 C 59 % 1018,4 hPa 0,0 l/m 1,6 km/h (1 Bft) W-NW 292 0,000 mm 819 W/m 6,3 C 14,2 C 3,2 km/h (1 Bft) 95,65 %
03.06.2023 13:33 14,1 C 26,1 C 20,6 C 57 % 1018,5 hPa 0,0 l/m 4,8 km/h (1 Bft) N-NO 22 0,000 mm 817 W/m 5,7 C 14,1 C 14,5 km/h (3 Bft) 95,65 %
03.06.2023 13:32 14,1 C 26,1 C 20,6 C 59 % 1018,5 hPa 0,0 l/m 6,4 km/h (2 Bft) N-NO 22 0,000 mm 821 W/m 6,2 C 14,1 C 11,3 km/h (2 Bft) 100,00 %
03.06.2023 13:31 14,1 C 26,1 C 20,6 C 62 % 1018,4 hPa 0,0 l/m 3,2 km/h (1 Bft) N-NO 22 0,000 mm 819 W/m 6,9 C 14,1 C 6,4 km/h (2 Bft) 95,65 %
03.06.2023 13:30 14,0 C 26,7 C 20,6 C 58 % 1018,5 hPa 0,0 l/m 1,6 km/h (1 Bft) NO 45 0,000 mm 817 W/m 5,9 C 14,0 C 4,8 km/h (1 Bft) 91,30 %
03.06.2023 13:29 14,0 C 26,7 C 20,6 C 57 % 1018,5 hPa 0,0 l/m 4,8 km/h (1 Bft) NO 45 0,000 mm 819 W/m 5,6 C 14,0 C 11,3 km/h (2 Bft) 100,00 %
03.06.2023 13:28 14,0 C 26,7 C 20,6 C 57 % 1018,4 hPa 0,0 l/m 6,4 km/h (2 Bft) O 90 0,000 mm 819 W/m 5,6 C 14,0 C 14,5 km/h (3 Bft) 91,30 %
03.06.2023 13:27 14,1 C 27,2 C 20,6 C 58 % 1018,5 hPa 0,0 l/m 8,0 km/h (2 Bft) N-NO 22 0,000 mm 821 W/m 6,0 C 14,1 C 19,3 km/h (3 Bft) 100,00 %
03.06.2023 13:26 14,1 C 27,8 C 20,6 C 55 % 1018,5 hPa 0,0 l/m 8,0 km/h (2 Bft) N-NO 22 0,000 mm 819 W/m 5,2 C 14,1 C 17,7 km/h (3 Bft) 91,30 %
03.06.2023 13:25 14,1 C 27,8 C 20,6 C 56 % 1018,5 hPa 0,0 l/m 8,0 km/h (2 Bft) O-SO 112 0,000 mm 821 W/m 5,5 C 14,1 C 14,5 km/h (3 Bft) 100,00 %
03.06.2023 13:24 14,1 C 27,8 C 20,6 C 59 % 1018,5 hPa 0,0 l/m 6,4 km/h (2 Bft) N-NO 22 0,000 mm 821 W/m 6,2 C 14,1 C 12,9 km/h (3 Bft) 95,65 %
03.06.2023 13:23 14,1 C 27,8 C 20,6 C 59 % 1018,5 hPa 0,0 l/m 6,4 km/h (2 Bft) O-NO 67 0,000 mm 821 W/m 6,2 C 14,1 C 12,9 km/h (3 Bft) 95,65 %
03.06.2023 13:22 13,9 C 27,8 C 20,6 C 60 % 1018,5 hPa 0,0 l/m 8,0 km/h (2 Bft) N-NO 22 0,000 mm 821 W/m 6,3 C 13,9 C 16,1 km/h (3 Bft) 95,65 %
03.06.2023 13:21 13,9 C 28,3 C 20,6 C 60 % 1018,6 hPa 0,0 l/m 3,2 km/h (1 Bft) O-NO 67 0,000 mm 819 W/m 6,3 C 13,9 C 6,4 km/h (2 Bft) 100,00 %
03.06.2023 13:20 13,8 C 28,9 C 20,6 C 58 % 1018,5 hPa 0,0 l/m 6,4 km/h (2 Bft) N-NO 22 0,000 mm 823 W/m 5,7 C 13,8 C 14,5 km/h (3 Bft) 95,65 %
03.06.2023 13:19 13,8 C 28,9 C 20,6 C 60 % 1018,4 hPa 0,0 l/m 6,4 km/h (2 Bft) O-NO 67 0,000 mm 823 W/m 6,2 C 13,8 C 9,7 km/h (2 Bft) 91,30 %
03.06.2023 13:18 13,7 C 28,9 C 20,6 C 59 % 1018,5 hPa 0,0 l/m 8,0 km/h (2 Bft) O-SO 112 0,000 mm 821 W/m 5,8 C 13,7 C 12,9 km/h (3 Bft) 95,65 %
03.06.2023 13:17 13,7 C 28,9 C 20,6 C 57 % 1018,5 hPa 0,0 l/m 8,0 km/h (2 Bft) O-SO 112 0,000 mm 819 W/m 5,3 C 13,7 C 17,7 km/h (3 Bft) 95,65 %
03.06.2023 13:16 13,7 C 28,9 C 20,6 C 54 % 1018,5 hPa 0,0 l/m 12,9 km/h (3 Bft) SO 135 0,000 mm 819 W/m 4,6 C 13,7 C 16,1 km/h (3 Bft) 95,65 %
03.06.2023 13:15 13,7 C 29,4 C 20,6 C 54 % 1018,5 hPa 0,0 l/m 11,3 km/h (2 Bft) O 90 0,000 mm 821 W/m 4,6 C 13,7 C 19,3 km/h (3 Bft) 91,30 %
03.06.2023 13:14 13,8 C 29,4 C 20,6 C 57 % 1018,5 hPa 0,0 l/m 4,8 km/h (1 Bft) SO 135 0,000 mm 823 W/m 5,4 C 13,8 C 11,3 km/h (2 Bft) 100,00 %
03.06.2023 13:13 13,9 C 28,9 C 20,6 C 60 % 1018,4 hPa 0,0 l/m 6,4 km/h (2 Bft) O-SO 112 0,000 mm 824 W/m 6,3 C 13,9 C 11,3 km/h (2 Bft) 91,30 %
03.06.2023 13:12 13,9 C 28,9 C 20,6 C 59 % 1018,5 hPa 0,0 l/m 6,4 km/h (2 Bft) O 90 0,000 mm 824 W/m 6,0 C 13,9 C 11,3 km/h (2 Bft) 95,65 %
03.06.2023 13:11 13,9 C 28,9 C 20,6 C 58 % 1018,5 hPa 0,0 l/m 4,8 km/h (1 Bft) O 90 0,000 mm 823 W/m 5,8 C 13,9 C 11,3 km/h (2 Bft) 95,65 %
03.06.2023 13:10 14,0 C 28,3 C 20,6 C 56 % 1018,4 hPa 0,0 l/m 6,4 km/h (2 Bft) S 180 0,000 mm 823 W/m 5,4 C 14,0 C 16,1 km/h (3 Bft) 95,65 %
03.06.2023 13:09 14,1 C 27,8 C 20,6 C 60 % 1018,5 hPa 0,0 l/m 9,7 km/h (2 Bft) SO 135 0,000 mm 816 W/m 6,5 C 14,1 C 16,1 km/h (3 Bft) 95,65 %
03.06.2023 13:08 14,1 C 28,9 C 20,6 C 61 % 1018,5 hPa 0,0 l/m 6,4 km/h (2 Bft) O-SO 112 0,000 mm 819 W/m 6,7 C 14,1 C 12,9 km/h (3 Bft) 100,00 %
03.06.2023 13:07 13,9 C 28,9 C 20,6 C 66 % 1018,5 hPa 0,0 l/m 8,0 km/h (2 Bft) O-SO 112 0,000 mm 819 W/m 7,7 C 13,9 C 11,3 km/h (2 Bft) 100,00 %
03.06.2023 13:06 13,7 C 28,9 C 20,6 C 56 % 1018,5 hPa 0,0 l/m 9,7 km/h (2 Bft) O 90 0,000 mm 819 W/m 5,1 C 13,7 C 14,5 km/h (3 Bft) 100,00 %
03.06.2023 13:05 13,7 C 28,3 C 20,6 C 56 % 1018,5 hPa 0,0 l/m 11,3 km/h (2 Bft) SO 135 0,000 mm 823 W/m 5,1 C 13,7 C 17,7 km/h (3 Bft) 91,30 %
03.06.2023 13:04 13,6 C 28,3 C 20,6 C 59 % 1018,5 hPa 0,0 l/m 8,0 km/h (2 Bft) O-NO 67 0,000 mm 824 W/m 5,7 C 13,6 C 12,9 km/h (3 Bft) 100,00 %
03.06.2023 13:03 13,6 C 28,3 C 20,6 C 60 % 1018,5 hPa 0,0 l/m 6,4 km/h (2 Bft) N-NO 22 0,000 mm 821 W/m 6,0 C 13,6 C 12,9 km/h (3 Bft) 100,00 %
03.06.2023 13:02 13,4 C 27,8 C 20,6 C 61 % 1018,5 hPa 0,0 l/m 8,0 km/h (2 Bft) NO 45 0,000 mm 821 W/m 6,0 C 13,4 C 14,5 km/h (3 Bft) 100,00 %
03.06.2023 13:01 13,4 C 27,2 C 20,6 C 57 % 1018,5 hPa 0,0 l/m 6,4 km/h (2 Bft) N-NO 22 0,000 mm 819 W/m 5,1 C 13,4 C 8,0 km/h (2 Bft) 100,00 %
03.06.2023 13:00 13,4 C 27,2 C 20,6 C 58 % 1018,5 hPa 0,0 l/m 6,4 km/h (2 Bft) N-NO 22 0,457 mm 817 W/m 5,3 C 13,4 C 11,3 km/h (2 Bft) 100,00 %
03.06.2023 12:59 13,4 C 26,7 C 20,6 C 61 % 1018,5 hPa 0,0 l/m 6,4 km/h (2 Bft) N 360 0,000 mm 821 W/m 6,0 C 13,4 C 19,3 km/h (3 Bft) 100,00 %
03.06.2023 12:58 13,3 C 27,2 C 20,6 C 57 % 1018,5 hPa 0,0 l/m 8,0 km/h (2 Bft) N-NO 22 0,000 mm 821 W/m 5,0 C 13,3 C 12,9 km/h (3 Bft) 91,30 %
03.06.2023 12:57 13,3 C 27,2 C 20,6 C 61 % 1018,5 hPa 0,0 l/m 4,8 km/h (1 Bft) N-NO 22 0,000 mm 821 W/m 5,9 C 13,3 C 8,0 km/h (2 Bft) 100,00 %
03.06.2023 12:56 13,2 C 26,7 C 20,6 C 59 % 1018,6 hPa 0,0 l/m 8,0 km/h (2 Bft) O-SO 112 0,000 mm 819 W/m 5,4 C 13,2 C 14,5 km/h (3 Bft) 100,00 %
03.06.2023 12:55 13,2 C 27,2 C 20,6 C 58 % 1018,5 hPa 0,0 l/m 14,5 km/h (3 Bft) N-NO 22 0,000 mm 817 W/m 5,1 C 13,2 C 20,9 km/h (4 Bft) 100,00 %
03.06.2023 12:54 13,3 C 27,8 C 20,6 C 60 % 1018,5 hPa 0,0 l/m 6,4 km/h (2 Bft) N 360 0,000 mm 814 W/m 5,7 C 13,3 C 14,5 km/h (3 Bft) 95,65 %
03.06.2023 12:53 13,3 C 27,8 C 20,6 C 59 % 1018,6 hPa 0,0 l/m 6,4 km/h (2 Bft) NO 45 0,000 mm 809 W/m 5,5 C 13,3 C 11,3 km/h (2 Bft) 100,00 %
03.06.2023 12:52 13,3 C 28,9 C 20,6 C 61 % 1018,6 hPa 0,0 l/m 6,4 km/h (2 Bft) NO 45 0,000 mm 798 W/m 5,9 C 13,3 C 14,5 km/h (3 Bft) 100,00 %
03.06.2023 12:51 13,2 C 28,9 C 20,6 C 62 % 1018,6 hPa 0,0 l/m 4,8 km/h (1 Bft) N-NO 22 0,000 mm 791 W/m 6,1 C 13,2 C 6,4 km/h (2 Bft) 95,65 %
03.06.2023 12:50 13,2 C 30,0 C 20,6 C 59 % 1018,5 hPa 0,0 l/m 4,8 km/h (1 Bft) SO 135 0,000 mm 788 W/m 5,4 C 13,2 C 9,7 km/h (2 Bft) 100,00 %
03.06.2023 12:49 13,3 C 30,6 C 20,6 C 58 % 1018,6 hPa 0,0 l/m 9,7 km/h (2 Bft) O-SO 112 0,000 mm 780 W/m 5,2 C 13,3 C 14,5 km/h (3 Bft) 100,00 %
03.06.2023 12:48 13,3 C 30,6 C 20,6 C 56 % 1018,5 hPa 0,0 l/m 8,0 km/h (2 Bft) O-SO 112 0,000 mm 770 W/m 4,7 C 13,3 C 14,5 km/h (3 Bft) 100,00 %
03.06.2023 12:47 13,3 C 30,0 C 20,6 C 61 % 1018,6 hPa 0,0 l/m 4,8 km/h (1 Bft) SO 135 0,000 mm 754 W/m 5,9 C 13,3 C 9,7 km/h (2 Bft) 100,00 %
03.06.2023 12:46 13,3 C 30,0 C 20,6 C 57 % 1018,6 hPa 0,0 l/m 4,8 km/h (1 Bft) O 90 0,000 mm 747 W/m 5,0 C 13,3 C 6,4 km/h (2 Bft) 91,30 %
03.06.2023 12:45 13,3 C 30,0 C 20,6 C 58 % 1018,5 hPa 0,0 l/m 9,7 km/h (2 Bft) O 90 0,000 mm 740 W/m 5,2 C 13,3 C 14,5 km/h (3 Bft) 100,00 %
03.06.2023 12:44 13,3 C 29,4 C 20,6 C 58 % 1018,5 hPa 0,0 l/m 3,2 km/h (1 Bft) O 90 0,000 mm 733 W/m 5,2 C 13,3 C 11,3 km/h (2 Bft) 91,30 %
03.06.2023 12:43 13,3 C 29,4 C 20,6 C 58 % 1018,6 hPa 0,0 l/m 6,4 km/h (2 Bft) N-NO 22 0,000 mm 721 W/m 5,2 C 13,3 C 8,0 km/h (2 Bft) 95,65 %
03.06.2023 12:42 13,3 C 29,4 C 20,6 C 58 % 1018,6 hPa 0,0 l/m 4,8 km/h (1 Bft) N 360 0,000 mm 710 W/m 5,2 C 13,3 C 9,7 km/h (2 Bft) 91,30 %
03.06.2023 12:41 13,3 C 29,4 C 20,6 C 59 % 1018,5 hPa 0,0 l/m 6,4 km/h (2 Bft) O 90 0,000 mm 701 W/m 5,5 C 13,3 C 14,5 km/h (3 Bft) 100,00 %
03.06.2023 12:40 13,3 C 28,9 C 20,6 C 58 % 1018,6 hPa 0,0 l/m 6,4 km/h (2 Bft) O 90 0,000 mm 684 W/m 5,2 C 13,3 C 11,3 km/h (2 Bft) 95,65 %
03.06.2023 12:39 13,3 C 28,3 C 20,6 C 60 % 1018,6 hPa 0,0 l/m 6,4 km/h (2 Bft) O-SO 112 0,000 mm 677 W/m 5,7 C 13,3 C 12,9 km/h (3 Bft) 100,00 %
03.06.2023 12:38 13,3 C 28,3 C 20,6 C 57 % 1018,6 hPa 0,0 l/m 4,8 km/h (1 Bft) SO 135 0,000 mm 673 W/m 5,0 C 13,3 C 11,3 km/h (2 Bft) 91,30 %
03.06.2023 12:37 13,5 C 27,8 C 20,6 C 60 % 1018,6 hPa 0,0 l/m 4,8 km/h (1 Bft) N-NW 337 0,000 mm 666 W/m 5,9 C 13,5 C 6,4 km/h (2 Bft) 91,30 %
03.06.2023 12:36 13,6 C 27,8 C 20,6 C 57 % 1018,5 hPa 0,0 l/m 4,8 km/h (1 Bft) O-NO 67 0,000 mm 663 W/m 5,2 C 13,6 C 6,4 km/h (2 Bft) 100,00 %
03.06.2023 12:35 13,6 C 28,3 C 20,6 C 62 % 1018,6 hPa 0,0 l/m 3,2 km/h (1 Bft) N-NW 337 0,000 mm 657 W/m 6,5 C 13,6 C 8,0 km/h (2 Bft) 95,65 %
03.06.2023 12:34 13,4 C 28,3 C 20,6 C 64 % 1018,6 hPa 0,0 l/m 9,7 km/h (2 Bft) O 90 0,000 mm 652 W/m 6,7 C 13,4 C 20,9 km/h (4 Bft) 100,00 %
03.06.2023 12:33 13,2 C 28,3 C 20,6 C 65 % 1018,6 hPa 0,0 l/m 6,4 km/h (2 Bft) NO 45 0,000 mm 652 W/m 6,8 C 13,2 C 19,3 km/h (3 Bft) 95,65 %
03.06.2023 12:32 13,2 C 28,3 C 20,6 C 61 % 1018,6 hPa 0,0 l/m 9,7 km/h (2 Bft) N-NO 22 0,000 mm 650 W/m 5,8 C 13,2 C 17,7 km/h (3 Bft) 100,00 %
03.06.2023 12:31 13,2 C 28,9 C 20,6 C 62 % 1018,5 hPa 0,0 l/m 4,8 km/h (1 Bft) O-SO 112 0,000 mm 652 W/m 6,1 C 13,2 C 11,3 km/h (2 Bft) 95,65 %
03.06.2023 12:30 13,2 C 28,9 C 20,6 C 59 % 1018,6 hPa 0,0 l/m 9,7 km/h (2 Bft) O-SO 112 0,000 mm 652 W/m 5,4 C 13,2 C 19,3 km/h (3 Bft) 91,30 %
03.06.2023 12:29 13,3 C 28,9 C 20,6 C 61 % 1018,5 hPa 0,0 l/m 6,4 km/h (2 Bft) S-SO 157 0,000 mm 657 W/m 5,9 C 13,3 C 8,0 km/h (2 Bft) 95,65 %
03.06.2023 12:28 13,2 C 28,9 C 20,6 C 62 % 1018,5 hPa 0,0 l/m 12,9 km/h (3 Bft) SO 135 0,000 mm 659 W/m 6,1 C 13,2 C 19,3 km/h (3 Bft) 95,65 %
03.06.2023 12:27 13,2 C 28,9 C 20,6 C 60 % 1018,6 hPa 0,0 l/m 9,7 km/h (2 Bft) SO 135 0,000 mm 664 W/m 5,6 C 13,2 C 14,5 km/h (3 Bft) 100,00 %
03.06.2023 12:26 13,2 C 29,4 C 20,6 C 58 % 1018,6 hPa 0,0 l/m 9,7 km/h (2 Bft) O 90 0,000 mm 670 W/m 5,1 C 13,2 C 14,5 km/h (3 Bft) 95,65 %
03.06.2023 12:25 13,3 C 28,9 C 20,0 C 61 % 1018,6 hPa 0,0 l/m 9,7 km/h (2 Bft) O-SO 112 0,000 mm 675 W/m 5,9 C 13,3 C 14,5 km/h (3 Bft) 95,65 %
03.06.2023 12:24 13,2 C 28,9 C 20,6 C 62 % 1018,5 hPa 0,0 l/m 12,9 km/h (3 Bft) O 90 0,000 mm 682 W/m 6,1 C 13,2 C 16,1 km/h (3 Bft) 95,65 %
03.06.2023 12:23 13,2 C 28,3 C 20,0 C 64 % 1018,5 hPa 0,0 l/m 4,8 km/h (1 Bft) O-SO 112 0,000 mm 698 W/m 6,5 C 13,2 C 9,7 km/h (2 Bft) 95,65 %
03.06.2023 12:22 13,1 C 27,8 C 20,0 C 61 % 1018,6 hPa 0,0 l/m 3,2 km/h (1 Bft) O-SO 112 0,000 mm 708 W/m 5,8 C 13,1 C 6,4 km/h (2 Bft) 95,65 %
03.06.2023 12:21 13,1 C 27,8 C 20,0 C 61 % 1018,5 hPa 0,0 l/m 8,0 km/h (2 Bft) O-SO 112 0,000 mm 717 W/m 5,8 C 13,1 C 11,3 km/h (2 Bft) 100,00 %
03.06.2023 12:20 13,1 C 27,8 C 20,0 C 64 % 1018,6 hPa 0,0 l/m 9,7 km/h (2 Bft) SO 135 0,000 mm 728 W/m 6,4 C 13,1 C 14,5 km/h (3 Bft) 91,30 %
03.06.2023 12:19 13,1 C 27,8 C 20,0 C 61 % 1018,6 hPa 0,0 l/m 9,7 km/h (2 Bft) O-SO 112 0,000 mm 735 W/m 5,8 C 13,1 C 14,5 km/h (3 Bft) 95,65 %
03.06.2023 12:18 13,0 C 28,3 C 20,0 C 63 % 1018,6 hPa 0,0 l/m 11,3 km/h (2 Bft) SO 135 0,000 mm 740 W/m 6,1 C 13,0 C 20,9 km/h (4 Bft) 100,00 %
03.06.2023 12:17 13,0 C 28,9 C 20,0 C 59 % 1018,6 hPa 0,0 l/m 9,7 km/h (2 Bft) O 90 0,000 mm 751 W/m 5,2 C 13,0 C 17,7 km/h (3 Bft) 91,30 %
03.06.2023 12:16 13,0 C 28,9 C 20,0 C 62 % 1018,4 hPa 0,0 l/m 11,3 km/h (2 Bft) N-NO 22 0,000 mm 759 W/m 5,9 C 13,0 C 17,7 km/h (3 Bft) 95,65 %
03.06.2023 12:15 13,0 C 28,3 C 20,0 C 60 % 1018,6 hPa 0,0 l/m 4,8 km/h (1 Bft) SO 135 0,000 mm 766 W/m 5,4 C 13,0 C 8,0 km/h (2 Bft) 95,65 %
03.06.2023 12:14 13,0 C 28,9 C 20,0 C 59 % 1018,6 hPa 0,0 l/m 4,8 km/h (1 Bft) S-SO 157 0,000 mm 773 W/m 5,2 C 13,0 C 9,7 km/h (2 Bft) 100,00 %
03.06.2023 12:13 13,1 C 28,3 C 20,0 C 58 % 1018,6 hPa 0,0 l/m 9,7 km/h (2 Bft) O 90 0,000 mm 784 W/m 5,0 C 13,1 C 16,1 km/h (3 Bft) 95,65 %
03.06.2023 12:12 13,1 C 28,3 C 20,0 C 59 % 1018,6 hPa 0,0 l/m 8,0 km/h (2 Bft) N-NO 22 0,000 mm 788 W/m 5,3 C 13,1 C 16,1 km/h (3 Bft) 95,65 %
03.06.2023 12:11 13,2 C 28,3 C 20,0 C 60 % 1018,6 hPa 0,0 l/m 8,0 km/h (2 Bft) NO 45 0,000 mm 795 W/m 5,6 C 13,2 C 14,5 km/h (3 Bft) 100,00 %
03.06.2023 12:10 13,3 C 28,3 C 20,0 C 63 % 1018,5 hPa 0,0 l/m 6,4 km/h (2 Bft) N-NO 22 0,000 mm 798 W/m 6,4 C 13,3 C 12,9 km/h (3 Bft) 86,96 %
03.06.2023 12:09 13,3 C 29,4 C 20,0 C 60 % 1018,7 hPa 0,0 l/m 8,0 km/h (2 Bft) O-SO 112 0,000 mm 795 W/m 5,7 C 13,3 C 14,5 km/h (3 Bft) 86,96 %
03.06.2023 12:08 13,3 C 29,4 C 20,0 C 62 % 1018,7 hPa 0,0 l/m 11,3 km/h (2 Bft) O 90 0,000 mm 796 W/m 6,2 C 13,3 C 19,3 km/h (3 Bft) 95,65 %
03.06.2023 12:07 13,3 C 28,9 C 20,0 C 62 % 1018,6 hPa 0,0 l/m 6,4 km/h (2 Bft) N-NO 22 0,000 mm 800 W/m 6,2 C 13,3 C 16,1 km/h (3 Bft) 91,30 %
03.06.2023 12:06 13,2 C 28,9 C 20,0 C 61 % 1018,6 hPa 0,0 l/m 4,8 km/h (1 Bft) O 90 0,000 mm 802 W/m 5,8 C 13,2 C 11,3 km/h (2 Bft) 91,30 %
03.06.2023 12:05 13,2 C 28,9 C 20,0 C 63 % 1018,6 hPa 0,0 l/m 6,4 km/h (2 Bft) NW 315 0,000 mm 800 W/m 6,3 C 13,2 C 12,9 km/h (3 Bft) 95,65 %
03.06.2023 12:04 13,1 C 28,3 C 20,0 C 59 % 1018,6 hPa 0,0 l/m 8,0 km/h (2 Bft) N 360 0,000 mm 800 W/m 5,3 C 13,1 C 14,5 km/h (3 Bft) 95,65 %
03.06.2023 12:03 13,0 C 28,9 C 20,0 C 59 % 1018,6 hPa 0,0 l/m 4,8 km/h (1 Bft) N-NO 22 0,000 mm 796 W/m 5,2 C 13,0 C 8,0 km/h (2 Bft) 91,30 %
03.06.2023 12:02 13,1 C 30,0 C 20,0 C 62 % 1018,5 hPa 0,0 l/m 6,4 km/h (2 Bft) O-NO 67 0,000 mm 789 W/m 6,0 C 13,1 C 8,0 km/h (2 Bft) 95,65 %
03.06.2023 12:01 13,0 C 30,0 C 20,0 C 62 % 1018,6 hPa 0,0 l/m 6,4 km/h (2 Bft) N-NO 22 0,000 mm 789 W/m 5,9 C 13,0 C 11,3 km/h (2 Bft) 86,96 %
03.06.2023 12:00 12,9 C 29,4 C 20,0 C 57 % 1018,5 hPa 0,0 l/m 6,4 km/h (2 Bft) N-NO 22 0,457 mm 789 W/m 4,6 C 12,9 C 9,7 km/h (2 Bft) 95,65 %
03.06.2023 11:59 13,0 C 29,4 C 20,0 C 60 % 1018,5 hPa 0,0 l/m 4,8 km/h (1 Bft) N 360 0,000 mm 786 W/m 5,4 C 13,0 C 8,0 km/h (2 Bft) 95,65 %
03.06.2023 11:58 12,9 C 29,4 C 20,0 C 63 % 1018,5 hPa 0,0 l/m 3,2 km/h (1 Bft) SW 225 0,000 mm 795 W/m 6,0 C 12,9 C 6,4 km/h (2 Bft) 95,65 %
03.06.2023 11:57 12,9 C 28,9 C 20,0 C 63 % 1018,5 hPa 0,0 l/m 6,4 km/h (2 Bft) NO 45 0,000 mm 793 W/m 6,0 C 12,9 C 12,9 km/h (3 Bft) 95,65 %
03.06.2023 11:56 12,8 C 28,9 C 20,0 C 58 % 1018,5 hPa 0,0 l/m 4,8 km/h (1 Bft) S 180 0,000 mm 795 W/m 4,7 C 12,8 C 8,0 km/h (2 Bft) 95,65 %
03.06.2023 11:55 12,8 C 29,4 C 20,0 C 60 % 1018,6 hPa 0,0 l/m 4,8 km/h (1 Bft) SO 135 0,000 mm 795 W/m 5,2 C 12,8 C 9,7 km/h (2 Bft) 91,30 %
03.06.2023 11:54 12,8 C 29,4 C 20,0 C 58 % 1018,6 hPa 0,0 l/m 8,0 km/h (2 Bft) N-NO 22 0,000 mm 789 W/m 4,7 C 12,8 C 16,1 km/h (3 Bft) 82,61 %
03.06.2023 11:53 12,8 C 28,9 C 20,0 C 58 % 1018,6 hPa 0,0 l/m 9,7 km/h (2 Bft) N-NO 22 0,000 mm 789 W/m 4,7 C 12,8 C 12,9 km/h (3 Bft) 100,00 %
03.06.2023 11:52 12,7 C 28,9 C 20,0 C 63 % 1018,5 hPa 0,0 l/m 4,8 km/h (1 Bft) SO 135 0,000 mm 788 W/m 5,8 C 12,7 C 6,4 km/h (2 Bft) 91,30 %
03.06.2023 11:51 12,8 C 28,9 C 20,0 C 60 % 1018,6 hPa 0,0 l/m 3,2 km/h (1 Bft) NO 45 0,000 mm 786 W/m 5,2 C 12,8 C 4,8 km/h (1 Bft) 95,65 %
03.06.2023 11:50 12,8 C 28,3 C 20,0 C 59 % 1018,6 hPa 0,0 l/m 8,0 km/h (2 Bft) NO 45 0,000 mm 786 W/m 5,0 C 12,8 C 14,5 km/h (3 Bft) 91,30 %
03.06.2023 11:49 12,8 C 28,3 C 20,0 C 60 % 1018,5 hPa 0,0 l/m 9,7 km/h (2 Bft) N-NO 22 0,000 mm 784 W/m 5,2 C 12,8 C 19,3 km/h (3 Bft) 100,00 %
03.06.2023 11:48 12,7 C 27,8 C 20,0 C 61 % 1018,4 hPa 0,0 l/m 6,4 km/h (2 Bft) O-NO 67 0,000 mm 782 W/m 5,4 C 12,7 C 12,9 km/h (3 Bft) 91,30 %
03.06.2023 11:47 12,6 C 27,8 C 20,0 C 63 % 1018,5 hPa 0,0 l/m 6,4 km/h (2 Bft) O 90 0,000 mm 777 W/m 5,7 C 12,6 C 11,3 km/h (2 Bft) 91,30 %
03.06.2023 11:46 12,4 C 27,8 C 20,0 C 58 % 1018,5 hPa 0,0 l/m 6,4 km/h (2 Bft) SO 135 0,000 mm 775 W/m 4,4 C 12,4 C 12,9 km/h (3 Bft) 91,30 %
03.06.2023 11:45 12,5 C 27,8 C 20,0 C 59 % 1018,6 hPa 0,0 l/m 4,8 km/h (1 Bft) NO 45 0,000 mm 777 W/m 4,7 C 12,5 C 14,5 km/h (3 Bft) 95,65 %
03.06.2023 11:44 12,5 C 27,8 C 20,0 C 57 % 1018,5 hPa 0,0 l/m 8,0 km/h (2 Bft) N-NO 22 0,000 mm 777 W/m 4,2 C 12,5 C 11,3 km/h (2 Bft) 100,00 %
03.06.2023 11:43 12,6 C 27,2 C 20,0 C 60 % 1018,5 hPa 0,0 l/m 9,7 km/h (2 Bft) NO 45 0,000 mm 779 W/m 5,0 C 12,6 C 14,5 km/h (3 Bft) 95,65 %
03.06.2023 11:42 12,6 C 27,2 C 20,0 C 58 % 1018,5 hPa 0,0 l/m 4,8 km/h (1 Bft) N 360 0,000 mm 779 W/m 4,6 C 12,6 C 6,4 km/h (2 Bft) 100,00 %
03.06.2023 11:41 12,6 C 26,7 C 20,0 C 63 % 1018,5 hPa 0,0 l/m 1,6 km/h (1 Bft) N 360 0,000 mm 777 W/m 5,7 C 12,6 C 3,2 km/h (1 Bft) 95,65 %
03.06.2023 11:40 12,6 C 26,7 C 20,0 C 63 % 1018,4 hPa 0,0 l/m 4,8 km/h (1 Bft) NO 45 0,000 mm 775 W/m 5,7 C 12,6 C 12,9 km/h (3 Bft) 95,65 %
03.06.2023 11:39 12,6 C 26,7 C 20,0 C 60 % 1018,5 hPa 0,0 l/m 3,2 km/h (1 Bft) N-NO 22 0,000 mm 775 W/m 5,0 C 12,6 C 4,8 km/h (1 Bft) 95,65 %
03.06.2023 11:38 12,6 C 26,7 C 20,0 C 61 % 1018,5 hPa 0,0 l/m 6,4 km/h (2 Bft) SO 135 0,000 mm 772 W/m 5,3 C 12,6 C 9,7 km/h (2 Bft) 100,00 %
03.06.2023 11:37 12,6 C 26,7 C 20,0 C 62 % 1018,5 hPa 0,0 l/m 9,7 km/h (2 Bft) SO 135 0,000 mm 770 W/m 5,5 C 12,6 C 12,9 km/h (3 Bft) 91,30 %
03.06.2023 11:36 12,5 C 27,2 C 20,0 C 62 % 1018,5 hPa 0,0 l/m 6,4 km/h (2 Bft) O-SO 112 0,000 mm 770 W/m 5,4 C 12,5 C 11,3 km/h (2 Bft) 95,65 %
03.06.2023 11:35 12,6 C 27,8 C 20,0 C 58 % 1018,5 hPa 0,0 l/m 3,2 km/h (1 Bft) NW 315 0,000 mm 768 W/m 4,6 C 12,6 C 6,4 km/h (2 Bft) 95,65 %
03.06.2023 11:34 12,6 C 28,3 C 20,0 C 59 % 1018,5 hPa 0,0 l/m 4,8 km/h (1 Bft) N 360 0,000 mm 766 W/m 4,8 C 12,6 C 12,9 km/h (3 Bft) 95,65 %
03.06.2023 11:33 12,6 C 28,3 C 20,0 C 60 % 1018,5 hPa 0,0 l/m 12,9 km/h (3 Bft) N-NO 22 0,000 mm 765 W/m 5,0 C 12,6 C 17,7 km/h (3 Bft) 95,65 %
03.06.2023 11:32 12,6 C 27,8 C 19,4 C 64 % 1018,5 hPa 0,0 l/m 11,3 km/h (2 Bft) N-NO 22 0,000 mm 766 W/m 6,0 C 12,6 C 20,9 km/h (4 Bft) 95,65 %
03.06.2023 11:31 12,5 C 27,8 C 19,4 C 63 % 1018,5 hPa 0,0 l/m 4,8 km/h (1 Bft) O 90 0,000 mm 763 W/m 5,7 C 12,5 C 9,7 km/h (2 Bft) 100,00 %
03.06.2023 11:30 12,4 C 27,8 C 19,4 C 57 % 1018,5 hPa 0,0 l/m 6,4 km/h (2 Bft) NO 45 0,000 mm 765 W/m 4,1 C 12,4 C 14,5 km/h (3 Bft) 91,30 %
03.06.2023 11:29 12,5 C 27,8 C 19,4 C 57 % 1018,5 hPa 0,0 l/m 4,8 km/h (1 Bft) S-SO 157 0,000 mm 763 W/m 4,2 C 12,5 C 11,3 km/h (2 Bft) 100,00 %
03.06.2023 11:28 12,4 C 27,2 C 19,4 C 60 % 1018,5 hPa 0,0 l/m 8,0 km/h (2 Bft) N-NO 22 0,000 mm 765 W/m 4,9 C 12,4 C 14,5 km/h (3 Bft) 95,65 %
03.06.2023 11:27 12,4 C 26,7 C 19,4 C 61 % 1018,5 hPa 0,0 l/m 4,8 km/h (1 Bft) NW 315 0,000 mm 765 W/m 5,1 C 12,4 C 14,5 km/h (3 Bft) 95,65 %
03.06.2023 11:26 12,4 C 26,7 C 19,4 C 57 % 1018,5 hPa 0,0 l/m 8,0 km/h (2 Bft) N-NO 22 0,000 mm 763 W/m 4,1 C 12,4 C 16,1 km/h (3 Bft) 95,65 %
03.06.2023 11:25 12,4 C 27,2 C 19,4 C 63 % 1018,5 hPa 0,0 l/m 4,8 km/h (1 Bft) O-SO 112 0,000 mm 758 W/m 5,6 C 12,4 C 8,0 km/h (2 Bft) 91,30 %
03.06.2023 11:24 12,3 C 27,2 C 19,4 C 61 % 1018,5 hPa 0,0 l/m 6,4 km/h (2 Bft) SO 135 0,000 mm 752 W/m 5,0 C 12,3 C 12,9 km/h (3 Bft) 100,00 %
03.06.2023 11:23 12,2 C 26,7 C 19,4 C 60 % 1018,5 hPa 0,0 l/m 8,0 km/h (2 Bft) N 360 0,000 mm 754 W/m 4,7 C 12,2 C 17,7 km/h (3 Bft) 91,30 %
03.06.2023 11:22 12,2 C 26,7 C 19,4 C 58 % 1018,5 hPa 0,0 l/m 4,8 km/h (1 Bft) O-NO 67 0,000 mm 759 W/m 4,2 C 12,2 C 9,7 km/h (2 Bft) 100,00 %
03.06.2023 11:21 12,2 C 26,1 C 19,4 C 62 % 1018,5 hPa 0,0 l/m 4,8 km/h (1 Bft) N 360 0,000 mm 758 W/m 5,1 C 12,2 C 6,4 km/h (2 Bft) 95,65 %
03.06.2023 11:20 12,1 C 26,1 C 19,4 C 59 % 1018,5 hPa 0,0 l/m 8,0 km/h (2 Bft) O 90 0,000 mm 744 W/m 4,3 C 12,1 C 14,5 km/h (3 Bft) 95,65 %
03.06.2023 11:19 12,1 C 26,1 C 19,4 C 57 % 1018,5 hPa 0,0 l/m 6,4 km/h (2 Bft) NO 45 0,000 mm 744 W/m 3,8 C 12,1 C 17,7 km/h (3 Bft) 95,65 %
03.06.2023 11:18 12,1 C 26,7 C 19,4 C 58 % 1018,6 hPa 0,0 l/m 8,0 km/h (2 Bft) N-NO 22 0,000 mm 751 W/m 4,1 C 12,1 C 14,5 km/h (3 Bft) 91,30 %
03.06.2023 11:17 12,1 C 26,7 C 19,4 C 58 % 1018,6 hPa 0,0 l/m 6,4 km/h (2 Bft) N-NO 22 0,000 mm 754 W/m 4,1 C 12,1 C 9,7 km/h (2 Bft) 100,00 %
03.06.2023 11:16 12,1 C 26,7 C 19,4 C 58 % 1018,5 hPa 0,0 l/m 11,3 km/h (2 Bft) N-NO 22 0,000 mm 756 W/m 4,1 C 12,1 C 17,7 km/h (3 Bft) 95,65 %
03.06.2023 11:15 12,1 C 26,7 C 19,4 C 58 % 1018,5 hPa 0,0 l/m 6,4 km/h (2 Bft) N-NO 22 0,000 mm 756 W/m 4,1 C 12,1 C 17,7 km/h (3 Bft) 100,00 %
03.06.2023 11:14 12,1 C 26,1 C 19,4 C 58 % 1018,5 hPa 0,0 l/m 8,0 km/h (2 Bft) NO 45 0,000 mm 756 W/m 4,1 C 12,1 C 16,1 km/h (3 Bft) 95,65 %
03.06.2023 11:13 12,1 C 25,6 C 19,4 C 56 % 1018,5 hPa 0,0 l/m 9,7 km/h (2 Bft) NW 315 0,000 mm 747 W/m 3,6 C 12,1 C 12,9 km/h (3 Bft) 100,00 %
03.06.2023 11:12 12,1 C 25,0 C 19,4 C 58 % 1018,5 hPa 0,0 l/m 6,4 km/h (2 Bft) NO 45 0,000 mm 744 W/m 4,1 C 12,1 C 12,9 km/h (3 Bft) 91,30 %
03.06.2023 11:11 12,1 C 25,0 C 19,4 C 57 % 1018,6 hPa 0,0 l/m 6,4 km/h (2 Bft) N-NO 22 0,000 mm 724 W/m 3,8 C 12,1 C 12,9 km/h (3 Bft) 95,65 %
03.06.2023 11:10 12,2 C 25,0 C 19,4 C 59 % 1018,5 hPa 0,0 l/m 6,4 km/h (2 Bft) W-NW 292 0,000 mm 724 W/m 4,4 C 12,2 C 9,7 km/h (2 Bft) 95,65 %
03.06.2023 11:09 12,3 C 25,0 C 19,4 C 60 % 1018,5 hPa 0,0 l/m 6,4 km/h (2 Bft) O-NO 67 0,000 mm 738 W/m 4,8 C 12,3 C 11,3 km/h (2 Bft) 95,65 %
03.06.2023 11:08 12,3 C 25,0 C 19,4 C 62 % 1018,6 hPa 0,0 l/m 6,4 km/h (2 Bft) NO 45 0,000 mm 738 W/m 5,2 C 12,3 C 16,1 km/h (3 Bft) 95,65 %
03.06.2023 11:07 12,2 C 25,6 C 19,4 C 62 % 1018,5 hPa 0,0 l/m 8,0 km/h (2 Bft) O 90 0,000 mm 740 W/m 5,1 C 12,2 C 14,5 km/h (3 Bft) 95,65 %
03.06.2023 11:06 12,1 C 25,0 C 19,4 C 60 % 1018,5 hPa 0,0 l/m 4,8 km/h (1 Bft) O-NO 67 0,000 mm 742 W/m 4,6 C 12,1 C 17,7 km/h (3 Bft) 100,00 %
03.06.2023 11:05 12,1 C 25,0 C 19,4 C 62 % 1018,5 hPa 0,0 l/m 4,8 km/h (1 Bft) O-NO 67 0,000 mm 728 W/m 5,0 C 12,1 C 9,7 km/h (2 Bft) 91,30 %
03.06.2023 11:04 12,1 C 24,4 C 19,4 C 60 % 1018,5 hPa 0,0 l/m 4,8 km/h (1 Bft) O-SO 112 0,000 mm 728 W/m 4,6 C 12,1 C 12,9 km/h (3 Bft) 100,00 %
03.06.2023 11:03 12,1 C 24,4 C 19,4 C 62 % 1018,5 hPa 0,0 l/m 3,2 km/h (1 Bft) SO 135 0,000 mm 719 W/m 5,0 C 12,1 C 6,4 km/h (2 Bft) 95,65 %
03.06.2023 11:02 12,2 C 24,4 C 19,4 C 61 % 1018,5 hPa 0,0 l/m 6,4 km/h (2 Bft) NO 45 0,000 mm 717 W/m 4,9 C 12,2 C 12,9 km/h (3 Bft) 95,65 %
03.06.2023 11:01 12,1 C 24,4 C 19,4 C 63 % 1018,5 hPa 0,0 l/m 6,4 km/h (2 Bft) O-NO 67 0,000 mm 726 W/m 5,3 C 12,1 C 14,5 km/h (3 Bft) 95,65 %
03.06.2023 11:00 12,0 C 25,0 C 19,4 C 61 % 1018,5 hPa 0,0 l/m 6,4 km/h (2 Bft) N-NO 22 0,381 mm 729 W/m 4,7 C 12,0 C 19,3 km/h (3 Bft) 95,65 %
03.06.2023 10:59 12,0 C 25,0 C 19,4 C 62 % 1018,4 hPa 0,0 l/m 8,0 km/h (2 Bft) O-SO 112 0,000 mm 728 W/m 4,9 C 12,0 C 17,7 km/h (3 Bft) 100,00 %
03.06.2023 10:58 12,0 C 25,0 C 19,4 C 63 % 1018,5 hPa 0,0 l/m 8,0 km/h (2 Bft) O 90 0,000 mm 728 W/m 5,2 C 12,0 C 19,3 km/h (3 Bft) 91,30 %
03.06.2023 10:57 12,0 C 25,6 C 19,4 C 63 % 1018,4 hPa 0,0 l/m 11,3 km/h (2 Bft) O 90 0,000 mm 724 W/m 5,2 C 12,0 C 16,1 km/h (3 Bft) 100,00 %
03.06.2023 10:56 12,0 C 26,1 C 19,4 C 65 % 1018,5 hPa 0,0 l/m 6,4 km/h (2 Bft) O-SO 112 0,000 mm 724 W/m 5,6 C 12,0 C 14,5 km/h (3 Bft) 95,65 %
03.06.2023 10:55 11,9 C 26,1 C 19,4 C 67 % 1018,4 hPa 0,0 l/m 9,7 km/h (2 Bft) O-SO 112 0,000 mm 722 W/m 6,0 C 11,9 C 17,7 km/h (3 Bft) 100,00 %
03.06.2023 10:54 11,8 C 26,1 C 19,4 C 64 % 1018,5 hPa 0,0 l/m 6,4 km/h (2 Bft) S-SO 157 0,000 mm 722 W/m 5,2 C 11,8 C 11,3 km/h (2 Bft) 95,65 %
03.06.2023 10:53 11,8 C 25,6 C 19,4 C 60 % 1018,4 hPa 0,0 l/m 8,0 km/h (2 Bft) O 90 0,000 mm 722 W/m 4,3 C 11,8 C 12,9 km/h (3 Bft) 95,65 %
03.06.2023 10:52 11,8 C 24,4 C 19,4 C 63 % 1018,4 hPa 0,0 l/m 3,2 km/h (1 Bft) O-NO 67 0,000 mm 721 W/m 5,0 C 11,8 C 6,4 km/h (2 Bft) 100,00 %
03.06.2023 10:51 11,8 C 24,4 C 19,4 C 62 % 1018,4 hPa 0,0 l/m 4,8 km/h (1 Bft) O 90 0,000 mm 721 W/m 4,8 C 11,8 C 9,7 km/h (2 Bft) 91,30 %
03.06.2023 10:50 11,8 C 24,4 C 19,4 C 61 % 1018,4 hPa 0,0 l/m 9,7 km/h (2 Bft) N-NO 22 0,000 mm 717 W/m 4,5 C 11,8 C 17,7 km/h (3 Bft) 100,00 %
03.06.2023 10:49 11,8 C 25,0 C 19,4 C 61 % 1018,5 hPa 0,0 l/m 6,4 km/h (2 Bft) O 90 0,000 mm 710 W/m 4,5 C 11,8 C 12,9 km/h (3 Bft) 95,65 %
03.06.2023 10:48 11,8 C 25,6 C 19,4 C 62 % 1018,4 hPa 0,0 l/m 8,0 km/h (2 Bft) O 90 0,000 mm 705 W/m 4,8 C 11,8 C 17,7 km/h (3 Bft) 100,00 %
03.06.2023 10:47 11,8 C 25,6 C 19,4 C 60 % 1018,4 hPa 0,0 l/m 11,3 km/h (2 Bft) N-NO 22 0,000 mm 708 W/m 4,3 C 11,8 C 17,7 km/h (3 Bft) 95,65 %
03.06.2023 10:46 11,8 C 25,0 C 19,4 C 58 % 1018,4 hPa 0,0 l/m 8,0 km/h (2 Bft) N-NO 22 0,000 mm 705 W/m 3,8 C 11,8 C 16,1 km/h (3 Bft) 95,65 %
03.06.2023 10:45 11,9 C 25,0 C 19,4 C 59 % 1018,3 hPa 0,0 l/m 4,8 km/h (1 Bft) O 90 0,000 mm 707 W/m 4,1 C 11,9 C 12,9 km/h (3 Bft) 95,65 %
03.06.2023 10:44 12,1 C 24,4 C 19,4 C 64 % 1018,3 hPa 0,0 l/m 8,0 km/h (2 Bft) O-NO 67 0,000 mm 707 W/m 5,5 C 12,1 C 9,7 km/h (2 Bft) 86,96 %
03.06.2023 10:43 12,1 C 24,4 C 19,4 C 64 % 1018,3 hPa 0,0 l/m 9,7 km/h (2 Bft) O-SO 112 0,000 mm 701 W/m 5,5 C 12,1 C 20,9 km/h (4 Bft) 95,65 %
03.06.2023 10:42 11,9 C 25,0 C 19,4 C 63 % 1018,4 hPa 0,0 l/m 6,4 km/h (2 Bft) N 360 0,000 mm 700 W/m 5,1 C 11,9 C 11,3 km/h (2 Bft) 91,30 %
03.06.2023 10:41 11,9 C 24,4 C 19,4 C 64 % 1018,4 hPa 0,0 l/m 8,0 km/h (2 Bft) O 90 0,000 mm 696 W/m 5,3 C 11,9 C 12,9 km/h (3 Bft) 95,65 %
03.06.2023 10:40 11,8 C 24,4 C 18,9 C 63 % 1018,4 hPa 0,0 l/m 12,9 km/h (3 Bft) N 360 0,000 mm 691 W/m 5,0 C 11,8 C 20,9 km/h (4 Bft) 95,65 %
03.06.2023 10:39 11,7 C 23,9 C 18,9 C 61 % 1018,8 hPa 0,0 l/m 6,4 km/h (2 Bft) NO 45 0,000 mm 693 W/m 4,4 C 11,7 C 14,5 km/h (3 Bft) 95,65 %
03.06.2023 10:38 11,6 C 23,9 C 18,9 C 63 % 1018,4 hPa 0,0 l/m 6,4 km/h (2 Bft) NO 45 0,000 mm 694 W/m 4,8 C 11,6 C 16,1 km/h (3 Bft) 95,65 %
03.06.2023 10:37 11,6 C 23,3 C 18,9 C 64 % 1018,4 hPa 0,0 l/m 4,8 km/h (1 Bft) O-NO 67 0,000 mm 696 W/m 5,0 C 11,6 C 6,4 km/h (2 Bft) 86,96 %
03.06.2023 10:36 11,5 C 23,3 C 18,9 C 65 % 1018,3 hPa 0,0 l/m 3,2 km/h (1 Bft) O-SO 112 0,000 mm 693 W/m 5,2 C 11,5 C 8,0 km/h (2 Bft) 95,65 %
03.06.2023 10:35 11,5 C 22,8 C 18,9 C 63 % 1018,4 hPa 0,0 l/m 4,8 km/h (1 Bft) O 90 0,000 mm 691 W/m 4,7 C 11,5 C 8,0 km/h (2 Bft) 91,30 %
03.06.2023 10:34 11,5 C 22,8 C 18,9 C 64 % 1018,4 hPa 0,0 l/m 4,8 km/h (1 Bft) SO 135 0,000 mm 687 W/m 4,9 C 11,5 C 8,0 km/h (2 Bft) 100,00 %
03.06.2023 10:33 11,6 C 22,2 C 18,9 C 64 % 1018,4 hPa 0,0 l/m 9,7 km/h (2 Bft) SO 135 0,000 mm 686 W/m 5,0 C 11,6 C 16,1 km/h (3 Bft) 91,30 %
03.06.2023 10:32 11,6 C 22,2 C 18,9 C 64 % 1018,4 hPa 0,0 l/m 6,4 km/h (2 Bft) O 90 0,000 mm 682 W/m 5,0 C 11,6 C 12,9 km/h (3 Bft) 100,00 %
03.06.2023 10:31 11,6 C 22,2 C 18,9 C 65 % 1018,4 hPa 0,0 l/m 8,0 km/h (2 Bft) O 90 0,000 mm 680 W/m 5,2 C 11,6 C 12,9 km/h (3 Bft) 91,30 %
03.06.2023 10:30 11,6 C 22,2 C 18,9 C 64 % 1018,4 hPa 0,0 l/m 11,3 km/h (2 Bft) O 90 0,000 mm 680 W/m 5,0 C 11,6 C 14,5 km/h (3 Bft) 95,65 %
03.06.2023 10:29 11,4 C 22,2 C 18,9 C 62 % 1018,3 hPa 0,0 l/m 12,9 km/h (3 Bft) SO 135 0,000 mm 679 W/m 4,4 C 11,4 C 17,7 km/h (3 Bft) 91,30 %
03.06.2023 10:28 11,4 C 22,2 C 18,9 C 63 % 1018,5 hPa 0,0 l/m 9,7 km/h (2 Bft) O 90 0,000 mm 677 W/m 4,6 C 11,4 C 19,3 km/h (3 Bft) 100,00 %
03.06.2023 10:27 11,4 C 22,8 C 18,9 C 60 % 1018,4 hPa 0,0 l/m 4,8 km/h (1 Bft) O-SO 112 0,000 mm 675 W/m 3,9 C 11,4 C 6,4 km/h (2 Bft) 95,65 %
03.06.2023 10:26 11,5 C 22,8 C 18,9 C 57 % 1018,4 hPa 0,0 l/m 3,2 km/h (1 Bft) S-SW 202 0,000 mm 673 W/m 3,3 C 11,5 C 11,3 km/h (2 Bft) 91,30 %
03.06.2023 10:25 11,6 C 22,8 C 18,9 C 61 % 1018,4 hPa 0,0 l/m 4,8 km/h (1 Bft) O 90 0,000 mm 671 W/m 4,3 C 11,6 C 9,7 km/h (2 Bft) 100,00 %
03.06.2023 10:24 11,6 C 22,2 C 18,9 C 62 % 1018,5 hPa 0,0 l/m 6,4 km/h (2 Bft) N-NO 22 0,000 mm 671 W/m 4,6 C 11,6 C 14,5 km/h (3 Bft) 95,65 %
03.06.2023 10:23 11,6 C 22,2 C 18,9 C 65 % 1018,5 hPa 0,0 l/m 9,7 km/h (2 Bft) N-NO 22 0,000 mm 668 W/m 5,2 C 11,6 C 16,1 km/h (3 Bft) 95,65 %
03.06.2023 10:22 11,6 C 23,9 C 18,9 C 62 % 1018,4 hPa 0,0 l/m 6,4 km/h (2 Bft) O 90 0,000 mm 666 W/m 4,6 C 11,6 C 12,9 km/h (3 Bft) 95,65 %
03.06.2023 10:21 11,4 C 23,9 C 18,9 C 62 % 1018,4 hPa 0,0 l/m 8,0 km/h (2 Bft) O-SO 112 0,000 mm 663 W/m 4,4 C 11,4 C 12,9 km/h (3 Bft) 100,00 %
03.06.2023 10:20 11,4 C 24,4 C 18,9 C 60 % 1018,4 hPa 0,0 l/m 8,0 km/h (2 Bft) O-SO 112 0,000 mm 659 W/m 3,9 C 11,4 C 12,9 km/h (3 Bft) 95,65 %
03.06.2023 10:19 11,4 C 23,9 C 18,9 C 62 % 1018,4 hPa 0,0 l/m 3,2 km/h (1 Bft) S-SO 157 0,000 mm 652 W/m 4,4 C 11,4 C 6,4 km/h (2 Bft) 95,65 %
03.06.2023 10:18 11,4 C 23,9 C 18,9 C 64 % 1018,4 hPa 0,0 l/m 3,2 km/h (1 Bft) NO 45 0,000 mm 652 W/m 4,8 C 11,4 C 6,4 km/h (2 Bft) 95,65 %
03.06.2023 10:17 11,3 C 23,3 C 18,9 C 62 % 1018,4 hPa 0,0 l/m 4,8 km/h (1 Bft) N-NO 22 0,000 mm 647 W/m 4,3 C 11,3 C 8,0 km/h (2 Bft) 95,65 %
03.06.2023 10:16 11,3 C 23,3 C 18,9 C 60 % 1018,5 hPa 0,0 l/m 6,4 km/h (2 Bft) N-NO 22 0,000 mm 649 W/m 3,8 C 11,3 C 12,9 km/h (3 Bft) 91,30 %
03.06.2023 10:15 11,3 C 22,8 C 18,9 C 60 % 1018,4 hPa 0,0 l/m 4,8 km/h (1 Bft) NO 45 0,000 mm 649 W/m 3,8 C 11,3 C 12,9 km/h (3 Bft) 95,65 %
03.06.2023 10:14 11,3 C 22,8 C 18,9 C 62 % 1018,4 hPa 0,0 l/m 4,8 km/h (1 Bft) O 90 0,000 mm 650 W/m 4,3 C 11,3 C 6,4 km/h (2 Bft) 100,00 %
03.06.2023 10:13 11,2 C 23,3 C 18,9 C 61 % 1018,3 hPa 0,0 l/m 6,4 km/h (2 Bft) NW 315 0,000 mm 645 W/m 4,0 C 11,2 C 14,5 km/h (3 Bft) 95,65 %
03.06.2023 10:12 11,2 C 22,8 C 18,9 C 61 % 1018,5 hPa 0,0 l/m 11,3 km/h (2 Bft) N-NO 22 0,000 mm 645 W/m 4,0 C 11,2 C 17,7 km/h (3 Bft) 95,65 %
03.06.2023 10:11 11,3 C 22,8 C 18,9 C 61 % 1018,4 hPa 0,0 l/m 9,7 km/h (2 Bft) N-NO 22 0,000 mm 643 W/m 4,1 C 11,3 C 14,5 km/h (3 Bft) 91,30 %
03.06.2023 10:10 11,2 C 22,8 C 18,9 C 63 % 1018,3 hPa 0,0 l/m 9,7 km/h (2 Bft) N 360 0,000 mm 640 W/m 4,4 C 11,2 C 17,7 km/h (3 Bft) 95,65 %
03.06.2023 10:09 11,1 C 23,3 C 18,9 C 63 % 1018,4 hPa 0,0 l/m 6,4 km/h (2 Bft) N-NO 22 0,000 mm 633 W/m 4,3 C 11,1 C 17,7 km/h (3 Bft) 95,65 %
03.06.2023 10:08 11,1 C 23,9 C 18,9 C 62 % 1018,4 hPa 0,0 l/m 4,8 km/h (1 Bft) NO 45 0,000 mm 629 W/m 4,1 C 11,1 C 9,7 km/h (2 Bft) 95,65 %
03.06.2023 10:07 11,1 C 24,4 C 18,9 C 61 % 1018,4 hPa 0,0 l/m 9,7 km/h (2 Bft) N-NO 22 0,000 mm 624 W/m 3,9 C 11,1 C 17,7 km/h (3 Bft) 100,00 %
03.06.2023 10:06 11,0 C 24,4 C 18,9 C 59 % 1018,4 hPa 0,0 l/m 6,4 km/h (2 Bft) NO 45 0,000 mm 619 W/m 3,3 C 11,0 C 16,1 km/h (3 Bft) 95,65 %
03.06.2023 10:05 11,0 C 23,9 C 18,9 C 60 % 1018,4 hPa 0,0 l/m 4,8 km/h (1 Bft) NO 45 0,000 mm 615 W/m 3,5 C 11,0 C 8,0 km/h (2 Bft) 95,65 %
03.06.2023 10:04 10,9 C 24,4 C 18,9 C 63 % 1018,4 hPa 0,0 l/m 9,7 km/h (2 Bft) N-NO 22 0,000 mm 612 W/m 4,1 C 10,9 C 16,1 km/h (3 Bft) 95,65 %
03.06.2023 10:03 10,8 C 23,9 C 18,9 C 59 % 1018,4 hPa 0,0 l/m 4,8 km/h (1 Bft) N-NO 22 0,000 mm 606 W/m 3,1 C 10,8 C 8,0 km/h (2 Bft) 100,00 %
03.06.2023 10:02 10,8 C 23,3 C 18,9 C 58 % 1018,3 hPa 0,0 l/m 4,8 km/h (1 Bft) N-NO 22 0,000 mm 598 W/m 2,9 C 10,8 C 9,7 km/h (2 Bft) 91,30 %
03.06.2023 10:01 10,8 C 23,3 C 18,9 C 60 % 1018,3 hPa 0,0 l/m 8,0 km/h (2 Bft) N-NO 22 0,000 mm 594 W/m 3,4 C 10,8 C 16,1 km/h (3 Bft) 95,65 %
03.06.2023 10:00 10,8 C 22,8 C 18,9 C 61 % 1018,4 hPa 0,0 l/m 4,8 km/h (1 Bft) O 90 0,279 mm 587 W/m 3,6 C 10,8 C 9,7 km/h (2 Bft) 100,00 %
03.06.2023 09:59 10,8 C 22,2 C 18,9 C 60 % 1018,4 hPa 0,0 l/m 6,4 km/h (2 Bft) SO 135 0,000 mm 585 W/m 3,4 C 10,8 C 16,1 km/h (3 Bft) 91,30 %
03.06.2023 09:58 10,9 C 21,7 C 18,9 C 60 % 1018,4 hPa 0,0 l/m 4,8 km/h (1 Bft) S-SO 157 0,000 mm 578 W/m 3,4 C 10,9 C 17,7 km/h (3 Bft) 95,65 %
03.06.2023 09:57 10,9 C 21,1 C 18,9 C 60 % 1018,4 hPa 0,0 l/m 4,8 km/h (1 Bft) O-SO 112 0,000 mm 573 W/m 3,4 C 10,9 C 11,3 km/h (2 Bft) 95,65 %
03.06.2023 09:56 11,0 C 21,1 C 18,9 C 61 % 1018,3 hPa 0,0 l/m 3,2 km/h (1 Bft) SO 135 0,000 mm 563 W/m 3,8 C 11,0 C 9,7 km/h (2 Bft) 100,00 %
03.06.2023 09:55 11,1 C 21,1 C 18,9 C 61 % 1018,3 hPa 0,0 l/m 9,7 km/h (2 Bft) O 90 0,000 mm 555 W/m 3,9 C 11,1 C 16,1 km/h (3 Bft) 91,30 %
03.06.2023 09:54 11,1 C 20,6 C 18,9 C 65 % 1018,3 hPa 0,0 l/m 6,4 km/h (2 Bft) O-NO 67 0,000 mm 548 W/m 4,8 C 11,1 C 9,7 km/h (2 Bft) 100,00 %
03.06.2023 09:53 11,1 C 21,1 C 18,9 C 64 % 1018,2 hPa 0,0 l/m 6,4 km/h (2 Bft) NO 45 0,000 mm 543 W/m 4,6 C 11,1 C 19,3 km/h (3 Bft) 95,65 %
03.06.2023 09:52 11,1 C 21,1 C 18,9 C 64 % 1018,3 hPa 0,0 l/m 3,2 km/h (1 Bft) SO 135 0,000 mm 536 W/m 4,6 C 11,1 C 6,4 km/h (2 Bft) 95,65 %
03.06.2023 09:51 11,0 C 21,1 C 18,9 C 64 % 1018,3 hPa 0,0 l/m 6,4 km/h (2 Bft) SO 135 0,000 mm 527 W/m 4,5 C 11,0 C 14,5 km/h (3 Bft) 95,65 %
03.06.2023 09:50 11,1 C 21,1 C 18,9 C 61 % 1018,3 hPa 0,0 l/m 9,7 km/h (2 Bft) O-SO 112 0,000 mm 510 W/m 3,9 C 11,1 C 12,9 km/h (3 Bft) 91,30 %
03.06.2023 09:49 11,1 C 20,6 C 18,9 C 65 % 1018,4 hPa 0,0 l/m 4,8 km/h (1 Bft) O 90 0,000 mm 508 W/m 4,8 C 11,1 C 9,7 km/h (2 Bft) 95,65 %
03.06.2023 09:48 11,0 C 20,0 C 18,9 C 64 % 1018,3 hPa 0,0 l/m 4,8 km/h (1 Bft) N-NO 22 0,000 mm 508 W/m 4,5 C 11,0 C 12,9 km/h (3 Bft) 91,30 %
03.06.2023 09:47 10,9 C 20,6 C 18,9 C 67 % 1018,4 hPa 0,0 l/m 4,8 km/h (1 Bft) O-NO 67 0,000 mm 503 W/m 5,0 C 10,9 C 9,7 km/h (2 Bft) 95,65 %
03.06.2023 09:46 10,8 C 20,6 C 18,9 C 63 % 1018,3 hPa 0,0 l/m 4,8 km/h (1 Bft) NO 45 0,000 mm 499 W/m 4,0 C 10,8 C 12,9 km/h (3 Bft) 95,65 %
03.06.2023 09:45 10,7 C 20,6 C 18,9 C 63 % 1018,3 hPa 0,0 l/m 4,8 km/h (1 Bft) SO 135 0,000 mm 496 W/m 3,9 C 10,7 C 11,3 km/h (2 Bft) 100,00 %
03.06.2023 09:44 10,6 C 20,0 C 18,9 C 62 % 1018,4 hPa 0,0 l/m 6,4 km/h (2 Bft) O-SO 112 0,000 mm 487 W/m 3,6 C 10,6 C 12,9 km/h (3 Bft) 95,65 %
03.06.2023 09:43 10,6 C 19,4 C 18,9 C 63 % 1018,3 hPa 0,0 l/m 1,6 km/h (1 Bft) S-SW 202 0,000 mm 480 W/m 3,9 C 10,6 C 6,4 km/h (2 Bft) 91,30 %
03.06.2023 09:42 10,4 C 19,4 C 18,9 C 61 % 1018,3 hPa 0,0 l/m 3,2 km/h (1 Bft) O-SO 112 0,000 mm 480 W/m 3,2 C 10,4 C 6,4 km/h (2 Bft) 100,00 %
03.06.2023 09:41 10,4 C 18,9 C 18,9 C 61 % 1018,3 hPa 0,0 l/m 6,4 km/h (2 Bft) N-NO 22 0,000 mm 475 W/m 3,2 C 10,4 C 12,9 km/h (3 Bft) 91,30 %
03.06.2023 09:40 10,4 C 18,3 C 18,9 C 63 % 1018,5 hPa 0,0 l/m 8,0 km/h (2 Bft) N 360 0,000 mm 471 W/m 3,7 C 10,4 C 14,5 km/h (3 Bft) 100,00 %
03.06.2023 09:39 10,5 C 17,8 C 18,9 C 62 % 1018,3 hPa 0,0 l/m 3,2 km/h (1 Bft) O-NO 67 0,000 mm 471 W/m 3,5 C 10,5 C 6,4 km/h (2 Bft) 95,65 %
03.06.2023 09:38 10,6 C 17,8 C 18,3 C 65 % 1018,4 hPa 0,0 l/m 6,4 km/h (2 Bft) NO 45 0,000 mm 464 W/m 4,3 C 10,6 C 16,1 km/h (3 Bft) 95,65 %
03.06.2023 09:37 10,5 C 17,8 C 18,3 C 64 % 1018,4 hPa 0,0 l/m 6,4 km/h (2 Bft) N-NO 22 0,000 mm 462 W/m 4,0 C 10,5 C 16,1 km/h (3 Bft) 95,65 %
03.06.2023 09:36 10,5 C 17,8 C 18,3 C 65 % 1018,4 hPa 0,0 l/m 6,4 km/h (2 Bft) O-SO 112 0,000 mm 461 W/m 4,2 C 10,5 C 11,3 km/h (2 Bft) 100,00 %
03.06.2023 09:35 10,4 C 18,3 C 18,3 C 63 % 1018,4 hPa 0,0 l/m 8,0 km/h (2 Bft) O-NO 67 0,000 mm 459 W/m 3,7 C 10,4 C 14,5 km/h (3 Bft) 91,30 %
03.06.2023 09:34 10,5 C 18,3 C 18,3 C 63 % 1018,4 hPa 0,0 l/m 4,8 km/h (1 Bft) O-NO 67 0,000 mm 455 W/m 3,8 C 10,5 C 8,0 km/h (2 Bft) 91,30 %
03.06.2023 09:33 10,6 C 18,3 C 18,3 C 64 % 1018,4 hPa 0,0 l/m 8,0 km/h (2 Bft) N-NO 22 0,000 mm 454 W/m 4,1 C 10,6 C 17,7 km/h (3 Bft) 100,00 %
03.06.2023 09:32 10,5 C 18,3 C 18,3 C 67 % 1018,5 hPa 0,0 l/m 11,3 km/h (2 Bft) N-NO 22 0,000 mm 454 W/m 4,6 C 10,5 C 17,7 km/h (3 Bft) 95,65 %
03.06.2023 09:31 10,5 C 17,8 C 18,3 C 63 % 1018,3 hPa 0,0 l/m 6,4 km/h (2 Bft) NO 45 0,000 mm 452 W/m 3,8 C 10,5 C 14,5 km/h (3 Bft) 100,00 %
03.06.2023 09:30 10,5 C 17,8 C 18,3 C 64 % 1018,3 hPa 0,0 l/m 8,0 km/h (2 Bft) N-NO 22 0,000 mm 452 W/m 4,0 C 10,5 C 16,1 km/h (3 Bft) 91,30 %
03.06.2023 09:29 10,5 C 17,2 C 18,3 C 66 % 1018,3 hPa 0,0 l/m 12,9 km/h (3 Bft) N-NO 22 0,000 mm 452 W/m 4,4 C 10,5 C 20,9 km/h (4 Bft) 95,65 %
03.06.2023 09:28 10,5 C 17,2 C 18,3 C 64 % 1018,3 hPa 0,0 l/m 8,0 km/h (2 Bft) N 360 0,000 mm 454 W/m 4,0 C 10,5 C 14,5 km/h (3 Bft) 95,65 %
03.06.2023 09:27 10,4 C 17,8 C 18,3 C 65 % 1018,4 hPa 0,0 l/m 8,0 km/h (2 Bft) O-NO 67 0,000 mm 455 W/m 4,1 C 10,4 C 14,5 km/h (3 Bft) 95,65 %
03.06.2023 09:26 10,4 C 17,2 C 18,3 C 68 % 1018,3 hPa 0,0 l/m 6,4 km/h (2 Bft) O 90 0,000 mm 455 W/m 4,8 C 10,4 C 14,5 km/h (3 Bft) 95,65 %
03.06.2023 09:25 10,4 C 17,2 C 18,3 C 67 % 1018,4 hPa 0,0 l/m 6,4 km/h (2 Bft) O-NO 67 0,000 mm 454 W/m 4,5 C 10,4 C 14,5 km/h (3 Bft) 86,96 %
03.06.2023 09:24 10,4 C 17,2 C 18,3 C 66 % 1018,4 hPa 0,0 l/m 8,0 km/h (2 Bft) N-NO 22 0,000 mm 455 W/m 4,3 C 10,4 C 16,1 km/h (3 Bft) 95,65 %
03.06.2023 09:23 10,3 C 16,7 C 18,3 C 67 % 1018,3 hPa 0,0 l/m 6,4 km/h (2 Bft) SO 135 0,000 mm 454 W/m 4,4 C 10,3 C 11,3 km/h (2 Bft) 95,65 %
03.06.2023 09:22 10,3 C 16,7 C 18,3 C 64 % 1018,3 hPa 0,0 l/m 6,4 km/h (2 Bft) SO 135 0,000 mm 455 W/m 3,8 C 10,3 C 12,9 km/h (3 Bft) 95,65 %
03.06.2023 09:21 10,4 C 16,1 C 18,3 C 66 % 1018,3 hPa 0,0 l/m 3,2 km/h (1 Bft) NO 45 0,000 mm 457 W/m 4,3 C 10,4 C 4,8 km/h (1 Bft) 95,65 %
03.06.2023 09:20 10,4 C 15,6 C 18,3 C 65 % 1018,4 hPa 0,0 l/m 8,0 km/h (2 Bft) O 90 0,000 mm 457 W/m 4,1 C 10,4 C 17,7 km/h (3 Bft) 95,65 %
03.06.2023 09:19 10,4 C 15,6 C 18,3 C 69 % 1018,3 hPa 0,0 l/m 3,2 km/h (1 Bft) O 90 0,000 mm 457 W/m 5,0 C 10,4 C 6,4 km/h (2 Bft) 91,30 %
03.06.2023 09:18 10,4 C 16,1 C 18,3 C 68 % 1018,4 hPa 0,0 l/m 9,7 km/h (2 Bft) O 90 0,000 mm 461 W/m 4,8 C 10,4 C 14,5 km/h (3 Bft) 86,96 %
03.06.2023 09:17 10,4 C 16,1 C 18,3 C 66 % 1018,4 hPa 0,0 l/m 11,3 km/h (2 Bft) O-SO 112 0,000 mm 462 W/m 4,3 C 10,4 C 19,3 km/h (3 Bft) 100,00 %
03.06.2023 09:16 10,4 C 15,6 C 18,3 C 67 % 1018,4 hPa 0,0 l/m 9,7 km/h (2 Bft) O-SO 112 0,000 mm 464 W/m 4,5 C 10,4 C 20,9 km/h (4 Bft) 86,96 %
03.06.2023 09:15 10,4 C 15,6 C 18,3 C 66 % 1018,4 hPa 0,0 l/m 8,0 km/h (2 Bft) O-SO 112 0,000 mm 464 W/m 4,3 C 10,4 C 14,5 km/h (3 Bft) 100,00 %
03.06.2023 09:14 10,3 C 15,6 C 18,3 C 66 % 1018,3 hPa 0,0 l/m 6,4 km/h (2 Bft) O-SO 112 0,000 mm 466 W/m 4,2 C 10,3 C 12,9 km/h (3 Bft) 91,30 %
03.06.2023 09:13 10,3 C 15,6 C 18,3 C 67 % 1018,3 hPa 0,0 l/m 9,7 km/h (2 Bft) O 90 0,000 mm 466 W/m 4,4 C 10,3 C 14,5 km/h (3 Bft) 95,65 %
03.06.2023 09:12 10,3 C 15,6 C 18,3 C 69 % 1018,4 hPa 0,0 l/m 6,4 km/h (2 Bft) O-SO 112 0,000 mm 466 W/m 4,9 C 10,3 C 14,5 km/h (3 Bft) 91,30 %
03.06.2023 09:11 10,3 C 15,6 C 18,3 C 68 % 1018,4 hPa 0,0 l/m 9,7 km/h (2 Bft) O 90 0,000 mm 464 W/m 4,7 C 10,3 C 14,5 km/h (3 Bft) 100,00 %
03.06.2023 09:10 10,3 C 15,6 C 18,3 C 71 % 1018,4 hPa 0,0 l/m 8,0 km/h (2 Bft) O 90 0,000 mm 464 W/m 5,3 C 10,3 C 14,5 km/h (3 Bft) 95,65 %
03.06.2023 09:09 10,3 C 15,6 C 18,3 C 70 % 1018,4 hPa 0,0 l/m 11,3 km/h (2 Bft) O 90 0,000 mm 461 W/m 5,1 C 10,3 C 25,7 km/h (4 Bft) 91,30 %
03.06.2023 09:08 10,2 C 15,6 C 18,3 C 68 % 1018,4 hPa 0,0 l/m 9,7 km/h (2 Bft) O 90 0,000 mm 457 W/m 4,6 C 10,2 C 14,5 km/h (3 Bft) 95,65 %
03.06.2023 09:07 10,2 C 16,1 C 18,3 C 67 % 1018,3 hPa 0,0 l/m 11,3 km/h (2 Bft) O-SO 112 0,000 mm 452 W/m 4,4 C 10,2 C 25,7 km/h (4 Bft) 95,65 %
03.06.2023 09:06 10,2 C 16,1 C 18,3 C 66 % 1018,3 hPa 0,0 l/m 14,5 km/h (3 Bft) SO 135 0,000 mm 450 W/m 4,1 C 10,2 C 19,3 km/h (3 Bft) 100,00 %
03.06.2023 09:05 10,2 C 16,1 C 18,3 C 68 % 1018,4 hPa 0,0 l/m 11,3 km/h (2 Bft) O-SO 112 0,000 mm 446 W/m 4,6 C 10,2 C 17,7 km/h (3 Bft) 91,30 %
03.06.2023 09:04 10,1 C 16,1 C 18,3 C 66 % 1018,3 hPa 0,0 l/m 12,9 km/h (3 Bft) N-NO 22 0,000 mm 441 W/m 4,0 C 10,1 C 22,5 km/h (4 Bft) 100,00 %
03.06.2023 09:03 10,1 C 16,1 C 18,3 C 69 % 1018,4 hPa 0,0 l/m 3,2 km/h (1 Bft) S-SW 202 0,000 mm 432 W/m 4,7 C 10,1 C 6,4 km/h (2 Bft) 100,00 %
03.06.2023 09:02 10,1 C 16,7 C 18,3 C 68 % 1018,4 hPa 0,0 l/m 4,8 km/h (1 Bft) O 90 0,000 mm 429 W/m 4,5 C 10,1 C 6,4 km/h (2 Bft) 100,00 %
03.06.2023 09:01 10,1 C 16,1 C 18,3 C 66 % 1018,5 hPa 0,0 l/m 4,8 km/h (1 Bft) SO 135 0,000 mm 422 W/m 4,0 C 10,1 C 8,0 km/h (2 Bft) 100,00 %
03.06.2023 09:00 10,0 C 16,1 C 18,3 C 64 % 1018,4 hPa 0,0 l/m 4,8 km/h (1 Bft) S-SO 157 0,203 mm 418 W/m 3,5 C 9,8 C 9,7 km/h (2 Bft) 95,65 %
03.06.2023 08:59 10,1 C 16,1 C 18,3 C 65 % 1018,4 hPa 0,0 l/m 8,0 km/h (2 Bft) O-SO 112 0,000 mm 413 W/m 3,8 C 10,1 C 12,9 km/h (3 Bft) 100,00 %
03.06.2023 08:58 10,1 C 15,6 C 18,3 C 65 % 1018,4 hPa 0,0 l/m 6,4 km/h (2 Bft) N-NW 337 0,000 mm 408 W/m 3,8 C 10,1 C 11,3 km/h (2 Bft) 95,65 %
03.06.2023 08:57 10,1 C 15,0 C 18,3 C 66 % 1018,3 hPa 0,0 l/m 6,4 km/h (2 Bft) N-NO 22 0,000 mm 401 W/m 4,0 C 10,1 C 14,5 km/h (3 Bft) 100,00 %
03.06.2023 08:56 10,1 C 15,0 C 18,3 C 68 % 1018,4 hPa 0,0 l/m 4,8 km/h (1 Bft) N 360 0,000 mm 394 W/m 4,5 C 10,1 C 11,3 km/h (2 Bft) 100,00 %
03.06.2023 08:55 10,0 C 15,0 C 18,3 C 66 % 1018,4 hPa 0,0 l/m 6,4 km/h (2 Bft) SO 135 0,000 mm 394 W/m 3,9 C 9,4 C 12,9 km/h (3 Bft) 95,65 %
03.06.2023 08:54 10,1 C 15,0 C 18,3 C 68 % 1018,4 hPa 0,0 l/m 3,2 km/h (1 Bft) O-SO 112 0,000 mm 387 W/m 4,5 C 10,1 C 6,4 km/h (2 Bft) 100,00 %
03.06.2023 08:53 10,1 C 15,0 C 18,3 C 69 % 1018,4 hPa 0,0 l/m 6,4 km/h (2 Bft) N 360 0,000 mm 387 W/m 4,7 C 10,1 C 16,1 km/h (3 Bft) 100,00 %
03.06.2023 08:52 10,1 C 14,4 C 18,3 C 68 % 1018,4 hPa 0,0 l/m 9,7 km/h (2 Bft) O-NO 67 0,000 mm 383 W/m 4,5 C 10,1 C 17,7 km/h (3 Bft) 95,65 %
03.06.2023 08:51 10,1 C 15,0 C 18,3 C 68 % 1018,4 hPa 0,0 l/m 6,4 km/h (2 Bft) O-NO 67 0,000 mm 380 W/m 4,5 C 10,1 C 16,1 km/h (3 Bft) 95,65 %
03.06.2023 08:50 10,1 C 14,4 C 18,3 C 68 % 1018,3 hPa 0,0 l/m 8,0 km/h (2 Bft) O-NO 67 0,000 mm 380 W/m 4,5 C 10,1 C 17,7 km/h (3 Bft) 100,00 %
03.06.2023 08:49 10,0 C 14,4 C 18,3 C 72 % 1018,4 hPa 0,0 l/m 6,4 km/h (2 Bft) O-SO 112 0,000 mm 376 W/m 5,2 C 9,4 C 17,7 km/h (3 Bft) 95,65 %
03.06.2023 08:48 10,0 C 14,4 C 18,3 C 73 % 1018,3 hPa 0,0 l/m 11,3 km/h (2 Bft) O 90 0,000 mm 374 W/m 5,4 C 8,4 C 19,3 km/h (3 Bft) 100,00 %
03.06.2023 08:47 9,9 C 15,0 C 18,3 C 69 % 1018,3 hPa 0,0 l/m 9,7 km/h (2 Bft) O-SO 112 0,000 mm 374 W/m 4,5 C 8,6 C 16,1 km/h (3 Bft) 95,65 %
03.06.2023 08:46 9,9 C 14,4 C 18,3 C 67 % 1018,3 hPa 0,0 l/m 11,3 km/h (2 Bft) O 90 0,000 mm 374 W/m 4,1 C 8,3 C 17,7 km/h (3 Bft) 100,00 %
03.06.2023 08:45 10,0 C 14,4 C 18,3 C 68 % 1018,4 hPa 0,0 l/m 6,4 km/h (2 Bft) O-SO 112 0,000 mm 374 W/m 4,4 C 9,4 C 16,1 km/h (3 Bft) 100,00 %
03.06.2023 08:44 10,0 C 14,4 C 18,3 C 70 % 1018,3 hPa 0,0 l/m 8,0 km/h (2 Bft) N-NO 22 0,000 mm 376 W/m 4,8 C 9,0 C 14,5 km/h (3 Bft) 91,30 %
03.06.2023 08:43 10,1 C 14,4 C 18,3 C 70 % 1018,4 hPa 0,0 l/m 6,4 km/h (2 Bft) O-SO 112 0,000 mm 378 W/m 4,9 C 10,1 C 12,9 km/h (3 Bft) 100,00 %
03.06.2023 08:42 10,1 C 14,4 C 18,3 C 70 % 1018,3 hPa 0,0 l/m 8,0 km/h (2 Bft) O 90 0,000 mm 381 W/m 4,9 C 10,1 C 17,7 km/h (3 Bft) 100,00 %
03.06.2023 08:41 10,1 C 14,4 C 18,3 C 70 % 1018,3 hPa 0,0 l/m 11,3 km/h (2 Bft) O 90 0,000 mm 387 W/m 4,9 C 10,1 C 22,5 km/h (4 Bft) 100,00 %
03.06.2023 08:40 10,1 C 14,4 C 18,3 C 69 % 1018,4 hPa 0,0 l/m 11,3 km/h (2 Bft) O 90 0,000 mm 388 W/m 4,7 C 10,1 C 20,9 km/h (4 Bft) 100,00 %
03.06.2023 08:39 9,9 C 15,0 C 18,3 C 69 % 1018,4 hPa 0,0 l/m 11,3 km/h (2 Bft) O 90 0,000 mm 390 W/m 4,5 C 8,3 C 22,5 km/h (4 Bft) 100,00 %
03.06.2023 08:38 10,0 C 14,4 C 18,3 C 68 % 1018,3 hPa 0,0 l/m 8,0 km/h (2 Bft) O-SO 112 0,000 mm 390 W/m 4,4 C 9,0 C 17,7 km/h (3 Bft) 100,00 %
03.06.2023 08:37 10,1 C 14,4 C 18,3 C 70 % 1018,3 hPa 0,0 l/m 9,7 km/h (2 Bft) N 360 0,000 mm 392 W/m 4,9 C 10,1 C 22,5 km/h (4 Bft) 91,30 %
03.06.2023 08:36 10,0 C 13,9 C 18,3 C 72 % 1018,3 hPa 0,0 l/m 8,0 km/h (2 Bft) O-SO 112 0,000 mm 394 W/m 5,2 C 9,0 C 14,5 km/h (3 Bft) 100,00 %
03.06.2023 08:35 9,9 C 13,9 C 18,3 C 71 % 1018,3 hPa 0,0 l/m 11,3 km/h (2 Bft) O-SO 112 0,000 mm 401 W/m 4,9 C 8,3 C 19,3 km/h (3 Bft) 95,65 %
03.06.2023 08:34 9,9 C 13,9 C 18,3 C 69 % 1018,3 hPa 0,0 l/m 11,3 km/h (2 Bft) O 90 0,000 mm 399 W/m 4,5 C 8,3 C 20,9 km/h (4 Bft) 95,65 %
03.06.2023 08:33 9,9 C 13,9 C 18,3 C 71 % 1018,3 hPa 0,0 l/m 9,7 km/h (2 Bft) O 90 0,000 mm 401 W/m 4,9 C 8,6 C 16,1 km/h (3 Bft) 100,00 %
03.06.2023 08:32 9,9 C 13,9 C 18,3 C 70 % 1018,3 hPa 0,0 l/m 9,7 km/h (2 Bft) O-SO 112 0,000 mm 399 W/m 4,7 C 8,6 C 16,1 km/h (3 Bft) 100,00 %
03.06.2023 08:31 9,9 C 13,9 C 18,3 C 71 % 1018,4 hPa 0,0 l/m 9,7 km/h (2 Bft) O 90 0,000 mm 403 W/m 4,9 C 8,6 C 14,5 km/h (3 Bft) 100,00 %
03.06.2023 08:30 9,9 C 13,9 C 18,3 C 71 % 1018,3 hPa 0,0 l/m 9,7 km/h (2 Bft) O 90 0,000 mm 404 W/m 4,9 C 8,6 C 16,1 km/h (3 Bft) 95,65 %
03.06.2023 08:29 9,9 C 13,9 C 18,3 C 73 % 1018,4 hPa 0,0 l/m 11,3 km/h (2 Bft) O 90 0,000 mm 406 W/m 5,3 C 8,3 C 17,7 km/h (3 Bft) 100,00 %
03.06.2023 08:28 9,8 C 13,9 C 18,3 C 72 % 1018,3 hPa 0,0 l/m 6,4 km/h (2 Bft) O 90 0,000 mm 406 W/m 5,0 C 9,1 C 11,3 km/h (2 Bft) 100,00 %
03.06.2023 08:27 9,8 C 13,9 C 18,3 C 71 % 1018,4 hPa 0,0 l/m 8,0 km/h (2 Bft) O 90 0,000 mm 406 W/m 4,8 C 8,8 C 14,5 km/h (3 Bft) 100,00 %
03.06.2023 08:26 9,8 C 13,3 C 18,3 C 72 % 1018,4 hPa 0,0 l/m 4,8 km/h (1 Bft) O 90 0,000 mm 406 W/m 5,0 C 9,6 C 8,0 km/h (2 Bft) 100,00 %
03.06.2023 08:25 9,7 C 13,3 C 18,3 C 73 % 1018,4 hPa 0,0 l/m 6,4 km/h (2 Bft) O 90 0,000 mm 403 W/m 5,1 C 9,0 C 12,9 km/h (3 Bft) 100,00 %
03.06.2023 08:24 9,7 C 13,3 C 18,3 C 74 % 1018,4 hPa 0,0 l/m 4,8 km/h (1 Bft) O-SO 112 0,000 mm 399 W/m 5,3 C 9,5 C 9,7 km/h (2 Bft) 95,65 %
03.06.2023 08:23 9,6 C 13,3 C 18,3 C 73 % 1018,4 hPa 0,0 l/m 4,8 km/h (1 Bft) O 90 0,000 mm 397 W/m 5,0 C 9,4 C 6,4 km/h (2 Bft) 95,65 %
03.06.2023 08:22 9,6 C 12,8 C 18,3 C 71 % 1018,4 hPa 0,0 l/m 8,0 km/h (2 Bft) O 90 0,000 mm 396 W/m 4,6 C 8,5 C 16,1 km/h (3 Bft) 95,65 %
03.06.2023 08:21 9,6 C 12,8 C 18,3 C 71 % 1018,3 hPa 0,0 l/m 8,0 km/h (2 Bft) O 90 0,000 mm 396 W/m 4,6 C 8,5 C 16,1 km/h (3 Bft) 100,00 %
03.06.2023 08:20 9,6 C 12,8 C 18,3 C 72 % 1018,4 hPa 0,0 l/m 6,4 km/h (2 Bft) O-SO 112 0,000 mm 394 W/m 4,8 C 8,9 C 12,9 km/h (3 Bft) 100,00 %
03.06.2023 08:19 9,6 C 12,8 C 18,3 C 72 % 1018,4 hPa 0,0 l/m 9,7 km/h (2 Bft) O-SO 112 0,000 mm 392 W/m 4,8 C 8,2 C 12,9 km/h (3 Bft) 100,00 %
03.06.2023 08:18 9,6 C 12,2 C 18,3 C 72 % 1018,3 hPa 0,0 l/m 9,7 km/h (2 Bft) O 90 0,000 mm 390 W/m 4,8 C 8,2 C 17,7 km/h (3 Bft) 100,00 %
03.06.2023 08:17 9,6 C 12,2 C 18,3 C 73 % 1018,4 hPa 0,0 l/m 9,7 km/h (2 Bft) SO 135 0,000 mm 387 W/m 5,0 C 8,2 C 17,7 km/h (3 Bft) 95,65 %
03.06.2023 08:16 9,6 C 12,2 C 18,3 C 72 % 1018,4 hPa 0,0 l/m 11,3 km/h (2 Bft) O 90 0,000 mm 385 W/m 4,8 C 7,9 C 19,3 km/h (3 Bft) 91,30 %
03.06.2023 08:15 9,6 C 12,8 C 18,3 C 73 % 1018,4 hPa 0,0 l/m 12,9 km/h (3 Bft) O-SO 112 0,000 mm 385 W/m 5,0 C 7,7 C 17,7 km/h (3 Bft) 100,00 %
03.06.2023 08:14 9,6 C 12,8 C 18,3 C 72 % 1018,3 hPa 0,0 l/m 11,3 km/h (2 Bft) O 90 0,000 mm 385 W/m 4,8 C 7,9 C 17,7 km/h (3 Bft) 100,00 %
03.06.2023 08:13 9,6 C 12,8 C 18,3 C 72 % 1018,3 hPa 0,0 l/m 14,5 km/h (3 Bft) O 90 0,000 mm 383 W/m 4,8 C 7,5 C 20,9 km/h (4 Bft) 100,00 %
03.06.2023 08:12 9,6 C 12,2 C 18,3 C 74 % 1018,3 hPa 0,0 l/m 8,0 km/h (2 Bft) N-NO 22 0,000 mm 374 W/m 5,2 C 8,5 C 16,1 km/h (3 Bft) 100,00 %
03.06.2023 08:11 9,6 C 12,2 C 18,3 C 74 % 1018,4 hPa 0,0 l/m 9,7 km/h (2 Bft) O-NO 67 0,000 mm 378 W/m 5,2 C 8,2 C 16,1 km/h (3 Bft) 100,00 %
03.06.2023 08:10 9,4 C 12,2 C 18,3 C 73 % 1018,3 hPa 0,0 l/m 8,0 km/h (2 Bft) N 360 0,000 mm 390 W/m 4,8 C 8,3 C 24,1 km/h (4 Bft) 95,65 %
03.06.2023 08:09 9,4 C 12,8 C 18,3 C 73 % 1018,2 hPa 0,0 l/m 12,9 km/h (3 Bft) O 90 0,000 mm 374 W/m 4,8 C 7,5 C 24,1 km/h (4 Bft) 95,65 %
03.06.2023 08:08 9,4 C 12,2 C 18,3 C 73 % 1018,2 hPa 0,0 l/m 8,0 km/h (2 Bft) O-NO 67 0,000 mm 374 W/m 4,8 C 8,3 C 12,9 km/h (3 Bft) 100,00 %
03.06.2023 08:07 9,4 C 11,7 C 18,3 C 75 % 1018,3 hPa 0,0 l/m 8,0 km/h (2 Bft) O-SO 112 0,000 mm 374 W/m 5,2 C 8,3 C 12,9 km/h (3 Bft) 100,00 %
03.06.2023 08:06 9,3 C 11,7 C 18,3 C 73 % 1018,2 hPa 0,0 l/m 6,4 km/h (2 Bft) N-NO 22 0,000 mm 374 W/m 4,7 C 8,6 C 11,3 km/h (2 Bft) 95,65 %
03.06.2023 08:05 9,3 C 11,1 C 18,3 C 73 % 1018,2 hPa 0,0 l/m 4,8 km/h (1 Bft) O-SO 112 0,000 mm 373 W/m 4,7 C 9,0 C 11,3 km/h (2 Bft) 100,00 %
03.06.2023 08:04 9,3 C 11,1 C 18,3 C 76 % 1018,3 hPa 0,0 l/m 6,4 km/h (2 Bft) O-SO 112 0,000 mm 385 W/m 5,3 C 8,6 C 12,9 km/h (3 Bft) 100,00 %
03.06.2023 08:03 9,2 C 10,6 C 18,3 C 76 % 1018,2 hPa 0,0 l/m 3,2 km/h (1 Bft) O-SO 112 0,000 mm 378 W/m 5,2 C 9,2 C 4,8 km/h (1 Bft) 95,65 %
03.06.2023 08:02 9,2 C 10,6 C 18,3 C 75 % 1018,2 hPa 0,0 l/m 4,8 km/h (1 Bft) SO 135 0,000 mm 346 W/m 5,0 C 8,9 C 6,4 km/h (2 Bft) 95,65 %
03.06.2023 08:01 9,2 C 10,6 C 18,3 C 75 % 1018,1 hPa 0,0 l/m 3,2 km/h (1 Bft) O 90 0,000 mm 267 W/m 5,0 C 9,2 C 6,4 km/h (2 Bft) 91,30 %
03.06.2023 08:00 9,2 C 10,6 C 18,3 C 76 % 1018,2 hPa 0,0 l/m 11,3 km/h (2 Bft) O-SO 112 0,102 mm 229 W/m 5,2 C 7,5 C 19,3 km/h (3 Bft) 100,00 %
03.06.2023 07:59 9,1 C 10,6 C 18,3 C 75 % 1018,2 hPa 0,0 l/m 9,7 km/h (2 Bft) O-SO 112 0,000 mm 174 W/m 4,9 C 7,6 C 14,5 km/h (3 Bft) 95,65 %
03.06.2023 07:58 9,1 C 10,6 C 18,3 C 76 % 1018,1 hPa 0,0 l/m 6,4 km/h (2 Bft) O-NO 67 0,000 mm 271 W/m 5,1 C 8,3 C 19,3 km/h (3 Bft) 95,65 %
03.06.2023 07:57 9,1 C 10,6 C 18,3 C 74 % 1018,2 hPa 0,0 l/m 11,3 km/h (2 Bft) O 90 0,000 mm 195 W/m 4,7 C 7,3 C 14,5 km/h (3 Bft) 95,65 %
03.06.2023 07:56 9,1 C 10,6 C 18,3 C 75 % 1018,2 hPa 0,0 l/m 8,0 km/h (2 Bft) O 90 0,000 mm 162 W/m 4,9 C 7,9 C 12,9 km/h (3 Bft) 100,00 %
03.06.2023 07:55 9,1 C 10,6 C 18,3 C 75 % 1018,2 hPa 0,0 l/m 8,0 km/h (2 Bft) SO 135 0,000 mm 149 W/m 4,9 C 7,9 C 19,3 km/h (3 Bft) 91,30 %
03.06.2023 07:54 9,1 C 10,6 C 18,3 C 76 % 1018,2 hPa 0,0 l/m 4,8 km/h (1 Bft) O 90 0,000 mm 142 W/m 5,1 C 8,8 C 8,0 km/h (2 Bft) 100,00 %
03.06.2023 07:53 9,1 C 11,1 C 18,3 C 75 % 1018,2 hPa 0,0 l/m 4,8 km/h (1 Bft) O-SO 112 0,000 mm 137 W/m 4,9 C 8,8 C 9,7 km/h (2 Bft) 95,65 %
03.06.2023 07:52 9,1 C 11,1 C 18,3 C 74 % 1018,1 hPa 0,0 l/m 9,7 km/h (2 Bft) SO 135 0,000 mm 167 W/m 4,7 C 7,6 C 16,1 km/h (3 Bft) 100,00 %
03.06.2023 07:51 9,1 C 11,1 C 18,3 C 75 % 1018,1 hPa 0,0 l/m 12,9 km/h (3 Bft) O 90 0,000 mm 135 W/m 4,9 C 7,1 C 17,7 km/h (3 Bft) 100,00 %
03.06.2023 07:50 9,1 C 11,7 C 18,3 C 74 % 1018,2 hPa 0,0 l/m 11,3 km/h (2 Bft) O-SO 112 0,000 mm 135 W/m 4,7 C 7,3 C 19,3 km/h (3 Bft) 95,65 %
03.06.2023 07:49 9,1 C 11,7 C 18,3 C 73 % 1018,1 hPa 0,0 l/m 12,9 km/h (3 Bft) O 90 0,000 mm 137 W/m 4,5 C 7,1 C 16,1 km/h (3 Bft) 100,00 %
03.06.2023 07:48 9,1 C 11,7 C 18,3 C 74 % 1018,1 hPa 0,0 l/m 11,3 km/h (2 Bft) O 90 0,000 mm 151 W/m 4,7 C 7,3 C 16,1 km/h (3 Bft) 91,30 %
03.06.2023 07:47 9,2 C 12,2 C 18,3 C 75 % 1018,1 hPa 0,0 l/m 8,0 km/h (2 Bft) O 90 0,000 mm 167 W/m 5,0 C 8,1 C 16,1 km/h (3 Bft) 100,00 %
03.06.2023 07:46 9,2 C 12,2 C 18,3 C 75 % 1018,1 hPa 0,0 l/m 8,0 km/h (2 Bft) O-SO 112 0,000 mm 162 W/m 5,0 C 8,1 C 12,9 km/h (3 Bft) 91,30 %
03.06.2023 07:45 9,2 C 12,2 C 18,3 C 75 % 1018,0 hPa 0,0 l/m 6,4 km/h (2 Bft) O-SO 112 0,000 mm 167 W/m 5,0 C 8,4 C 11,3 km/h (2 Bft) 100,00 %
03.06.2023 07:44 9,3 C 12,2 C 18,3 C 76 % 1018,0 hPa 0,0 l/m 4,8 km/h (1 Bft) O-NO 67 0,000 mm 174 W/m 5,3 C 9,0 C 12,9 km/h (3 Bft) 95,65 %
03.06.2023 07:43 9,3 C 12,2 C 18,3 C 75 % 1017,9 hPa 0,0 l/m 6,4 km/h (2 Bft) N 360 0,000 mm 183 W/m 5,1 C 8,6 C 14,5 km/h (3 Bft) 95,65 %
03.06.2023 07:42 9,3 C 12,8 C 18,3 C 75 % 1018,1 hPa 0,0 l/m 11,3 km/h (2 Bft) NO 45 0,000 mm 294 W/m 5,1 C 7,6 C 16,1 km/h (3 Bft) 95,65 %
03.06.2023 07:41 9,2 C 12,8 C 18,3 C 75 % 1018,1 hPa 0,0 l/m 8,0 km/h (2 Bft) SO 135 0,000 mm 346 W/m 5,0 C 8,1 C 12,9 km/h (3 Bft) 91,30 %
03.06.2023 07:40 9,2 C 12,2 C 18,3 C 78 % 1018,0 hPa 0,0 l/m 6,4 km/h (2 Bft) O 90 0,000 mm 353 W/m 5,6 C 8,4 C 11,3 km/h (2 Bft) 95,65 %
03.06.2023 07:39 9,2 C 12,2 C 18,3 C 75 % 1018,0 hPa 0,0 l/m 8,0 km/h (2 Bft) O 90 0,000 mm 352 W/m 5,0 C 8,1 C 16,1 km/h (3 Bft) 100,00 %
03.06.2023 07:38 9,2 C 12,2 C 18,3 C 76 % 1018,1 hPa 0,0 l/m 3,2 km/h (1 Bft) SO 135 0,000 mm 346 W/m 5,2 C 9,2 C 6,4 km/h (2 Bft) 95,65 %
03.06.2023 07:37 9,1 C 11,7 C 18,3 C 76 % 1018,0 hPa 0,0 l/m 4,8 km/h (1 Bft) O-NO 67 0,000 mm 343 W/m 5,1 C 8,8 C 9,7 km/h (2 Bft) 100,00 %
03.06.2023 07:36 9,1 C 11,7 C 18,3 C 76 % 1018,0 hPa 0,0 l/m 4,8 km/h (1 Bft) N 360 0,000 mm 334 W/m 5,1 C 8,8 C 9,7 km/h (2 Bft) 100,00 %
03.06.2023 07:35 9,1 C 11,7 C 18,3 C 76 % 1018,0 hPa 0,0 l/m 4,8 km/h (1 Bft) NO 45 0,000 mm 327 W/m 5,1 C 8,8 C 16,1 km/h (3 Bft) 95,65 %
03.06.2023 07:34 9,1 C 11,1 C 18,3 C 77 % 1018,0 hPa 0,0 l/m 4,8 km/h (1 Bft) NO 45 0,000 mm 320 W/m 5,3 C 8,8 C 9,7 km/h (2 Bft) 91,30 %
03.06.2023 07:33 9,0 C 11,1 C 18,3 C 77 % 1018,0 hPa 0,0 l/m 4,8 km/h (1 Bft) N-NO 22 0,000 mm 299 W/m 5,2 C 8,7 C 8,0 km/h (2 Bft) 100,00 %
03.06.2023 07:32 8,9 C 11,1 C 18,3 C 77 % 1018,0 hPa 0,0 l/m 8,0 km/h (2 Bft) O-NO 67 0,000 mm 299 W/m 5,1 C 7,7 C 17,7 km/h (3 Bft) 100,00 %
03.06.2023 07:31 8,9 C 11,1 C 18,3 C 76 % 1018,0 hPa 0,0 l/m 3,2 km/h (1 Bft) O 90 0,000 mm 299 W/m 4,9 C 8,9 C 4,8 km/h (1 Bft) 100,00 %
03.06.2023 07:30 8,8 C 11,1 C 18,3 C 75 % 1018,0 hPa 0,0 l/m 3,2 km/h (1 Bft) SO 135 0,000 mm 295 W/m 4,6 C 8,8 C 6,4 km/h (2 Bft) 100,00 %
03.06.2023 07:29 8,8 C 11,1 C 18,3 C 76 % 1018,0 hPa 0,0 l/m 6,4 km/h (2 Bft) O 90 0,000 mm 292 W/m 4,8 C 8,0 C 12,9 km/h (3 Bft) 100,00 %
03.06.2023 07:28 8,8 C 11,1 C 18,3 C 77 % 1018,0 hPa 0,0 l/m 4,8 km/h (1 Bft) SO 135 0,000 mm 120 W/m 5,0 C 8,5 C 11,3 km/h (2 Bft) 100,00 %
03.06.2023 07:27 8,8 C 11,1 C 18,3 C 77 % 1017,9 hPa 0,0 l/m 6,4 km/h (2 Bft) N 360 0,000 mm 120 W/m 5,0 C 8,0 C 16,1 km/h (3 Bft) 95,65 %
03.06.2023 07:26 8,8 C 11,1 C 18,3 C 79 % 1018,0 hPa 0,0 l/m 4,8 km/h (1 Bft) SO 135 0,000 mm 114 W/m 5,4 C 8,5 C 9,7 km/h (2 Bft) 100,00 %
03.06.2023 07:25 8,8 C 11,1 C 18,3 C 77 % 1018,0 hPa 0,0 l/m 6,4 km/h (2 Bft) O-SO 112 0,000 mm 130 W/m 5,0 C 8,0 C 12,9 km/h (3 Bft) 95,65 %
03.06.2023 07:24 8,8 C 11,7 C 18,3 C 76 % 1017,9 hPa 0,0 l/m 4,8 km/h (1 Bft) SO 135 0,000 mm 141 W/m 4,8 C 8,5 C 11,3 km/h (2 Bft) 100,00 %
03.06.2023 07:23 8,8 C 11,7 C 18,3 C 77 % 1017,9 hPa 0,0 l/m 6,4 km/h (2 Bft) O 90 0,000 mm 155 W/m 5,0 C 8,0 C 11,3 km/h (2 Bft) 100,00 %
03.06.2023 07:22 8,8 C 11,7 C 18,3 C 77 % 1017,9 hPa 0,0 l/m 8,0 km/h (2 Bft) O 90 0,000 mm 211 W/m 5,0 C 7,6 C 16,1 km/h (3 Bft) 100,00 %
03.06.2023 07:21 8,9 C 11,7 C 18,3 C 78 % 1017,9 hPa 0,0 l/m 8,0 km/h (2 Bft) O-SO 112 0,000 mm 142 W/m 5,3 C 7,7 C 14,5 km/h (3 Bft) 100,00 %
03.06.2023 07:20 8,9 C 11,7 C 18,3 C 77 % 1017,8 hPa 0,0 l/m 3,2 km/h (1 Bft) N 360 0,000 mm 199 W/m 5,1 C 8,9 C 3,2 km/h (1 Bft) 91,30 %
03.06.2023 07:19 8,8 C 11,7 C 18,3 C 77 % 1017,8 hPa 0,0 l/m 4,8 km/h (1 Bft) O-NO 67 0,000 mm 287 W/m 5,0 C 8,5 C 8,0 km/h (2 Bft) 95,65 %
03.06.2023 07:18 8,8 C 11,7 C 18,3 C 76 % 1017,9 hPa 0,0 l/m 4,8 km/h (1 Bft) O 90 0,000 mm 288 W/m 4,8 C 8,5 C 11,3 km/h (2 Bft) 100,00 %
03.06.2023 07:17 8,8 C 11,7 C 18,3 C 77 % 1017,9 hPa 0,0 l/m 3,2 km/h (1 Bft) O 90 0,000 mm 290 W/m 5,0 C 8,8 C 6,4 km/h (2 Bft) 95,65 %
03.06.2023 07:16 8,8 C 11,7 C 18,3 C 77 % 1017,9 hPa 0,0 l/m 6,4 km/h (2 Bft) O 90 0,000 mm 294 W/m 5,0 C 8,0 C 12,9 km/h (3 Bft) 95,65 %
03.06.2023 07:15 8,8 C 11,1 C 18,3 C 77 % 1017,9 hPa 0,0 l/m 6,4 km/h (2 Bft) O 90 0,000 mm 295 W/m 5,0 C 8,0 C 11,3 km/h (2 Bft) 100,00 %
03.06.2023 07:14 8,8 C 11,1 C 18,3 C 78 % 1017,8 hPa 0,0 l/m 4,8 km/h (1 Bft) O 90 0,000 mm 297 W/m 5,2 C 8,5 C 8,0 km/h (2 Bft) 95,65 %
03.06.2023 07:13 8,8 C 11,1 C 18,3 C 77 % 1017,8 hPa 0,0 l/m 4,8 km/h (1 Bft) O-SO 112 0,000 mm 301 W/m 5,0 C 8,5 C 8,0 km/h (2 Bft) 91,30 %
03.06.2023 07:12 8,8 C 10,6 C 18,3 C 78 % 1017,8 hPa 0,0 l/m 6,4 km/h (2 Bft) O 90 0,000 mm 294 W/m 5,2 C 8,0 C 14,5 km/h (3 Bft) 100,00 %
03.06.2023 07:11 8,7 C 10,6 C 18,3 C 78 % 1017,9 hPa 0,0 l/m 8,0 km/h (2 Bft) O 90 0,000 mm 288 W/m 5,1 C 7,5 C 14,5 km/h (3 Bft) 95,65 %
03.06.2023 07:10 8,7 C 10,0 C 18,3 C 80 % 1017,9 hPa 0,0 l/m 6,4 km/h (2 Bft) O 90 0,000 mm 285 W/m 5,4 C 7,9 C 11,3 km/h (2 Bft) 100,00 %
03.06.2023 07:09 8,6 C 10,0 C 18,3 C 80 % 1017,9 hPa 0,0 l/m 4,8 km/h (1 Bft) O-SO 112 0,000 mm 278 W/m 5,3 C 8,2 C 9,7 km/h (2 Bft) 100,00 %
03.06.2023 07:08 8,5 C 10,0 C 18,3 C 78 % 1017,9 hPa 0,0 l/m 9,7 km/h (2 Bft) O 90 0,000 mm 239 W/m 4,9 C 6,9 C 17,7 km/h (3 Bft) 100,00 %
03.06.2023 07:07 8,6 C 9,4 C 18,3 C 80 % 1017,9 hPa 0,0 l/m 1,6 km/h (1 Bft) O-SO 112 0,000 mm 257 W/m 5,3 C 8,6 C 4,8 km/h (1 Bft) 100,00 %
03.06.2023 07:06 8,5 C 9,4 C 18,3 C 79 % 1017,9 hPa 0,0 l/m 4,8 km/h (1 Bft) SO 135 0,000 mm 185 W/m 5,1 C 8,1 C 9,7 km/h (2 Bft) 91,30 %
03.06.2023 07:05 8,5 C 9,4 C 18,3 C 79 % 1017,9 hPa 0,0 l/m 3,2 km/h (1 Bft) O-SO 112 0,000 mm 237 W/m 5,1 C 8,5 C 8,0 km/h (2 Bft) 100,00 %
03.06.2023 07:04 8,4 C 9,4 C 18,3 C 79 % 1018,0 hPa 0,0 l/m 9,7 km/h (2 Bft) O 90 0,000 mm 237 W/m 5,0 C 6,8 C 17,7 km/h (3 Bft) 95,65 %
03.06.2023 07:03 8,4 C 8,9 C 18,3 C 79 % 1017,9 hPa 0,0 l/m 4,8 km/h (1 Bft) O 90 0,000 mm 227 W/m 5,0 C 8,0 C 11,3 km/h (2 Bft) 100,00 %
03.06.2023 07:02 8,3 C 8,9 C 18,3 C 80 % 1017,8 hPa 0,0 l/m 4,8 km/h (1 Bft) O-SO 112 0,000 mm 214 W/m 5,1 C 7,9 C 8,0 km/h (2 Bft) 100,00 %
03.06.2023 07:01 8,3 C 8,9 C 18,3 C 79 % 1017,9 hPa 0,0 l/m 8,0 km/h (2 Bft) O 90 0,000 mm 192 W/m 4,9 C 7,0 C 14,5 km/h (3 Bft) 100,00 %
03.06.2023 07:00 8,3 C 8,9 C 18,3 C 78 % 1017,8 hPa 0,0 l/m 3,2 km/h (1 Bft) O-SO 112 0,051 mm 202 W/m 4,7 C 8,3 C 6,4 km/h (2 Bft) 100,00 %
03.06.2023 06:59 8,3 C 8,9 C 18,3 C 78 % 1017,8 hPa 0,0 l/m 3,2 km/h (1 Bft) O-SO 112 0,000 mm 207 W/m 4,7 C 8,3 C 4,8 km/h (1 Bft) 95,65 %
03.06.2023 06:58 8,3 C 8,9 C 18,3 C 79 % 1017,9 hPa 0,0 l/m 6,4 km/h (2 Bft) SO 135 0,000 mm 151 W/m 4,9 C 7,4 C 11,3 km/h (2 Bft) 100,00 %
03.06.2023 06:57 8,3 C 8,9 C 18,3 C 78 % 1017,9 hPa 0,0 l/m 4,8 km/h (1 Bft) NO 45 0,000 mm 162 W/m 4,7 C 7,9 C 6,4 km/h (2 Bft) 100,00 %
03.06.2023 06:56 8,4 C 8,9 C 18,3 C 78 % 1017,9 hPa 0,0 l/m 9,7 km/h (2 Bft) O-NO 67 0,000 mm 137 W/m 4,8 C 6,8 C 16,1 km/h (3 Bft) 100,00 %
03.06.2023 06:55 8,4 C 8,9 C 18,3 C 79 % 1017,8 hPa 0,0 l/m 8,0 km/h (2 Bft) O-NO 67 0,000 mm 132 W/m 5,0 C 7,1 C 14,5 km/h (3 Bft) 100,00 %
03.06.2023 06:54 8,4 C 8,3 C 18,3 C 80 % 1017,8 hPa 0,0 l/m 4,8 km/h (1 Bft) O-NO 67 0,000 mm 167 W/m 5,2 C 8,0 C 9,7 km/h (2 Bft) 95,65 %
03.06.2023 06:53 8,4 C 8,3 C 18,3 C 83 % 1017,8 hPa 0,0 l/m 6,4 km/h (2 Bft) O 90 0,000 mm 172 W/m 5,7 C 7,5 C 14,5 km/h (3 Bft) 100,00 %
03.06.2023 06:52 8,4 C 8,3 C 18,3 C 81 % 1017,8 hPa 0,0 l/m 6,4 km/h (2 Bft) O-SO 112 0,000 mm 163 W/m 5,3 C 7,5 C 11,3 km/h (2 Bft) 95,65 %
03.06.2023 06:51 8,3 C 8,3 C 18,3 C 79 % 1017,8 hPa 0,0 l/m 8,0 km/h (2 Bft) O 90 0,000 mm 160 W/m 4,9 C 7,0 C 17,7 km/h (3 Bft) 100,00 %
03.06.2023 06:50 8,3 C 8,3 C 18,3 C 79 % 1017,8 hPa 0,0 l/m 8,0 km/h (2 Bft) O 90 0,000 mm 160 W/m 4,9 C 7,0 C 12,9 km/h (3 Bft) 100,00 %
03.06.2023 06:49 8,3 C 8,3 C 18,3 C 79 % 1017,8 hPa 0,0 l/m 6,4 km/h (2 Bft) O-SO 112 0,000 mm 160 W/m 4,9 C 7,4 C 12,9 km/h (3 Bft) 95,65 %
03.06.2023 06:48 8,3 C 8,3 C 18,3 C 79 % 1017,8 hPa 0,0 l/m 8,0 km/h (2 Bft) O 90 0,000 mm 158 W/m 4,9 C 7,0 C 14,5 km/h (3 Bft) 95,65 %
03.06.2023 06:47 8,3 C 8,3 C 18,3 C 79 % 1017,9 hPa 0,0 l/m 8,0 km/h (2 Bft) O 90 0,000 mm 156 W/m 4,9 C 7,0 C 14,5 km/h (3 Bft) 100,00 %
03.06.2023 06:46 8,3 C 8,3 C 18,3 C 80 % 1017,9 hPa 0,0 l/m 4,8 km/h (1 Bft) SO 135 0,000 mm 153 W/m 5,1 C 7,9 C 9,7 km/h (2 Bft) 100,00 %
03.06.2023 06:45 8,3 C 8,3 C 18,3 C 81 % 1017,8 hPa 0,0 l/m 4,8 km/h (1 Bft) O-SO 112 0,000 mm 144 W/m 5,2 C 7,9 C 9,7 km/h (2 Bft) 95,65 %
03.06.2023 06:44 8,3 C 8,3 C 18,3 C 81 % 1017,8 hPa 0,0 l/m 6,4 km/h (2 Bft) O 90 0,000 mm 142 W/m 5,2 C 7,4 C 11,3 km/h (2 Bft) 95,65 %
03.06.2023 06:43 8,3 C 8,3 C 18,3 C 80 % 1017,8 hPa 0,0 l/m 4,8 km/h (1 Bft) O-SO 112 0,000 mm 141 W/m 5,1 C 7,9 C 11,3 km/h (2 Bft) 100,00 %
03.06.2023 06:42 8,3 C 7,8 C 18,3 C 80 % 1017,9 hPa 0,0 l/m 3,2 km/h (1 Bft) O 90 0,000 mm 137 W/m 5,1 C 8,3 C 6,4 km/h (2 Bft) 100,00 %
03.06.2023 06:41 8,3 C 7,8 C 18,3 C 81 % 1017,9 hPa 0,0 l/m 6,4 km/h (2 Bft) O 90 0,000 mm 135 W/m 5,2 C 7,4 C 12,9 km/h (3 Bft) 100,00 %
03.06.2023 06:40 8,2 C 7,8 C 18,3 C 81 % 1017,9 hPa 0,0 l/m 4,8 km/h (1 Bft) O 90 0,000 mm 134 W/m 5,1 C 7,8 C 11,3 km/h (2 Bft) 95,65 %
03.06.2023 06:39 8,2 C 7,8 C 18,3 C 80 % 1017,8 hPa 0,0 l/m 3,2 km/h (1 Bft) SO 135 0,000 mm 130 W/m 5,0 C 8,2 C 6,4 km/h (2 Bft) 95,65 %
03.06.2023 06:38 8,2 C 7,2 C 18,3 C 81 % 1017,9 hPa 0,0 l/m 4,8 km/h (1 Bft) SO 135 0,000 mm 128 W/m 5,1 C 7,8 C 8,0 km/h (2 Bft) 95,65 %
03.06.2023 06:37 8,2 C 7,2 C 18,3 C 80 % 1017,8 hPa 0,0 l/m 4,8 km/h (1 Bft) SO 135 0,000 mm 65 W/m 5,0 C 7,8 C 8,0 km/h (2 Bft) 91,30 %
03.06.2023 06:36 8,2 C 7,2 C 18,3 C 82 % 1017,8 hPa 0,0 l/m 8,0 km/h (2 Bft) O 90 0,000 mm 77 W/m 5,3 C 6,9 C 14,5 km/h (3 Bft) 91,30 %
03.06.2023 06:35 8,2 C 7,2 C 18,3 C 81 % 1017,9 hPa 0,0 l/m 4,8 km/h (1 Bft) O-SO 112 0,000 mm 100 W/m 5,1 C 7,8 C 12,9 km/h (3 Bft) 100,00 %
03.06.2023 06:34 8,2 C 7,2 C 18,3 C 81 % 1017,8 hPa 0,0 l/m 4,8 km/h (1 Bft) O 90 0,000 mm 88 W/m 5,1 C 7,8 C 12,9 km/h (3 Bft) 95,65 %
03.06.2023 06:33 8,2 C 7,2 C 18,3 C 81 % 1017,8 hPa 0,0 l/m 1,6 km/h (1 Bft) O-NO 67 0,000 mm 86 W/m 5,1 C 8,2 C 6,4 km/h (2 Bft) 100,00 %
03.06.2023 06:32 8,1 C 7,2 C 18,3 C 81 % 1017,8 hPa 0,0 l/m 3,2 km/h (1 Bft) O 90 0,000 mm 100 W/m 5,0 C 8,1 C 4,8 km/h (1 Bft) 95,65 %
03.06.2023 06:31 8,1 C 7,2 C 18,3 C 81 % 1017,9 hPa 0,0 l/m 3,2 km/h (1 Bft) O-NO 67 0,000 mm 102 W/m 5,0 C 8,1 C 9,7 km/h (2 Bft) 95,65 %
03.06.2023 06:30 8,1 C 7,2 C 18,3 C 81 % 1017,9 hPa 0,0 l/m 9,7 km/h (2 Bft) O 90 0,000 mm 91 W/m 5,0 C 6,4 C 14,5 km/h (3 Bft) 91,30 %
03.06.2023 06:29 8,1 C 7,2 C 18,3 C 81 % 1017,9 hPa 0,0 l/m 6,4 km/h (2 Bft) O-NO 67 0,000 mm 88 W/m 5,0 C 7,2 C 14,5 km/h (3 Bft) 95,65 %
03.06.2023 06:28 8,1 C 7,2 C 18,3 C 82 % 1017,9 hPa 0,0 l/m 8,0 km/h (2 Bft) O 90 0,000 mm 58 W/m 5,2 C 6,8 C 14,5 km/h (3 Bft) 95,65 %
03.06.2023 06:27 8,1 C 7,2 C 18,3 C 81 % 1017,9 hPa 0,0 l/m 3,2 km/h (1 Bft) O 90 0,000 mm 60 W/m 5,0 C 8,1 C 9,7 km/h (2 Bft) 95,65 %
03.06.2023 06:26 8,1 C 7,2 C 18,3 C 81 % 1017,9 hPa 0,0 l/m 9,7 km/h (2 Bft) NO 45 0,000 mm 63 W/m 5,0 C 6,4 C 16,1 km/h (3 Bft) 100,00 %
03.06.2023 06:25 8,1 C 7,2 C 18,3 C 80 % 1017,8 hPa 0,0 l/m 4,8 km/h (1 Bft) O 90 0,000 mm 58 W/m 4,9 C 7,7 C 6,4 km/h (2 Bft) 91,30 %
03.06.2023 06:24 8,1 C 7,2 C 18,3 C 81 % 1017,7 hPa 0,0 l/m 3,2 km/h (1 Bft) O-NO 67 0,000 mm 58 W/m 5,0 C 8,1 C 8,0 km/h (2 Bft) 100,00 %
03.06.2023 06:23 8,1 C 7,2 C 18,3 C 81 % 1017,9 hPa 0,0 l/m 4,8 km/h (1 Bft) O 90 0,000 mm 58 W/m 5,0 C 7,7 C 8,0 km/h (2 Bft) 91,30 %
03.06.2023 06:22 8,2 C 7,2 C 18,3 C 81 % 1017,8 hPa 0,0 l/m 3,2 km/h (1 Bft) O 90 0,000 mm 58 W/m 5,1 C 8,2 C 6,4 km/h (2 Bft) 95,65 %
03.06.2023 06:21 8,1 C 7,2 C 18,3 C 80 % 1017,7 hPa 0,0 l/m 3,2 km/h (1 Bft) O-NO 67 0,000 mm 58 W/m 4,9 C 8,1 C 4,8 km/h (1 Bft) 95,65 %
03.06.2023 06:20 8,2 C 7,2 C 18,3 C 82 % 1017,7 hPa 0,0 l/m 6,4 km/h (2 Bft) O 90 0,000 mm 56 W/m 5,3 C 7,3 C 14,5 km/h (3 Bft) 100,00 %
03.06.2023 06:19 8,1 C 7,2 C 18,3 C 82 % 1017,6 hPa 0,0 l/m 1,6 km/h (1 Bft) O-SO 112 0,000 mm 56 W/m 5,2 C 8,1 C 4,8 km/h (1 Bft) 95,65 %
03.06.2023 06:18 8,1 C 7,2 C 18,3 C 81 % 1017,7 hPa 0,0 l/m 3,2 km/h (1 Bft) NO 45 0,000 mm 54 W/m 5,0 C 8,1 C 4,8 km/h (1 Bft) 100,00 %
03.06.2023 06:17 8,1 C 7,2 C 18,3 C 80 % 1017,7 hPa 0,0 l/m 1,6 km/h (1 Bft) S-SO 157 0,000 mm 54 W/m 4,9 C 8,1 C 6,4 km/h (2 Bft) 95,65 %
03.06.2023 06:16 8,1 C 7,2 C 18,3 C 79 % 1017,7 hPa 0,0 l/m 6,4 km/h (2 Bft) O-SO 112 0,000 mm 54 W/m 4,7 C 7,2 C 9,7 km/h (2 Bft) 91,30 %
03.06.2023 06:15 8,1 C 7,2 C 18,3 C 80 % 1017,7 hPa 0,0 l/m 9,7 km/h (2 Bft) O 90 0,000 mm 54 W/m 4,9 C 6,4 C 14,5 km/h (3 Bft) 95,65 %
03.06.2023 06:14 8,1 C 7,2 C 18,3 C 80 % 1017,7 hPa 0,0 l/m 6,4 km/h (2 Bft) O 90 0,000 mm 53 W/m 4,9 C 7,2 C 12,9 km/h (3 Bft) 95,65 %
03.06.2023 06:13 8,2 C 7,2 C 18,3 C 80 % 1017,6 hPa 0,0 l/m 3,2 km/h (1 Bft) O 90 0,000 mm 49 W/m 5,0 C 8,2 C 6,4 km/h (2 Bft) 95,65 %
03.06.2023 06:12 8,2 C 7,2 C 18,3 C 80 % 1017,6 hPa 0,0 l/m 4,8 km/h (1 Bft) O-SO 112 0,000 mm 47 W/m 5,0 C 7,8 C 9,7 km/h (2 Bft) 95,65 %
03.06.2023 06:11 8,2 C 7,2 C 18,3 C 79 % 1017,7 hPa 0,0 l/m 6,4 km/h (2 Bft) O 90 0,000 mm 46 W/m 4,8 C 7,3 C 14,5 km/h (3 Bft) 100,00 %
03.06.2023 06:10 8,2 C 7,2 C 18,3 C 79 % 1017,6 hPa 0,0 l/m 4,8 km/h (1 Bft) O-SO 112 0,000 mm 46 W/m 4,8 C 7,8 C 6,4 km/h (2 Bft) 100,00 %
03.06.2023 06:09 8,3 C 7,2 C 18,3 C 79 % 1017,6 hPa 0,0 l/m 8,0 km/h (2 Bft) O 90 0,000 mm 44 W/m 4,9 C 7,0 C 17,7 km/h (3 Bft) 95,65 %
03.06.2023 06:08 8,3 C 7,2 C 18,3 C 79 % 1017,6 hPa 0,0 l/m 6,4 km/h (2 Bft) O 90 0,000 mm 42 W/m 4,9 C 7,4 C 12,9 km/h (3 Bft) 100,00 %
03.06.2023 06:07 8,3 C 7,2 C 18,3 C 80 % 1017,6 hPa 0,0 l/m 11,3 km/h (2 Bft) O 90 0,000 mm 44 W/m 5,1 C 6,4 C 14,5 km/h (3 Bft) 100,00 %
03.06.2023 06:06 8,3 C 7,2 C 18,3 C 80 % 1017,6 hPa 0,0 l/m 3,2 km/h (1 Bft) NO 45 0,000 mm 49 W/m 5,1 C 8,3 C 9,7 km/h (2 Bft) 100,00 %
03.06.2023 06:05 8,3 C 7,2 C 18,3 C 81 % 1017,6 hPa 0,0 l/m 4,8 km/h (1 Bft) O-NO 67 0,000 mm 51 W/m 5,2 C 7,9 C 8,0 km/h (2 Bft) 100,00 %
03.06.2023 06:04 8,4 C 7,2 C 18,3 C 81 % 1017,5 hPa 0,0 l/m 4,8 km/h (1 Bft) O-NO 67 0,000 mm 42 W/m 5,3 C 8,0 C 9,7 km/h (2 Bft) 100,00 %
03.06.2023 06:03 8,4 C 7,2 C 18,3 C 81 % 1017,7 hPa 0,0 l/m 9,7 km/h (2 Bft) O 90 0,000 mm 37 W/m 5,3 C 6,8 C 14,5 km/h (3 Bft) 100,00 %
03.06.2023 06:02 8,4 C 7,2 C 18,3 C 80 % 1017,6 hPa 0,0 l/m 4,8 km/h (1 Bft) O-NO 67 0,000 mm 35 W/m 5,2 C 8,0 C 16,1 km/h (3 Bft) 95,65 %
03.06.2023 06:01 8,4 C 7,2 C 18,3 C 81 % 1017,6 hPa 0,0 l/m 8,0 km/h (2 Bft) O-SO 112 0,000 mm 35 W/m 5,3 C 7,1 C 12,9 km/h (3 Bft) 100,00 %
03.06.2023 06:00 8,4 C 7,2 C 18,3 C 80 % 1017,5 hPa 0,0 l/m 9,7 km/h (2 Bft) O 90 0,025 mm 35 W/m 5,2 C 6,8 C 16,1 km/h (3 Bft) 95,65 %
03.06.2023 05:59 8,4 C 7,2 C 18,3 C 80 % 1017,5 hPa 0,0 l/m 6,4 km/h (2 Bft) O-SO 112 0,000 mm 35 W/m 5,2 C 7,5 C 12,9 km/h (3 Bft) 100,00 %
03.06.2023 05:58 8,5 C 7,2 C 18,3 C 82 % 1017,5 hPa 0,0 l/m 4,8 km/h (1 Bft) O-NO 67 0,000 mm 37 W/m 5,6 C 8,1 C 9,7 km/h (2 Bft) 100,00 %
03.06.2023 05:57 8,4 C 7,2 C 18,3 C 83 % 1017,5 hPa 0,0 l/m 3,2 km/h (1 Bft) NO 45 0,000 mm 39 W/m 5,7 C 8,4 C 6,4 km/h (2 Bft) 100,00 %
03.06.2023 05:56 8,4 C 7,2 C 18,3 C 82 % 1017,5 hPa 0,0 l/m 3,2 km/h (1 Bft) O-NO 67 0,000 mm 39 W/m 5,5 C 8,4 C 6,4 km/h (2 Bft) 100,00 %
03.06.2023 05:55 8,4 C 7,2 C 18,3 C 83 % 1017,5 hPa 0,0 l/m 3,2 km/h (1 Bft) O-NO 67 0,000 mm 37 W/m 5,7 C 8,4 C 3,2 km/h (1 Bft) 95,65 %
03.06.2023 05:54 8,4 C 7,2 C 18,3 C 81 % 1017,5 hPa 0,0 l/m 1,6 km/h (1 Bft) O 90 0,000 mm 37 W/m 5,3 C 8,4 C 4,8 km/h (1 Bft) 100,00 %
03.06.2023 05:53 8,4 C 7,2 C 18,3 C 81 % 1017,5 hPa 0,0 l/m 1,6 km/h (1 Bft) O 90 0,000 mm 37 W/m 5,3 C 8,4 C 3,2 km/h (1 Bft) 100,00 %
03.06.2023 05:52 8,4 C 7,2 C 18,3 C 81 % 1017,6 hPa 0,0 l/m 4,8 km/h (1 Bft) O 90 0,000 mm 37 W/m 5,3 C 8,0 C 11,3 km/h (2 Bft) 100,00 %
03.06.2023 05:51 8,3 C 7,2 C 18,3 C 80 % 1017,6 hPa 0,0 l/m 1,6 km/h (1 Bft) O 90 0,000 mm 35 W/m 5,1 C 8,3 C 3,2 km/h (1 Bft) 100,00 %
03.06.2023 05:50 8,3 C 7,2 C 18,3 C 81 % 1017,6 hPa 0,0 l/m 3,2 km/h (1 Bft) NO 45 0,000 mm 33 W/m 5,2 C 8,3 C 6,4 km/h (2 Bft) 100,00 %
03.06.2023 05:49 8,3 C 7,2 C 18,3 C 81 % 1017,6 hPa 0,0 l/m 4,8 km/h (1 Bft) O 90 0,000 mm 33 W/m 5,2 C 7,9 C 9,7 km/h (2 Bft) 100,00 %
03.06.2023 05:48 8,3 C 7,2 C 18,3 C 80 % 1017,6 hPa 0,0 l/m 8,0 km/h (2 Bft) O 90 0,000 mm 33 W/m 5,1 C 7,0 C 14,5 km/h (3 Bft) 95,65 %
03.06.2023 05:47 8,4 C 7,2 C 18,3 C 81 % 1017,6 hPa 0,0 l/m 3,2 km/h (1 Bft) O 90 0,000 mm 33 W/m 5,3 C 8,4 C 6,4 km/h (2 Bft) 100,00 %
03.06.2023 05:46 8,4 C 7,2 C 18,3 C 81 % 1017,6 hPa 0,0 l/m 3,2 km/h (1 Bft) O 90 0,000 mm 33 W/m 5,3 C 8,4 C 6,4 km/h (2 Bft) 95,65 %
03.06.2023 05:45 8,4 C 7,2 C 18,3 C 81 % 1017,6 hPa 0,0 l/m 3,2 km/h (1 Bft) O-SO 112 0,000 mm 33 W/m 5,3 C 8,4 C 6,4 km/h (2 Bft) 100,00 %
03.06.2023 05:44 8,4 C 7,2 C 18,3 C 81 % 1017,6 hPa 0,0 l/m 3,2 km/h (1 Bft) O-SO 112 0,000 mm 32 W/m 5,3 C 8,4 C 6,4 km/h (2 Bft) 100,00 %
03.06.2023 05:43 8,4 C 7,2 C 18,3 C 82 % 1017,6 hPa 0,0 l/m 3,2 km/h (1 Bft) NO 45 0,000 mm 30 W/m 5,5 C 8,4 C 8,0 km/h (2 Bft) 95,65 %
03.06.2023 05:42 8,4 C 7,8 C 18,3 C 82 % 1017,6 hPa 0,0 l/m 3,2 km/h (1 Bft) O-NO 67 0,000 mm 28 W/m 5,5 C 8,4 C 12,9 km/h (3 Bft) 100,00 %
03.06.2023 05:41 8,4 C 7,2 C 18,3 C 83 % 1017,5 hPa 0,0 l/m 1,6 km/h (1 Bft) N-NW 337 0,000 mm 28 W/m 5,7 C 8,4 C 4,8 km/h (1 Bft) 95,65 %
03.06.2023 05:40 8,3 C 7,2 C 18,3 C 82 % 1017,6 hPa 0,0 l/m 6,4 km/h (2 Bft) O-SO 112 0,000 mm 26 W/m 5,4 C 7,4 C 12,9 km/h (3 Bft) 100,00 %
03.06.2023 05:39 8,4 C 7,2 C 18,3 C 81 % 1017,6 hPa 0,0 l/m 6,4 km/h (2 Bft) O-SO 112 0,000 mm 26 W/m 5,3 C 7,5 C 12,9 km/h (3 Bft) 95,65 %
03.06.2023 05:38 8,3 C 7,2 C 18,3 C 82 % 1017,6 hPa 0,0 l/m 3,2 km/h (1 Bft) O 90 0,000 mm 25 W/m 5,4 C 8,3 C 4,8 km/h (1 Bft) 100,00 %
03.06.2023 05:37 8,3 C 7,2 C 18,3 C 82 % 1017,6 hPa 0,0 l/m 4,8 km/h (1 Bft) O 90 0,000 mm 23 W/m 5,4 C 7,9 C 9,7 km/h (2 Bft) 100,00 %
03.06.2023 05:36 8,3 C 7,2 C 18,3 C 81 % 1017,6 hPa 0,0 l/m 3,2 km/h (1 Bft) O-SO 112 0,000 mm 23 W/m 5,2 C 8,3 C 6,4 km/h (2 Bft) 100,00 %
03.06.2023 05:35 8,3 C 7,2 C 18,3 C 81 % 1017,6 hPa 0,0 l/m 3,2 km/h (1 Bft) O-SO 112 0,000 mm 23 W/m 5,2 C 8,3 C 4,8 km/h (1 Bft) 100,00 %
03.06.2023 05:34 8,3 C 7,2 C 18,3 C 80 % 1017,6 hPa 0,0 l/m 6,4 km/h (2 Bft) O 90 0,000 mm 21 W/m 5,1 C 7,4 C 12,9 km/h (3 Bft) 91,30 %
03.06.2023 05:33 8,3 C 7,2 C 18,3 C 81 % 1017,5 hPa 0,0 l/m 3,2 km/h (1 Bft) O-SO 112 0,000 mm 21 W/m 5,2 C 8,3 C 6,4 km/h (2 Bft) 100,00 %
03.06.2023 05:32 8,4 C 7,2 C 18,3 C 81 % 1017,6 hPa 0,0 l/m 4,8 km/h (1 Bft) O 90 0,000 mm 21 W/m 5,3 C 8,0 C 8,0 km/h (2 Bft) 100,00 %
03.06.2023 05:31 8,4 C 7,2 C 18,3 C 81 % 1017,6 hPa 0,0 l/m 3,2 km/h (1 Bft) S-SO 157 0,000 mm 21 W/m 5,3 C 8,4 C 4,8 km/h (1 Bft) 95,65 %
03.06.2023 05:30 8,4 C 7,2 C 18,3 C 87 % 1017,5 hPa 0,0 l/m 3,2 km/h (1 Bft) O-NO 67 0,000 mm 21 W/m 6,4 C 8,4 C 8,0 km/h (2 Bft) 100,00 %
03.06.2023 05:29 8,4 C 7,2 C 18,3 C 82 % 1017,6 hPa 0,0 l/m 3,2 km/h (1 Bft) NO 45 0,000 mm 21 W/m 5,5 C 8,4 C 4,8 km/h (1 Bft) 95,65 %
03.06.2023 05:28 8,3 C 7,2 C 18,3 C 81 % 1017,6 hPa 0,0 l/m 1,6 km/h (1 Bft) NO 45 0,000 mm 21 W/m 5,2 C 8,3 C 4,8 km/h (1 Bft) 100,00 %
03.06.2023 05:27 8,3 C 7,2 C 18,3 C 81 % 1017,5 hPa 0,0 l/m 3,2 km/h (1 Bft) O 90 0,000 mm 19 W/m 5,2 C 8,3 C 6,4 km/h (2 Bft) 95,65 %
03.06.2023 05:26 8,4 C 7,2 C 18,3 C 82 % 1017,6 hPa 0,0 l/m 6,4 km/h (2 Bft) O 90 0,000 mm 19 W/m 5,5 C 7,5 C 12,9 km/h (3 Bft) 95,65 %
03.06.2023 05:25 8,3 C 7,2 C 18,3 C 82 % 1017,6 hPa 0,0 l/m 4,8 km/h (1 Bft) NO 45 0,000 mm 18 W/m 5,4 C 7,9 C 9,7 km/h (2 Bft) 100,00 %
03.06.2023 05:24 8,3 C 7,2 C 18,3 C 82 % 1017,5 hPa 0,0 l/m 1,6 km/h (1 Bft) O 90 0,000 mm 18 W/m 5,4 C 8,3 C 4,8 km/h (1 Bft) 100,00 %
03.06.2023 05:23 8,3 C 7,2 C 18,3 C 81 % 1017,6 hPa 0,0 l/m 3,2 km/h (1 Bft) O 90 0,000 mm 16 W/m 5,2 C 8,3 C 6,4 km/h (2 Bft) 100,00 %
03.06.2023 05:22 8,3 C 7,2 C 18,3 C 81 % 1017,6 hPa 0,0 l/m 3,2 km/h (1 Bft) O-NO 67 0,000 mm 16 W/m 5,2 C 8,3 C 6,4 km/h (2 Bft) 100,00 %
03.06.2023 05:21 8,3 C 7,2 C 18,3 C 81 % 1017,5 hPa 0,0 l/m 1,6 km/h (1 Bft) O-NO 67 0,000 mm 14 W/m 5,2 C 8,3 C 3,2 km/h (1 Bft) 95,65 %
03.06.2023 05:20 8,3 C 7,2 C 18,3 C 80 % 1017,6 hPa 0,0 l/m 4,8 km/h (1 Bft) N-NO 22 0,000 mm 12 W/m 5,1 C 7,9 C 9,7 km/h (2 Bft) 95,65 %
03.06.2023 05:19 8,3 C 7,2 C 18,3 C 81 % 1017,5 hPa 0,0 l/m 4,8 km/h (1 Bft) NO 45 0,000 mm 12 W/m 5,2 C 7,9 C 8,0 km/h (2 Bft) 100,00 %
03.06.2023 05:18 8,3 C 7,2 C 18,3 C 81 % 1017,5 hPa 0,0 l/m 1,6 km/h (1 Bft) O 90 0,000 mm 12 W/m 5,2 C 8,3 C 4,8 km/h (1 Bft) 100,00 %
03.06.2023 05:17 8,3 C 6,7 C 18,3 C 81 % 1017,6 hPa 0,0 l/m 1,6 km/h (1 Bft) O 90 0,000 mm 11 W/m 5,2 C 8,3 C 3,2 km/h (1 Bft) 100,00 %
03.06.2023 05:16 8,3 C 6,7 C 18,3 C 81 % 1017,6 hPa 0,0 l/m 3,2 km/h (1 Bft) SO 135 0,000 mm 11 W/m 5,2 C 8,3 C 4,8 km/h (1 Bft) 100,00 %
03.06.2023 05:15 8,3 C 6,7 C 18,3 C 80 % 1017,5 hPa 0,0 l/m 1,6 km/h (1 Bft) O-SO 112 0,000 mm 9 W/m 5,1 C 8,3 C 4,8 km/h (1 Bft) 100,00 %
03.06.2023 05:14 8,3 C 6,7 C 18,3 C 80 % 1017,5 hPa 0,0 l/m 3,2 km/h (1 Bft) O-SO 112 0,000 mm 7 W/m 5,1 C 8,3 C 6,4 km/h (2 Bft) 100,00 %
03.06.2023 05:13 8,3 C 6,7 C 18,3 C 81 % 1017,5 hPa 0,0 l/m 3,2 km/h (1 Bft) O-NO 67 0,000 mm 7 W/m 5,2 C 8,3 C 4,8 km/h (1 Bft) 95,65 %
03.06.2023 05:12 8,4 C 6,7 C 18,3 C 79 % 1017,5 hPa 0,0 l/m 1,6 km/h (1 Bft) SO 135 0,000 mm 7 W/m 5,0 C 8,4 C 4,8 km/h (1 Bft) 100,00 %
03.06.2023 05:11 8,4 C 6,7 C 18,3 C 79 % 1017,5 hPa 0,0 l/m 3,2 km/h (1 Bft) O 90 0,000 mm 7 W/m 5,0 C 8,4 C 6,4 km/h (2 Bft) 100,00 %
03.06.2023 05:10 8,4 C 6,7 C 18,3 C 79 % 1017,5 hPa 0,0 l/m 4,8 km/h (1 Bft) N-NO 22 0,000 mm 7 W/m 5,0 C 8,0 C 6,4 km/h (2 Bft) 100,00 %
03.06.2023 05:09 8,4 C 6,7 C 18,3 C 79 % 1017,5 hPa 0,0 l/m 3,2 km/h (1 Bft) O-NO 67 0,000 mm 5 W/m 5,0 C 8,4 C 6,4 km/h (2 Bft) 100,00 %
03.06.2023 05:08 8,5 C 6,7 C 18,3 C 80 % 1017,5 hPa 0,0 l/m 4,8 km/h (1 Bft) O 90 0,000 mm 5 W/m 5,3 C 8,1 C 11,3 km/h (2 Bft) 100,00 %
03.06.2023 05:07 8,5 C 6,7 C 18,3 C 79 % 1017,5 hPa 0,0 l/m 4,8 km/h (1 Bft) NO 45 0,000 mm 5 W/m 5,1 C 8,1 C 9,7 km/h (2 Bft) 100,00 %
03.06.2023 05:06 8,6 C 6,7 C 18,3 C 80 % 1017,5 hPa 0,0 l/m 1,6 km/h (1 Bft) O 90 0,000 mm 5 W/m 5,3 C 8,6 C 6,4 km/h (2 Bft) 86,96 %
03.06.2023 05:05 8,6 C 6,7 C 18,3 C 80 % 1017,5 hPa 0,0 l/m 4,8 km/h (1 Bft) O 90 0,000 mm 5 W/m 5,3 C 8,2 C 11,3 km/h (2 Bft) 100,00 %
03.06.2023 05:04 8,6 C 6,7 C 18,3 C 80 % 1017,4 hPa 0,0 l/m 4,8 km/h (1 Bft) O-NO 67 0,000 mm 5 W/m 5,3 C 8,2 C 12,9 km/h (3 Bft) 95,65 %
03.06.2023 05:03 8,6 C 6,7 C 18,3 C 80 % 1017,5 hPa 0,0 l/m 6,4 km/h (2 Bft) O 90 0,000 mm 0 W/m 5,3 C 7,8 C 12,9 km/h (3 Bft) 100,00 %
03.06.2023 05:02 8,6 C 6,7 C 18,3 C 80 % 1017,5 hPa 0,0 l/m 6,4 km/h (2 Bft) O-SO 112 0,000 mm 0 W/m 5,3 C 7,8 C 12,9 km/h (3 Bft) 95,65 %
03.06.2023 05:01 8,6 C 6,7 C 18,3 C 80 % 1017,5 hPa 0,0 l/m 3,2 km/h (1 Bft) O 90 0,000 mm 0 W/m 5,3 C 8,6 C 8,0 km/h (2 Bft) 100,00 %
03.06.2023 05:00 8,7 C 6,7 C 18,3 C 81 % 1017,4 hPa 0,0 l/m 6,4 km/h (2 Bft) O 90 0,000 mm 0 W/m 5,6 C 7,9 C 11,3 km/h (2 Bft) 95,65 %
03.06.2023 04:59 8,7 C 6,7 C 18,3 C 80 % 1017,4 hPa 0,0 l/m 4,8 km/h (1 Bft) O 90 0,000 mm 0 W/m 5,4 C 8,3 C 16,1 km/h (3 Bft) 95,65 %
03.06.2023 04:58 8,7 C 6,7 C 18,3 C 80 % 1017,4 hPa 0,0 l/m 1,6 km/h (1 Bft) SO 135 0,000 mm 0 W/m 5,4 C 8,7 C 6,4 km/h (2 Bft) 95,65 %
03.06.2023 04:57 8,7 C 6,7 C 18,3 C 80 % 1017,5 hPa 0,0 l/m 3,2 km/h (1 Bft) O 90 0,000 mm 0 W/m 5,4 C 8,7 C 6,4 km/h (2 Bft) 91,30 %
03.06.2023 04:56 8,7 C 7,2 C 18,3 C 80 % 1017,5 hPa 0,0 l/m 3,2 km/h (1 Bft) O 90 0,000 mm 0 W/m 5,4 C 8,7 C 4,8 km/h (1 Bft) 100,00 %
03.06.2023 04:55 8,8 C 7,2 C 18,3 C 80 % 1017,5 hPa 0,0 l/m 3,2 km/h (1 Bft) O 90 0,000 mm 0 W/m 5,5 C 8,8 C 6,4 km/h (2 Bft) 95,65 %
03.06.2023 04:54 8,8 C 7,2 C 18,3 C 79 % 1017,4 hPa 0,0 l/m 3,2 km/h (1 Bft) NO 45 0,000 mm 0 W/m 5,4 C 8,8 C 8,0 km/h (2 Bft) 100,00 %
03.06.2023 04:53 8,9 C 7,2 C 18,3 C 81 % 1017,4 hPa 0,0 l/m 3,2 km/h (1 Bft) N-NO 22 0,000 mm 0 W/m 5,8 C 8,9 C 6,4 km/h (2 Bft) 95,65 %
03.06.2023 04:52 8,9 C 7,2 C 18,3 C 81 % 1017,4 hPa 0,0 l/m 3,2 km/h (1 Bft) O-SO 112 0,000 mm 0 W/m 5,8 C 8,9 C 6,4 km/h (2 Bft) 91,30 %
03.06.2023 04:51 8,9 C 7,2 C 18,3 C 81 % 1017,3 hPa 0,0 l/m 4,8 km/h (1 Bft) N-NW 337 0,000 mm 0 W/m 5,8 C 8,6 C 6,4 km/h (2 Bft) 91,30 %
03.06.2023 04:50 9,1 C 7,2 C 18,3 C 82 % 1017,4 hPa 0,0 l/m 1,6 km/h (1 Bft) N-NO 22 0,000 mm 0 W/m 6,2 C 9,1 C 8,0 km/h (2 Bft) 100,00 %
03.06.2023 04:49 9,0 C 7,2 C 18,3 C 83 % 1017,4 hPa 0,0 l/m 1,6 km/h (1 Bft) N-NO 22 0,000 mm 0 W/m 6,3 C 9,0 C 4,8 km/h (1 Bft) 95,65 %
03.06.2023 04:48 9,0 C 7,2 C 18,3 C 81 % 1017,5 hPa 0,0 l/m 1,6 km/h (1 Bft) O-NO 67 0,000 mm 0 W/m 5,9 C 9,0 C 4,8 km/h (1 Bft) 100,00 %
03.06.2023 04:47 9,0 C 7,2 C 18,3 C 82 % 1017,4 hPa 0,0 l/m 9,7 km/h (2 Bft) O 90 0,000 mm 0 W/m 6,1 C 7,5 C 14,5 km/h (3 Bft) 95,65 %
03.06.2023 04:46 8,9 C 7,2 C 18,3 C 81 % 1017,5 hPa 0,0 l/m 9,7 km/h (2 Bft) O-NO 67 0,000 mm 0 W/m 5,8 C 7,4 C 16,1 km/h (3 Bft) 95,65 %
03.06.2023 04:45 9,0 C 7,2 C 18,3 C 81 % 1017,4 hPa 0,0 l/m 4,8 km/h (1 Bft) SO 135 0,000 mm 0 W/m 5,9 C 8,7 C 8,0 km/h (2 Bft) 91,30 %
03.06.2023 04:44 9,0 C 7,2 C 18,3 C 82 % 1017,4 hPa 0,0 l/m 9,7 km/h (2 Bft) O 90 0,000 mm 0 W/m 6,1 C 7,5 C 14,5 km/h (3 Bft) 100,00 %
03.06.2023 04:43 9,0 C 7,8 C 18,3 C 83 % 1017,4 hPa 0,0 l/m 6,4 km/h (2 Bft) O 90 0,000 mm 0 W/m 6,3 C 8,2 C 9,7 km/h (2 Bft) 95,65 %
03.06.2023 04:42 9,1 C 7,8 C 18,3 C 84 % 1017,5 hPa 0,0 l/m 6,4 km/h (2 Bft) O-NO 67 0,000 mm 0 W/m 6,5 C 8,3 C 9,7 km/h (2 Bft) 100,00 %
03.06.2023 04:41 9,1 C 7,8 C 18,3 C 83 % 1017,4 hPa 0,0 l/m 6,4 km/h (2 Bft) O 90 0,000 mm 0 W/m 6,4 C 8,3 C 9,7 km/h (2 Bft) 100,00 %
03.06.2023 04:40 9,1 C 7,8 C 18,3 C 84 % 1017,4 hPa 0,0 l/m 4,8 km/h (1 Bft) O 90 0,000 mm 0 W/m 6,5 C 8,8 C 8,0 km/h (2 Bft) 95,65 %
03.06.2023 04:39 9,1 C 7,8 C 18,3 C 85 % 1017,4 hPa 0,0 l/m 4,8 km/h (1 Bft) O-SO 112 0,000 mm 0 W/m 6,7 C 8,8 C 8,0 km/h (2 Bft) 100,00 %
03.06.2023 04:38 9,0 C 7,8 C 18,3 C 84 % 1017,4 hPa 0,0 l/m 6,4 km/h (2 Bft) O 90 0,000 mm 0 W/m 6,4 C 8,2 C 9,7 km/h (2 Bft) 95,65 %
03.06.2023 04:37 9,0 C 7,8 C 18,3 C 84 % 1017,3 hPa 0,0 l/m 4,8 km/h (1 Bft) O 90 0,000 mm 0 W/m 6,4 C 8,7 C 9,7 km/h (2 Bft) 100,00 %
03.06.2023 04:36 9,0 C 7,8 C 18,3 C 84 % 1017,4 hPa 0,0 l/m 3,2 km/h (1 Bft) NO 45 0,000 mm 0 W/m 6,4 C 9,0 C 11,3 km/h (2 Bft) 95,65 %
03.06.2023 04:35 9,0 C 7,8 C 18,3 C 83 % 1017,4 hPa 0,0 l/m 4,8 km/h (1 Bft) O-SO 112 0,000 mm 0 W/m 6,3 C 8,7 C 8,0 km/h (2 Bft) 95,65 %
03.06.2023 04:34 9,1 C 7,8 C 18,3 C 83 % 1017,4 hPa 0,0 l/m 3,2 km/h (1 Bft) O 90 0,000 mm 0 W/m 6,4 C 9,1 C 4,8 km/h (1 Bft) 91,30 %
03.06.2023 04:33 9,1 C 7,8 C 18,3 C 83 % 1017,4 hPa 0,0 l/m 1,6 km/h (1 Bft) SO 135 0,000 mm 0 W/m 6,4 C 9,1 C 3,2 km/h (1 Bft) 100,00 %
03.06.2023 04:32 9,2 C 7,8 C 18,3 C 83 % 1017,4 hPa 0,0 l/m 0,0 km/h (0 Bft) SO 135 0,000 mm 0 W/m 6,5 C 9,2 C 1,6 km/h (1 Bft) 100,00 %
03.06.2023 04:31 9,2 C 7,8 C 18,3 C 83 % 1017,3 hPa 0,0 l/m 1,6 km/h (1 Bft) S-SO 157 0,000 mm 0 W/m 6,5 C 9,2 C 3,2 km/h (1 Bft) 95,65 %
03.06.2023 04:30 9,3 C 7,8 C 18,3 C 83 % 1017,4 hPa 0,0 l/m 1,6 km/h (1 Bft) O-SO 112 0,000 mm 0 W/m 6,6 C 9,3 C 3,2 km/h (1 Bft) 95,65 %
03.06.2023 04:29 9,3 C 7,8 C 18,3 C 83 % 1017,3 hPa 0,0 l/m 3,2 km/h (1 Bft) O-SO 112 0,000 mm 0 W/m 6,6 C 9,3 C 6,4 km/h (2 Bft) 100,00 %
03.06.2023 04:28 9,3 C 7,8 C 18,3 C 84 % 1017,4 hPa 0,0 l/m 0,0 km/h (0 Bft) O-NO 67 0,000 mm 0 W/m 6,7 C 9,3 C 3,2 km/h (1 Bft) 100,00 %
03.06.2023 04:27 9,3 C 7,8 C 18,3 C 84 % 1017,4 hPa 0,0 l/m 1,6 km/h (1 Bft) O 90 0,000 mm 0 W/m 6,7 C 9,3 C 3,2 km/h (1 Bft) 100,00 %
03.06.2023 04:26 9,4 C 7,8 C 18,3 C 84 % 1017,4 hPa 0,0 l/m 3,2 km/h (1 Bft) O 90 0,000 mm 0 W/m 6,8 C 9,4 C 9,7 km/h (2 Bft) 100,00 %
03.06.2023 04:25 9,3 C 7,8 C 18,3 C 84 % 1017,4 hPa 0,0 l/m 0,0 km/h (0 Bft) NO 45 0,000 mm 0 W/m 6,7 C 9,3 C 1,6 km/h (1 Bft) 100,00 %
03.06.2023 04:24 9,4 C 7,8 C 18,9 C 84 % 1017,4 hPa 0,0 l/m 1,6 km/h (1 Bft) NO 45 0,000 mm 0 W/m 6,8 C 9,4 C 1,6 km/h (1 Bft) 95,65 %
03.06.2023 04:23 9,3 C 7,8 C 18,9 C 84 % 1017,4 hPa 0,0 l/m 1,6 km/h (1 Bft) O-NO 67 0,000 mm 0 W/m 6,7 C 9,3 C 3,2 km/h (1 Bft) 100,00 %
03.06.2023 04:22 9,3 C 7,8 C 18,9 C 83 % 1017,4 hPa 0,0 l/m 3,2 km/h (1 Bft) O 90 0,000 mm 0 W/m 6,6 C 9,3 C 4,8 km/h (1 Bft) 100,00 %
03.06.2023 04:21 9,3 C 7,8 C 18,9 C 83 % 1017,3 hPa 0,0 l/m 4,8 km/h (1 Bft) O-SO 112 0,000 mm 0 W/m 6,6 C 9,0 C 11,3 km/h (2 Bft) 100,00 %
03.06.2023 04:20 9,4 C 7,8 C 18,9 C 83 % 1017,3 hPa 0,0 l/m 4,8 km/h (1 Bft) SO 135 0,000 mm 0 W/m 6,7 C 9,1 C 8,0 km/h (2 Bft) 100,00 %
03.06.2023 04:19 9,3 C 7,8 C 18,9 C 83 % 1017,3 hPa 0,0 l/m 8,0 km/h (2 Bft) O 90 0,000 mm 0 W/m 6,6 C 8,2 C 14,5 km/h (3 Bft) 100,00 %
03.06.2023 04:18 9,3 C 7,8 C 18,9 C 83 % 1017,3 hPa 0,0 l/m 3,2 km/h (1 Bft) O-SO 112 0,000 mm 0 W/m 6,6 C 9,3 C 8,0 km/h (2 Bft) 100,00 %
03.06.2023 04:17 9,3 C 7,8 C 18,9 C 83 % 1017,2 hPa 0,0 l/m 8,0 km/h (2 Bft) O 90 0,000 mm 0 W/m 6,6 C 8,2 C 14,5 km/h (3 Bft) 95,65 %
03.06.2023 04:16 9,3 C 7,8 C 18,9 C 83 % 1017,3 hPa 0,0 l/m 4,8 km/h (1 Bft) O-SO 112 0,000 mm 0 W/m 6,6 C 9,0 C 11,3 km/h (2 Bft) 95,65 %
03.06.2023 04:15 9,3 C 7,8 C 18,9 C 83 % 1017,3 hPa 0,0 l/m 3,2 km/h (1 Bft) O-SO 112 0,000 mm 0 W/m 6,6 C 9,3 C 8,0 km/h (2 Bft) 100,00 %
03.06.2023 04:14 9,3 C 7,8 C 18,9 C 81 % 1017,3 hPa 0,0 l/m 1,6 km/h (1 Bft) N 360 0,000 mm 0 W/m 6,2 C 9,3 C 4,8 km/h (1 Bft) 100,00 %
03.06.2023 04:13 9,3 C 7,8 C 18,9 C 82 % 1017,2 hPa 0,0 l/m 4,8 km/h (1 Bft) O 90 0,000 mm 0 W/m 6,4 C 9,0 C 6,4 km/h (2 Bft) 100,00 %
03.06.2023 04:12 9,3 C 7,8 C 18,9 C 82 % 1017,3 hPa 0,0 l/m 4,8 km/h (1 Bft) O 90 0,000 mm 0 W/m 6,4 C 9,0 C 9,7 km/h (2 Bft) 100,00 %
03.06.2023 04:11 9,3 C 7,8 C 18,9 C 83 % 1017,3 hPa 0,0 l/m 4,8 km/h (1 Bft) NO 45 0,000 mm 0 W/m 6,6 C 9,0 C 8,0 km/h (2 Bft) 100,00 %
03.06.2023 04:10 9,3 C 7,8 C 18,9 C 81 % 1017,3 hPa 0,0 l/m 1,6 km/h (1 Bft) N-NO 22 0,000 mm 0 W/m 6,2 C 9,3 C 3,2 km/h (1 Bft) 95,65 %
03.06.2023 04:09 9,3 C 7,8 C 18,9 C 81 % 1017,3 hPa 0,0 l/m 4,8 km/h (1 Bft) O 90 0,000 mm 0 W/m 6,2 C 9,0 C 11,3 km/h (2 Bft) 100,00 %
03.06.2023 04:08 9,3 C 7,8 C 18,9 C 81 % 1017,3 hPa 0,0 l/m 6,4 km/h (2 Bft) O 90 0,000 mm 0 W/m 6,2 C 8,6 C 11,3 km/h (2 Bft) 100,00 %
03.06.2023 04:07 9,3 C 7,8 C 18,9 C 81 % 1017,3 hPa 0,0 l/m 6,4 km/h (2 Bft) SO 135 0,000 mm 0 W/m 6,2 C 8,6 C 12,9 km/h (3 Bft) 95,65 %
03.06.2023 04:06 9,3 C 8,3 C 18,9 C 80 % 1017,2 hPa 0,0 l/m 4,8 km/h (1 Bft) O-NO 67 0,000 mm 0 W/m 6,0 C 9,0 C 12,9 km/h (3 Bft) 100,00 %
03.06.2023 04:05 9,3 C 8,3 C 18,9 C 80 % 1017,2 hPa 0,0 l/m 4,8 km/h (1 Bft) O 90 0,000 mm 0 W/m 6,0 C 9,0 C 6,4 km/h (2 Bft) 100,00 %
03.06.2023 04:04 9,3 C 8,3 C 18,9 C 80 % 1017,2 hPa 0,0 l/m 6,4 km/h (2 Bft) O-NO 67 0,000 mm 0 W/m 6,0 C 8,6 C 16,1 km/h (3 Bft) 100,00 %
03.06.2023 04:03 9,4 C 8,3 C 18,9 C 80 % 1017,3 hPa 0,0 l/m 8,0 km/h (2 Bft) O 90 0,000 mm 0 W/m 6,1 C 8,3 C 16,1 km/h (3 Bft) 95,65 %
03.06.2023 04:02 9,4 C 8,3 C 18,9 C 80 % 1017,3 hPa 0,0 l/m 3,2 km/h (1 Bft) O-SO 112 0,000 mm 0 W/m 6,1 C 9,4 C 3,2 km/h (1 Bft) 95,65 %
03.06.2023 04:01 9,4 C 8,3 C 18,9 C 81 % 1017,2 hPa 0,0 l/m 4,8 km/h (1 Bft) O 90 0,000 mm 0 W/m 6,3 C 9,1 C 8,0 km/h (2 Bft) 95,65 %
03.06.2023 04:00 9,5 C 8,3 C 18,9 C 81 % 1017,2 hPa 0,0 l/m 6,4 km/h (2 Bft) NO 45 0,000 mm 0 W/m 6,4 C 8,8 C 11,3 km/h (2 Bft) 100,00 %
03.06.2023 03:59 9,5 C 8,3 C 18,9 C 81 % 1017,3 hPa 0,0 l/m 6,4 km/h (2 Bft) NO 45 0,000 mm 0 W/m 6,4 C 8,8 C 11,3 km/h (2 Bft) 100,00 %
03.06.2023 03:58 9,5 C 8,3 C 18,9 C 80 % 1017,2 hPa 0,0 l/m 3,2 km/h (1 Bft) O-NO 67 0,000 mm 0 W/m 6,2 C 9,5 C 4,8 km/h (1 Bft) 100,00 %
03.06.2023 03:57 9,5 C 8,3 C 18,9 C 80 % 1017,3 hPa 0,0 l/m 6,4 km/h (2 Bft) O-NO 67 0,000 mm 0 W/m 6,2 C 8,8 C 11,3 km/h (2 Bft) 95,65 %
03.06.2023 03:56 9,6 C 8,3 C 18,9 C 82 % 1017,2 hPa 0,0 l/m 6,4 km/h (2 Bft) NO 45 0,000 mm 0 W/m 6,7 C 8,9 C 11,3 km/h (2 Bft) 91,30 %
03.06.2023 03:55 9,6 C 8,3 C 18,9 C 82 % 1017,2 hPa 0,0 l/m 1,6 km/h (1 Bft) O-NO 67 0,000 mm 0 W/m 6,7 C 9,6 C 3,2 km/h (1 Bft) 100,00 %
03.06.2023 03:54 9,6 C 8,3 C 18,9 C 82 % 1017,2 hPa 0,0 l/m 3,2 km/h (1 Bft) S-SO 157 0,000 mm 0 W/m 6,7 C 9,6 C 8,0 km/h (2 Bft) 100,00 %
03.06.2023 03:53 9,6 C 8,3 C 18,9 C 81 % 1017,3 hPa 0,0 l/m 1,6 km/h (1 Bft) NO 45 0,000 mm 0 W/m 6,5 C 9,6 C 4,8 km/h (1 Bft) 100,00 %
03.06.2023 03:52 9,6 C 8,3 C 18,9 C 80 % 1017,3 hPa 0,0 l/m 1,6 km/h (1 Bft) O-SO 112 0,000 mm 0 W/m 6,3 C 9,6 C 4,8 km/h (1 Bft) 100,00 %
03.06.2023 03:51 9,6 C 8,3 C 18,9 C 81 % 1017,3 hPa 0,0 l/m 1,6 km/h (1 Bft) N-NO 22 0,000 mm 0 W/m 6,5 C 9,6 C 3,2 km/h (1 Bft) 100,00 %
03.06.2023 03:50 9,7 C 8,3 C 18,9 C 81 % 1017,4 hPa 0,0 l/m 1,6 km/h (1 Bft) O 90 0,000 mm 0 W/m 6,6 C 9,7 C 4,8 km/h (1 Bft) 100,00 %
03.06.2023 03:49 9,7 C 8,3 C 18,9 C 82 % 1017,4 hPa 0,0 l/m 4,8 km/h (1 Bft) O-SO 112 0,000 mm 0 W/m 6,8 C 9,5 C 6,4 km/h (2 Bft) 95,65 %
03.06.2023 03:48 9,7 C 8,3 C 18,9 C 82 % 1017,2 hPa 0,0 l/m 4,8 km/h (1 Bft) N-NO 22 0,000 mm 0 W/m 6,8 C 9,5 C 8,0 km/h (2 Bft) 100,00 %
03.06.2023 03:47 9,7 C 8,3 C 18,9 C 82 % 1017,2 hPa 0,0 l/m 3,2 km/h (1 Bft) N-NO 22 0,000 mm 0 W/m 6,8 C 9,7 C 6,4 km/h (2 Bft) 100,00 %
03.06.2023 03:46 9,7 C 8,3 C 18,9 C 82 % 1017,3 hPa 0,0 l/m 1,6 km/h (1 Bft) O-SO 112 0,000 mm 0 W/m 6,8 C 9,7 C 4,8 km/h (1 Bft) 100,00 %
03.06.2023 03:45 9,7 C 8,3 C 18,9 C 81 % 1017,3 hPa 0,0 l/m 1,6 km/h (1 Bft) O 90 0,000 mm 0 W/m 6,6 C 9,7 C 4,8 km/h (1 Bft) 95,65 %
03.06.2023 03:44 9,7 C 8,3 C 18,9 C 82 % 1017,2 hPa 0,0 l/m 3,2 km/h (1 Bft) O 90 0,000 mm 0 W/m 6,8 C 9,7 C 4,8 km/h (1 Bft) 100,00 %
03.06.2023 03:43 9,7 C 8,3 C 18,9 C 82 % 1017,3 hPa 0,0 l/m 8,0 km/h (2 Bft) O-SO 112 0,000 mm 0 W/m 6,8 C 8,7 C 12,9 km/h (3 Bft) 91,30 %
03.06.2023 03:42 9,7 C 8,3 C 18,9 C 82 % 1017,2 hPa 0,0 l/m 3,2 km/h (1 Bft) O-NO 67 0,000 mm 0 W/m 6,8 C 9,7 C 6,4 km/h (2 Bft) 95,65 %
03.06.2023 03:41 9,7 C 8,3 C 18,9 C 83 % 1017,2 hPa 0,0 l/m 4,8 km/h (1 Bft) O-SO 112 0,000 mm 0 W/m 7,0 C 9,5 C 9,7 km/h (2 Bft) 95,65 %
03.06.2023 03:40 9,6 C 8,3 C 18,9 C 82 % 1017,3 hPa 0,0 l/m 6,4 km/h (2 Bft) O 90 0,000 mm 0 W/m 6,7 C 8,9 C 11,3 km/h (2 Bft) 100,00 %
03.06.2023 03:39 9,6 C 8,3 C 18,9 C 80 % 1017,3 hPa 0,0 l/m 6,4 km/h (2 Bft) O-SO 112 0,000 mm 0 W/m 6,3 C 8,9 C 12,9 km/h (3 Bft) 95,65 %
03.06.2023 03:38 9,6 C 8,3 C 18,9 C 81 % 1017,2 hPa 0,0 l/m 8,0 km/h (2 Bft) SO 135 0,000 mm 0 W/m 6,5 C 8,5 C 11,3 km/h (2 Bft) 95,65 %
03.06.2023 03:37 9,7 C 8,3 C 18,9 C 81 % 1017,2 hPa 0,0 l/m 4,8 km/h (1 Bft) O 90 0,000 mm 0 W/m 6,6 C 9,5 C 9,7 km/h (2 Bft) 95,65 %
03.06.2023 03:36 9,7 C 8,3 C 18,9 C 81 % 1017,2 hPa 0,0 l/m 6,4 km/h (2 Bft) NO 45 0,000 mm 0 W/m 6,6 C 9,0 C 9,7 km/h (2 Bft) 95,65 %
03.06.2023 03:35 9,7 C 8,3 C 18,9 C 81 % 1017,2 hPa 0,0 l/m 9,7 km/h (2 Bft) N-NO 22 0,000 mm 0 W/m 6,6 C 8,3 C 16,1 km/h (3 Bft) 95,65 %
03.06.2023 03:34 9,8 C 8,3 C 18,9 C 81 % 1017,3 hPa 0,0 l/m 6,4 km/h (2 Bft) N-NO 22 0,000 mm 0 W/m 6,7 C 9,1 C 8,0 km/h (2 Bft) 95,65 %
03.06.2023 03:33 9,8 C 8,3 C 18,9 C 81 % 1017,2 hPa 0,0 l/m 4,8 km/h (1 Bft) N 360 0,000 mm 0 W/m 6,7 C 9,6 C 9,7 km/h (2 Bft) 95,65 %
03.06.2023 03:32 9,8 C 8,3 C 18,9 C 81 % 1017,2 hPa 0,0 l/m 3,2 km/h (1 Bft) SO 135 0,000 mm 0 W/m 6,7 C 9,8 C 6,4 km/h (2 Bft) 95,65 %
03.06.2023 03:31 9,9 C 8,3 C 18,9 C 82 % 1017,2 hPa 0,0 l/m 6,4 km/h (2 Bft) O 90 0,000 mm 0 W/m 7,0 C 9,3 C 11,3 km/h (2 Bft) 100,00 %
03.06.2023 03:30 9,9 C 8,3 C 18,9 C 81 % 1017,3 hPa 0,0 l/m 4,8 km/h (1 Bft) N-NO 22 0,000 mm 0 W/m 6,8 C 9,7 C 8,0 km/h (2 Bft) 95,65 %
03.06.2023 03:29 9,9 C 8,3 C 18,9 C 81 % 1017,2 hPa 0,0 l/m 3,2 km/h (1 Bft) O-NO 67 0,000 mm 0 W/m 6,8 C 9,9 C 4,8 km/h (1 Bft) 100,00 %
03.06.2023 03:28 9,9 C 8,3 C 18,9 C 82 % 1017,2 hPa 0,0 l/m 4,8 km/h (1 Bft) O 90 0,000 mm 0 W/m 7,0 C 9,7 C 12,9 km/h (3 Bft) 91,30 %
03.06.2023 03:27 9,9 C 8,3 C 18,9 C 81 % 1017,2 hPa 0,0 l/m 8,0 km/h (2 Bft) O 90 0,000 mm 0 W/m 6,8 C 8,9 C 12,9 km/h (3 Bft) 95,65 %
03.06.2023 03:26 9,9 C 8,3 C 18,9 C 81 % 1017,2 hPa 0,0 l/m 4,8 km/h (1 Bft) O 90 0,000 mm 0 W/m 6,8 C 9,7 C 11,3 km/h (2 Bft) 91,30 %
03.06.2023 03:25 10,0 C 8,3 C 18,9 C 81 % 1017,3 hPa 0,0 l/m 6,4 km/h (2 Bft) O 90 0,000 mm 0 W/m 6,9 C 9,4 C 14,5 km/h (3 Bft) 100,00 %
03.06.2023 03:24 10,1 C 8,9 C 18,9 C 81 % 1017,2 hPa 0,0 l/m 6,4 km/h (2 Bft) O 90 0,000 mm 0 W/m 7,0 C 10,1 C 12,9 km/h (3 Bft) 95,65 %
03.06.2023 03:23 10,1 C 8,9 C 18,9 C 81 % 1017,2 hPa 0,0 l/m 8,0 km/h (2 Bft) O-NO 67 0,000 mm 0 W/m 7,0 C 10,1 C 16,1 km/h (3 Bft) 95,65 %
03.06.2023 03:22 10,1 C 8,9 C 18,9 C 81 % 1017,2 hPa 0,0 l/m 8,0 km/h (2 Bft) O 90 0,000 mm 0 W/m 7,0 C 10,1 C 12,9 km/h (3 Bft) 100,00 %
03.06.2023 03:21 10,1 C 8,9 C 18,9 C 82 % 1017,2 hPa 0,0 l/m 8,0 km/h (2 Bft) NO 45 0,000 mm 0 W/m 7,2 C 10,1 C 16,1 km/h (3 Bft) 91,30 %
03.06.2023 03:20 10,2 C 8,9 C 18,9 C 82 % 1017,2 hPa 0,0 l/m 8,0 km/h (2 Bft) O-NO 67 0,000 mm 0 W/m 7,3 C 10,2 C 14,5 km/h (3 Bft) 95,65 %
03.06.2023 03:19 10,2 C 8,9 C 18,9 C 83 % 1017,2 hPa 0,0 l/m 8,0 km/h (2 Bft) O 90 0,000 mm 0 W/m 7,4 C 10,2 C 16,1 km/h (3 Bft) 100,00 %
03.06.2023 03:18 10,2 C 8,9 C 18,9 C 84 % 1017,1 hPa 0,0 l/m 9,7 km/h (2 Bft) O 90 0,000 mm 0 W/m 7,6 C 10,2 C 16,1 km/h (3 Bft) 100,00 %
03.06.2023 03:17 10,2 C 8,9 C 18,9 C 83 % 1017,1 hPa 0,0 l/m 9,7 km/h (2 Bft) O 90 0,000 mm 0 W/m 7,4 C 10,2 C 16,1 km/h (3 Bft) 95,65 %
03.06.2023 03:16 10,2 C 8,9 C 18,9 C 83 % 1017,2 hPa 0,0 l/m 9,7 km/h (2 Bft) O 90 0,000 mm 0 W/m 7,4 C 10,2 C 12,9 km/h (3 Bft) 100,00 %
03.06.2023 03:15 10,2 C 8,9 C 18,9 C 83 % 1017,1 hPa 0,0 l/m 9,7 km/h (2 Bft) O 90 0,000 mm 0 W/m 7,4 C 10,2 C 19,3 km/h (3 Bft) 95,65 %
03.06.2023 03:14 10,2 C 8,9 C 18,9 C 83 % 1017,2 hPa 0,0 l/m 8,0 km/h (2 Bft) O-NO 67 0,000 mm 0 W/m 7,4 C 10,2 C 16,1 km/h (3 Bft) 100,00 %
03.06.2023 03:13 10,2 C 8,9 C 18,9 C 83 % 1017,2 hPa 0,0 l/m 4,8 km/h (1 Bft) O 90 0,000 mm 0 W/m 7,4 C 10,2 C 22,5 km/h (4 Bft) 91,30 %
03.06.2023 03:12 10,2 C 8,9 C 18,9 C 83 % 1017,2 hPa 0,0 l/m 11,3 km/h (2 Bft) O 90 0,000 mm 0 W/m 7,4 C 10,2 C 22,5 km/h (4 Bft) 100,00 %
03.06.2023 03:11 10,2 C 8,9 C 18,9 C 82 % 1017,1 hPa 0,0 l/m 4,8 km/h (1 Bft) O-NO 67 0,000 mm 0 W/m 7,3 C 10,2 C 8,0 km/h (2 Bft) 100,00 %
03.06.2023 03:10 10,2 C 8,9 C 18,9 C 82 % 1017,2 hPa 0,0 l/m 9,7 km/h (2 Bft) O 90 0,000 mm 0 W/m 7,3 C 10,2 C 17,7 km/h (3 Bft) 100,00 %
03.06.2023 03:09 10,2 C 8,9 C 18,9 C 82 % 1017,1 hPa 0,0 l/m 6,4 km/h (2 Bft) O 90 0,000 mm 0 W/m 7,3 C 10,2 C 14,5 km/h (3 Bft) 100,00 %
03.06.2023 03:08 10,2 C 8,9 C 18,9 C 82 % 1017,2 hPa 0,0 l/m 6,4 km/h (2 Bft) O 90 0,000 mm 0 W/m 7,3 C 10,2 C 12,9 km/h (3 Bft) 100,00 %
03.06.2023 03:07 10,2 C 8,9 C 18,9 C 82 % 1017,1 hPa 0,0 l/m 1,6 km/h (1 Bft) N-NO 22 0,000 mm 0 W/m 7,3 C 10,2 C 4,8 km/h (1 Bft) 100,00 %
03.06.2023 03:06 10,2 C 8,9 C 18,9 C 82 % 1017,1 hPa 0,0 l/m 4,8 km/h (1 Bft) O-SO 112 0,000 mm 0 W/m 7,3 C 10,2 C 6,4 km/h (2 Bft) 95,65 %
03.06.2023 03:05 10,2 C 8,9 C 18,9 C 82 % 1017,1 hPa 0,0 l/m 8,0 km/h (2 Bft) O 90 0,000 mm 0 W/m 7,3 C 10,2 C 12,9 km/h (3 Bft) 100,00 %
03.06.2023 03:04 10,2 C 8,9 C 18,9 C 81 % 1017,1 hPa 0,0 l/m 11,3 km/h (2 Bft) O 90 0,000 mm 0 W/m 7,1 C 10,2 C 17,7 km/h (3 Bft) 100,00 %
03.06.2023 03:03 10,3 C 8,9 C 18,9 C 81 % 1017,1 hPa 0,0 l/m 9,7 km/h (2 Bft) O 90 0,000 mm 0 W/m 7,2 C 10,3 C 12,9 km/h (3 Bft) 100,00 %
03.06.2023 03:02 10,3 C 8,9 C 18,9 C 81 % 1017,1 hPa 0,0 l/m 4,8 km/h (1 Bft) O 90 0,000 mm 0 W/m 7,2 C 10,3 C 11,3 km/h (2 Bft) 100,00 %
03.06.2023 03:01 10,3 C 8,9 C 18,9 C 81 % 1017,1 hPa 0,0 l/m 6,4 km/h (2 Bft) SO 135 0,000 mm 0 W/m 7,2 C 10,3 C 16,1 km/h (3 Bft) 100,00 %
03.06.2023 03:00 10,3 C 8,9 C 18,9 C 81 % 1017,2 hPa 0,0 l/m 4,8 km/h (1 Bft) O-SO 112 0,000 mm 0 W/m 7,2 C 10,3 C 16,1 km/h (3 Bft) 100,00 %
03.06.2023 02:59 10,3 C 8,9 C 18,9 C 82 % 1017,2 hPa 0,0 l/m 3,2 km/h (1 Bft) O-SO 112 0,000 mm 0 W/m 7,4 C 10,3 C 4,8 km/h (1 Bft) 91,30 %
03.06.2023 02:58 10,3 C 8,9 C 18,9 C 82 % 1017,2 hPa 0,0 l/m 1,6 km/h (1 Bft) O 90 0,000 mm 0 W/m 7,4 C 10,3 C 3,2 km/h (1 Bft) 100,00 %
03.06.2023 02:57 10,3 C 8,9 C 18,9 C 82 % 1017,2 hPa 0,0 l/m 3,2 km/h (1 Bft) O 90 0,000 mm 0 W/m 7,4 C 10,3 C 4,8 km/h (1 Bft) 95,65 %
03.06.2023 02:56 10,3 C 8,9 C 18,9 C 82 % 1017,1 hPa 0,0 l/m 6,4 km/h (2 Bft) O-SO 112 0,000 mm 0 W/m 7,4 C 10,3 C 12,9 km/h (3 Bft) 100,00 %
03.06.2023 02:55 10,3 C 8,9 C 18,9 C 82 % 1017,1 hPa 0,0 l/m 6,4 km/h (2 Bft) O 90 0,000 mm 0 W/m 7,4 C 10,3 C 11,3 km/h (2 Bft) 100,00 %
03.06.2023 02:54 10,3 C 8,9 C 18,9 C 82 % 1017,1 hPa 0,0 l/m 11,3 km/h (2 Bft) O-SO 112 0,000 mm 0 W/m 7,4 C 10,3 C 14,5 km/h (3 Bft) 100,00 %
03.06.2023 02:53 10,3 C 8,9 C 18,9 C 82 % 1017,2 hPa 0,0 l/m 11,3 km/h (2 Bft) O 90 0,000 mm 0 W/m 7,4 C 10,3 C 17,7 km/h (3 Bft) 100,00 %
03.06.2023 02:52 10,3 C 8,9 C 18,9 C 82 % 1017,0 hPa 0,0 l/m 8,0 km/h (2 Bft) O 90 0,000 mm 0 W/m 7,4 C 10,3 C 16,1 km/h (3 Bft) 95,65 %
03.06.2023 02:51 10,3 C 8,9 C 18,9 C 82 % 1017,1 hPa 0,0 l/m 6,4 km/h (2 Bft) O-SO 112 0,000 mm 0 W/m 7,4 C 10,3 C 12,9 km/h (3 Bft) 100,00 %
03.06.2023 02:50 10,3 C 8,9 C 18,9 C 82 % 1017,1 hPa 0,0 l/m 3,2 km/h (1 Bft) O-SO 112 0,000 mm 0 W/m 7,4 C 10,3 C 6,4 km/h (2 Bft) 100,00 %
03.06.2023 02:49 10,3 C 8,9 C 18,9 C 82 % 1017,1 hPa 0,0 l/m 8,0 km/h (2 Bft) O-SO 112 0,000 mm 0 W/m 7,4 C 10,3 C 17,7 km/h (3 Bft) 100,00 %
03.06.2023 02:48 10,3 C 8,9 C 18,9 C 80 % 1017,3 hPa 0,0 l/m 6,4 km/h (2 Bft) O-NO 67 0,000 mm 0 W/m 7,0 C 10,3 C 16,1 km/h (3 Bft) 100,00 %
03.06.2023 02:47 10,3 C 8,9 C 18,9 C 81 % 1017,2 hPa 0,0 l/m 3,2 km/h (1 Bft) O-NO 67 0,000 mm 0 W/m 7,2 C 10,3 C 6,4 km/h (2 Bft) 100,00 %
03.06.2023 02:46 10,3 C 8,9 C 18,9 C 80 % 1017,2 hPa 0,0 l/m 8,0 km/h (2 Bft) O-SO 112 0,000 mm 0 W/m 7,0 C 10,3 C 12,9 km/h (3 Bft) 100,00 %
03.06.2023 02:45 10,3 C 8,9 C 18,9 C 80 % 1017,2 hPa 0,0 l/m 11,3 km/h (2 Bft) O-SO 112 0,000 mm 0 W/m 7,0 C 10,3 C 16,1 km/h (3 Bft) 95,65 %
03.06.2023 02:44 10,4 C 8,9 C 19,4 C 80 % 1017,2 hPa 0,0 l/m 8,0 km/h (2 Bft) O-NO 67 0,000 mm 0 W/m 7,1 C 10,4 C 17,7 km/h (3 Bft) 100,00 %
03.06.2023 02:43 10,4 C 8,9 C 19,4 C 81 % 1017,2 hPa 0,0 l/m 4,8 km/h (1 Bft) O-SO 112 0,000 mm 0 W/m 7,3 C 10,4 C 6,4 km/h (2 Bft) 100,00 %
03.06.2023 02:42 10,5 C 8,9 C 19,4 C 81 % 1017,2 hPa 0,0 l/m 3,2 km/h (1 Bft) O-NO 67 0,000 mm 0 W/m 7,4 C 10,5 C 9,7 km/h (2 Bft) 100,00 %
03.06.2023 02:41 10,5 C 8,9 C 19,4 C 81 % 1017,1 hPa 0,0 l/m 3,2 km/h (1 Bft) O-SO 112 0,000 mm 0 W/m 7,4 C 10,5 C 6,4 km/h (2 Bft) 100,00 %
03.06.2023 02:40 10,5 C 8,9 C 19,4 C 82 % 1017,1 hPa 0,0 l/m 11,3 km/h (2 Bft) O 90 0,000 mm 0 W/m 7,6 C 10,5 C 16,1 km/h (3 Bft) 100,00 %
03.06.2023 02:39 10,5 C 8,9 C 19,4 C 82 % 1017,1 hPa 0,0 l/m 4,8 km/h (1 Bft) NO 45 0,000 mm 0 W/m 7,6 C 10,5 C 12,9 km/h (3 Bft) 100,00 %
03.06.2023 02:38 10,5 C 8,9 C 19,4 C 81 % 1017,1 hPa 0,0 l/m 3,2 km/h (1 Bft) O-SO 112 0,000 mm 0 W/m 7,4 C 10,5 C 4,8 km/h (1 Bft) 95,65 %
03.06.2023 02:37 10,5 C 8,9 C 19,4 C 81 % 1017,2 hPa 0,0 l/m 3,2 km/h (1 Bft) SO 135 0,000 mm 0 W/m 7,4 C 10,5 C 4,8 km/h (1 Bft) 100,00 %
03.06.2023 02:36 10,5 C 8,9 C 19,4 C 81 % 1017,1 hPa 0,0 l/m 3,2 km/h (1 Bft) O-SO 112 0,000 mm 0 W/m 7,4 C 10,5 C 4,8 km/h (1 Bft) 100,00 %
03.06.2023 02:35 10,5 C 8,9 C 19,4 C 81 % 1017,1 hPa 0,0 l/m 4,8 km/h (1 Bft) O-NO 67 0,000 mm 0 W/m 7,4 C 10,5 C 6,4 km/h (2 Bft) 100,00 %
03.06.2023 02:34 10,6 C 8,9 C 19,4 C 81 % 1017,0 hPa 0,0 l/m 4,8 km/h (1 Bft) O-NO 67 0,000 mm 0 W/m 7,5 C 10,6 C 9,7 km/h (2 Bft) 100,00 %
03.06.2023 02:33 10,6 C 8,9 C 19,4 C 81 % 1017,1 hPa 0,0 l/m 4,8 km/h (1 Bft) O 90 0,000 mm 0 W/m 7,5 C 10,6 C 8,0 km/h (2 Bft) 95,65 %
03.06.2023 02:32 10,6 C 8,9 C 19,4 C 82 % 1017,1 hPa 0,0 l/m 6,4 km/h (2 Bft) O 90 0,000 mm 0 W/m 7,7 C 10,6 C 11,3 km/h (2 Bft) 100,00 %
03.06.2023 02:31 10,5 C 8,9 C 19,4 C 81 % 1017,1 hPa 0,0 l/m 6,4 km/h (2 Bft) O-SO 112 0,000 mm 0 W/m 7,4 C 10,5 C 12,9 km/h (3 Bft) 95,65 %
03.06.2023 02:30 10,6 C 8,9 C 19,4 C 82 % 1017,0 hPa 0,0 l/m 8,0 km/h (2 Bft) O-SO 112 0,000 mm 0 W/m 7,7 C 10,6 C 14,5 km/h (3 Bft) 100,00 %
03.06.2023 02:29 10,5 C 8,9 C 19,4 C 80 % 1017,0 hPa 0,0 l/m 4,8 km/h (1 Bft) O-NO 67 0,000 mm 0 W/m 7,2 C 10,5 C 8,0 km/h (2 Bft) 95,65 %
03.06.2023 02:28 10,5 C 8,9 C 19,4 C 80 % 1017,0 hPa 0,0 l/m 4,8 km/h (1 Bft) O-NO 67 0,000 mm 0 W/m 7,2 C 10,5 C 11,3 km/h (2 Bft) 95,65 %
03.06.2023 02:27 10,6 C 8,9 C 19,4 C 81 % 1017,0 hPa 0,0 l/m 9,7 km/h (2 Bft) O-SO 112 0,000 mm 0 W/m 7,5 C 10,6 C 16,1 km/h (3 Bft) 100,00 %
03.06.2023 02:26 10,6 C 8,9 C 19,4 C 80 % 1017,0 hPa 0,0 l/m 9,7 km/h (2 Bft) O 90 0,000 mm 0 W/m 7,3 C 10,6 C 16,1 km/h (3 Bft) 100,00 %
03.06.2023 02:25 10,6 C 8,9 C 19,4 C 81 % 1017,1 hPa 0,0 l/m 9,7 km/h (2 Bft) O 90 0,000 mm 0 W/m 7,5 C 10,6 C 14,5 km/h (3 Bft) 100,00 %
03.06.2023 02:24 10,6 C 8,9 C 19,4 C 80 % 1017,0 hPa 0,0 l/m 11,3 km/h (2 Bft) O-NO 67 0,000 mm 0 W/m 7,3 C 10,6 C 14,5 km/h (3 Bft) 95,65 %
03.06.2023 02:23 10,7 C 8,9 C 19,4 C 80 % 1017,1 hPa 0,0 l/m 6,4 km/h (2 Bft) O 90 0,000 mm 0 W/m 7,4 C 10,7 C 12,9 km/h (3 Bft) 100,00 %
03.06.2023 02:22 10,7 C 8,9 C 19,4 C 80 % 1017,1 hPa 0,0 l/m 12,9 km/h (3 Bft) O 90 0,000 mm 0 W/m 7,4 C 10,7 C 16,1 km/h (3 Bft) 100,00 %
03.06.2023 02:21 10,7 C 8,9 C 19,4 C 80 % 1017,1 hPa 0,0 l/m 8,0 km/h (2 Bft) O 90 0,000 mm 0 W/m 7,4 C 10,7 C 16,1 km/h (3 Bft) 95,65 %
03.06.2023 02:20 10,8 C 9,4 C 19,4 C 80 % 1017,1 hPa 0,0 l/m 4,8 km/h (1 Bft) O-NO 67 0,000 mm 0 W/m 7,5 C 10,8 C 9,7 km/h (2 Bft) 100,00 %
03.06.2023 02:19 10,8 C 9,4 C 19,4 C 80 % 1017,0 hPa 0,0 l/m 4,8 km/h (1 Bft) NO 45 0,000 mm 0 W/m 7,5 C 10,8 C 6,4 km/h (2 Bft) 100,00 %
03.06.2023 02:18 10,8 C 9,4 C 19,4 C 80 % 1017,0 hPa 0,0 l/m 4,8 km/h (1 Bft) O 90 0,000 mm 0 W/m 7,5 C 10,8 C 9,7 km/h (2 Bft) 100,00 %
03.06.2023 02:17 10,9 C 9,4 C 19,4 C 81 % 1017,1 hPa 0,0 l/m 6,4 km/h (2 Bft) O-NO 67 0,000 mm 0 W/m 7,8 C 10,9 C 9,7 km/h (2 Bft) 95,65 %
03.06.2023 02:16 10,9 C 9,4 C 19,4 C 80 % 1017,0 hPa 0,0 l/m 6,4 km/h (2 Bft) O 90 0,000 mm 0 W/m 7,6 C 10,9 C 12,9 km/h (3 Bft) 95,65 %
03.06.2023 02:15 10,9 C 9,4 C 19,4 C 81 % 1016,9 hPa 0,0 l/m 11,3 km/h (2 Bft) O 90 0,000 mm 0 W/m 7,8 C 10,9 C 16,1 km/h (3 Bft) 100,00 %
03.06.2023 02:14 10,9 C 9,4 C 19,4 C 82 % 1016,9 hPa 0,0 l/m 6,4 km/h (2 Bft) O-SO 112 0,000 mm 0 W/m 7,9 C 10,9 C 14,5 km/h (3 Bft) 100,00 %
03.06.2023 02:13 10,9 C 9,4 C 19,4 C 81 % 1017,0 hPa 0,0 l/m 6,4 km/h (2 Bft) O-SO 112 0,000 mm 0 W/m 7,8 C 10,9 C 9,7 km/h (2 Bft) 100,00 %
03.06.2023 02:12 10,9 C 9,4 C 19,4 C 81 % 1016,9 hPa 0,0 l/m 3,2 km/h (1 Bft) O-SO 112 0,000 mm 0 W/m 7,8 C 10,9 C 4,8 km/h (1 Bft) 100,00 %
03.06.2023 02:11 10,9 C 9,4 C 19,4 C 81 % 1017,0 hPa 0,0 l/m 3,2 km/h (1 Bft) N-NO 22 0,000 mm 0 W/m 7,8 C 10,9 C 4,8 km/h (1 Bft) 100,00 %
03.06.2023 02:10 10,9 C 9,4 C 19,4 C 80 % 1017,0 hPa 0,0 l/m 1,6 km/h (1 Bft) O-SO 112 0,000 mm 0 W/m 7,6 C 10,9 C 6,4 km/h (2 Bft) 95,65 %
03.06.2023 02:09 10,9 C 9,4 C 19,4 C 80 % 1017,0 hPa 0,0 l/m 3,2 km/h (1 Bft) O-SO 112 0,000 mm 0 W/m 7,6 C 10,9 C 4,8 km/h (1 Bft) 100,00 %
03.06.2023 02:08 10,9 C 9,4 C 19,4 C 79 % 1017,1 hPa 0,0 l/m 3,2 km/h (1 Bft) SO 135 0,000 mm 0 W/m 7,4 C 10,9 C 4,8 km/h (1 Bft) 100,00 %
03.06.2023 02:07 10,9 C 9,4 C 19,4 C 80 % 1017,1 hPa 0,0 l/m 4,8 km/h (1 Bft) O-SO 112 0,000 mm 0 W/m 7,6 C 10,9 C 6,4 km/h (2 Bft) 95,65 %
03.06.2023 02:06 11,0 C 9,4 C 19,4 C 79 % 1017,2 hPa 0,0 l/m 8,0 km/h (2 Bft) O-SO 112 0,000 mm 0 W/m 7,5 C 11,0 C 14,5 km/h (3 Bft) 100,00 %
03.06.2023 02:05 11,0 C 9,4 C 19,4 C 79 % 1017,1 hPa 0,0 l/m 4,8 km/h (1 Bft) O-SO 112 0,000 mm 0 W/m 7,5 C 11,0 C 9,7 km/h (2 Bft) 95,65 %
03.06.2023 02:04 11,0 C 9,4 C 19,4 C 80 % 1017,2 hPa 0,0 l/m 6,4 km/h (2 Bft) O 90 0,000 mm 0 W/m 7,7 C 11,0 C 14,5 km/h (3 Bft) 95,65 %
03.06.2023 02:03 11,1 C 9,4 C 19,4 C 80 % 1017,2 hPa 0,0 l/m 4,8 km/h (1 Bft) O 90 0,000 mm 0 W/m 7,8 C 11,1 C 6,4 km/h (2 Bft) 95,65 %
03.06.2023 02:02 11,1 C 9,4 C 19,4 C 80 % 1017,2 hPa 0,0 l/m 6,4 km/h (2 Bft) O 90 0,000 mm 0 W/m 7,8 C 11,1 C 9,7 km/h (2 Bft) 95,65 %
03.06.2023 02:01 11,1 C 9,4 C 19,4 C 79 % 1017,1 hPa 0,0 l/m 6,4 km/h (2 Bft) O-SO 112 0,000 mm 0 W/m 7,6 C 11,1 C 11,3 km/h (2 Bft) 95,65 %
03.06.2023 02:00 11,1 C 9,4 C 19,4 C 80 % 1017,2 hPa 0,0 l/m 6,4 km/h (2 Bft) O-NO 67 0,000 mm 0 W/m 7,8 C 11,1 C 11,3 km/h (2 Bft) 91,30 %
03.06.2023 01:59 11,1 C 9,4 C 19,4 C 80 % 1017,1 hPa 0,0 l/m 3,2 km/h (1 Bft) O 90 0,000 mm 0 W/m 7,8 C 11,1 C 9,7 km/h (2 Bft) 100,00 %
03.06.2023 01:58 11,1 C 9,4 C 19,4 C 80 % 1017,1 hPa 0,0 l/m 4,8 km/h (1 Bft) O 90 0,000 mm 0 W/m 7,8 C 11,1 C 9,7 km/h (2 Bft) 95,65 %
03.06.2023 01:57 11,1 C 9,4 C 19,4 C 78 % 1017,1 hPa 0,0 l/m 4,8 km/h (1 Bft) O 90 0,000 mm 0 W/m 7,4 C 11,1 C 9,7 km/h (2 Bft) 100,00 %
03.06.2023 01:56 11,2 C 9,4 C 19,4 C 80 % 1017,2 hPa 0,0 l/m 4,8 km/h (1 Bft) O 90 0,000 mm 0 W/m 7,9 C 11,2 C 8,0 km/h (2 Bft) 91,30 %
03.06.2023 01:55 11,2 C 9,4 C 19,4 C 80 % 1017,1 hPa 0,0 l/m 9,7 km/h (2 Bft) O 90 0,000 mm 0 W/m 7,9 C 11,2 C 16,1 km/h (3 Bft) 100,00 %
03.06.2023 01:54 11,3 C 9,4 C 19,4 C 79 % 1017,1 hPa 0,0 l/m 3,2 km/h (1 Bft) O 90 0,000 mm 0 W/m 7,8 C 11,3 C 4,8 km/h (1 Bft) 95,65 %
03.06.2023 01:53 11,3 C 9,4 C 19,4 C 80 % 1017,1 hPa 0,0 l/m 4,8 km/h (1 Bft) O 90 0,000 mm 0 W/m 8,0 C 11,3 C 8,0 km/h (2 Bft) 100,00 %
03.06.2023 01:52 11,3 C 9,4 C 19,4 C 79 % 1017,0 hPa 0,0 l/m 6,4 km/h (2 Bft) SO 135 0,000 mm 0 W/m 7,8 C 11,3 C 11,3 km/h (2 Bft) 95,65 %
03.06.2023 01:51 11,3 C 9,4 C 19,4 C 80 % 1017,0 hPa 0,0 l/m 6,4 km/h (2 Bft) O 90 0,000 mm 0 W/m 8,0 C 11,3 C 11,3 km/h (2 Bft) 100,00 %
03.06.2023 01:50 11,3 C 9,4 C 19,4 C 80 % 1017,1 hPa 0,0 l/m 1,6 km/h (1 Bft) O-SO 112 0,000 mm 0 W/m 8,0 C 11,3 C 3,2 km/h (1 Bft) 95,65 %
03.06.2023 01:49 11,3 C 9,4 C 19,4 C 79 % 1017,1 hPa 0,0 l/m 3,2 km/h (1 Bft) O-SO 112 0,000 mm 0 W/m 7,8 C 11,3 C 9,7 km/h (2 Bft) 91,30 %
03.06.2023 01:48 11,3 C 9,4 C 19,4 C 80 % 1017,1 hPa 0,0 l/m 4,8 km/h (1 Bft) O-SO 112 0,000 mm 0 W/m 8,0 C 11,3 C 6,4 km/h (2 Bft) 95,65 %
03.06.2023 01:47 11,3 C 9,4 C 19,4 C 79 % 1017,2 hPa 0,0 l/m 4,8 km/h (1 Bft) O 90 0,000 mm 0 W/m 7,8 C 11,3 C 12,9 km/h (3 Bft) 95,65 %
03.06.2023 01:46 11,3 C 9,4 C 19,4 C 79 % 1017,1 hPa 0,0 l/m 0,0 km/h (0 Bft) O-SO 112 0,000 mm 0 W/m 7,8 C 11,3 C 1,6 km/h (1 Bft) 100,00 %
03.06.2023 01:45 11,3 C 9,4 C 20,0 C 80 % 1017,1 hPa 0,0 l/m 1,6 km/h (1 Bft) O-SO 112 0,000 mm 0 W/m 8,0 C 11,3 C 3,2 km/h (1 Bft) 91,30 %
03.06.2023 01:44 11,3 C 9,4 C 20,0 C 79 % 1017,1 hPa 0,0 l/m 1,6 km/h (1 Bft) O 90 0,000 mm 0 W/m 7,8 C 11,3 C 3,2 km/h (1 Bft) 100,00 %
03.06.2023 01:43 11,3 C 9,4 C 20,0 C 79 % 1017,1 hPa 0,0 l/m 1,6 km/h (1 Bft) O 90 0,000 mm 0 W/m 7,8 C 11,3 C 6,4 km/h (2 Bft) 95,65 %
03.06.2023 01:42 11,3 C 9,4 C 20,0 C 80 % 1017,1 hPa 0,0 l/m 4,8 km/h (1 Bft) SO 135 0,000 mm 0 W/m 8,0 C 11,3 C 6,4 km/h (2 Bft) 95,65 %
03.06.2023 01:41 11,3 C 9,4 C 20,0 C 79 % 1017,1 hPa 0,0 l/m 3,2 km/h (1 Bft) O-SO 112 0,000 mm 0 W/m 7,8 C 11,3 C 4,8 km/h (1 Bft) 100,00 %
03.06.2023 01:40 11,3 C 9,4 C 20,0 C 79 % 1017,1 hPa 0,0 l/m 6,4 km/h (2 Bft) O 90 0,000 mm 0 W/m 7,8 C 11,3 C 14,5 km/h (3 Bft) 100,00 %
03.06.2023 01:39 11,3 C 9,4 C 20,0 C 78 % 1017,1 hPa 0,0 l/m 4,8 km/h (1 Bft) O-NO 67 0,000 mm 0 W/m 7,6 C 11,3 C 6,4 km/h (2 Bft) 95,65 %
03.06.2023 01:38 11,4 C 9,4 C 20,0 C 79 % 1017,0 hPa 0,0 l/m 1,6 km/h (1 Bft) O-SO 112 0,000 mm 0 W/m 7,9 C 11,4 C 4,8 km/h (1 Bft) 95,65 %
03.06.2023 01:37 11,4 C 9,4 C 20,0 C 78 % 1017,1 hPa 0,0 l/m 6,4 km/h (2 Bft) O-SO 112 0,000 mm 0 W/m 7,7 C 11,4 C 9,7 km/h (2 Bft) 95,65 %
03.06.2023 01:36 11,4 C 9,4 C 20,0 C 79 % 1017,1 hPa 0,0 l/m 8,0 km/h (2 Bft) O-NO 67 0,000 mm 0 W/m 7,9 C 11,4 C 12,9 km/h (3 Bft) 100,00 %
03.06.2023 01:35 11,4 C 9,4 C 20,0 C 78 % 1017,1 hPa 0,0 l/m 9,7 km/h (2 Bft) O 90 0,000 mm 0 W/m 7,7 C 11,4 C 11,3 km/h (2 Bft) 95,65 %
03.06.2023 01:34 11,4 C 9,4 C 20,0 C 78 % 1017,2 hPa 0,0 l/m 9,7 km/h (2 Bft) O 90 0,000 mm 0 W/m 7,7 C 11,4 C 17,7 km/h (3 Bft) 100,00 %
03.06.2023 01:33 11,5 C 9,4 C 20,0 C 79 % 1017,2 hPa 0,0 l/m 6,4 km/h (2 Bft) O-NO 67 0,000 mm 0 W/m 8,0 C 11,5 C 14,5 km/h (3 Bft) 100,00 %
03.06.2023 01:32 11,5 C 9,4 C 20,0 C 78 % 1017,2 hPa 0,0 l/m 4,8 km/h (1 Bft) O-SO 112 0,000 mm 0 W/m 7,8 C 11,5 C 6,4 km/h (2 Bft) 100,00 %
03.06.2023 01:31 11,5 C 9,4 C 20,0 C 78 % 1017,2 hPa 0,0 l/m 3,2 km/h (1 Bft) O 90 0,000 mm 0 W/m 7,8 C 11,5 C 9,7 km/h (2 Bft) 100,00 %
03.06.2023 01:30 11,5 C 9,4 C 20,0 C 79 % 1017,3 hPa 0,0 l/m 6,4 km/h (2 Bft) O 90 0,000 mm 0 W/m 8,0 C 11,5 C 11,3 km/h (2 Bft) 100,00 %
03.06.2023 01:29 11,5 C 9,4 C 20,0 C 78 % 1017,2 hPa 0,0 l/m 6,4 km/h (2 Bft) O 90 0,000 mm 0 W/m 7,8 C 11,5 C 11,3 km/h (2 Bft) 100,00 %
03.06.2023 01:28 11,5 C 9,4 C 20,0 C 77 % 1017,2 hPa 0,0 l/m 3,2 km/h (1 Bft) SO 135 0,000 mm 0 W/m 7,6 C 11,5 C 4,8 km/h (1 Bft) 95,65 %
03.06.2023 01:27 11,6 C 9,4 C 20,0 C 79 % 1017,0 hPa 0,0 l/m 3,2 km/h (1 Bft) O-SO 112 0,000 mm 0 W/m 8,1 C 11,6 C 9,7 km/h (2 Bft) 100,00 %
03.06.2023 01:26 11,6 C 9,4 C 20,0 C 78 % 1017,1 hPa 0,0 l/m 6,4 km/h (2 Bft) O 90 0,000 mm 0 W/m 7,9 C 11,6 C 11,3 km/h (2 Bft) 95,65 %
03.06.2023 01:25 11,6 C 9,4 C 20,0 C 78 % 1017,0 hPa 0,0 l/m 8,0 km/h (2 Bft) O 90 0,000 mm 0 W/m 7,9 C 11,6 C 17,7 km/h (3 Bft) 100,00 %
03.06.2023 01:24 11,6 C 9,4 C 20,0 C 78 % 1017,1 hPa 0,0 l/m 9,7 km/h (2 Bft) O 90 0,000 mm 0 W/m 7,9 C 11,6 C 12,9 km/h (3 Bft) 100,00 %
03.06.2023 01:23 11,6 C 9,4 C 20,0 C 79 % 1017,1 hPa 0,0 l/m 4,8 km/h (1 Bft) O-SO 112 0,000 mm 0 W/m 8,1 C 11,6 C 11,3 km/h (2 Bft) 95,65 %
03.06.2023 01:22 11,6 C 9,4 C 20,0 C 79 % 1017,0 hPa 0,0 l/m 8,0 km/h (2 Bft) O-SO 112 0,000 mm 0 W/m 8,1 C 11,6 C 12,9 km/h (3 Bft) 95,65 %
03.06.2023 01:21 11,6 C 9,4 C 20,0 C 78 % 1017,0 hPa 0,0 l/m 6,4 km/h (2 Bft) O 90 0,000 mm 0 W/m 7,9 C 11,6 C 14,5 km/h (3 Bft) 95,65 %
03.06.2023 01:20 11,6 C 9,4 C 20,0 C 77 % 1017,1 hPa 0,0 l/m 11,3 km/h (2 Bft) O-SO 112 0,000 mm 0 W/m 7,7 C 11,6 C 16,1 km/h (3 Bft) 100,00 %
03.06.2023 01:19 11,7 C 9,4 C 20,0 C 77 % 1017,1 hPa 0,0 l/m 8,0 km/h (2 Bft) O-SO 112 0,000 mm 0 W/m 7,8 C 11,7 C 14,5 km/h (3 Bft) 100,00 %
03.06.2023 01:18 11,7 C 9,4 C 20,0 C 78 % 1017,1 hPa 0,0 l/m 11,3 km/h (2 Bft) O-NO 67 0,000 mm 0 W/m 8,0 C 11,7 C 16,1 km/h (3 Bft) 100,00 %
03.06.2023 01:17 11,7 C 10,0 C 20,0 C 78 % 1017,1 hPa 0,0 l/m 12,9 km/h (3 Bft) O 90 0,000 mm 0 W/m 8,0 C 11,7 C 20,9 km/h (4 Bft) 100,00 %
03.06.2023 01:16 11,7 C 10,0 C 20,0 C 79 % 1017,1 hPa 0,0 l/m 8,0 km/h (2 Bft) O 90 0,000 mm 0 W/m 8,2 C 11,7 C 14,5 km/h (3 Bft) 100,00 %
03.06.2023 01:15 11,7 C 10,0 C 20,0 C 78 % 1017,1 hPa 0,0 l/m 6,4 km/h (2 Bft) O 90 0,000 mm 0 W/m 8,0 C 11,7 C 11,3 km/h (2 Bft) 100,00 %
03.06.2023 01:14 11,6 C 10,0 C 20,0 C 78 % 1017,1 hPa 0,0 l/m 6,4 km/h (2 Bft) SO 135 0,000 mm 0 W/m 7,9 C 11,6 C 14,5 km/h (3 Bft) 95,65 %
03.06.2023 01:13 11,7 C 10,0 C 20,0 C 78 % 1017,0 hPa 0,0 l/m 6,4 km/h (2 Bft) O 90 0,000 mm 0 W/m 8,0 C 11,7 C 14,5 km/h (3 Bft) 100,00 %
03.06.2023 01:12 11,6 C 10,0 C 20,0 C 78 % 1017,1 hPa 0,0 l/m 6,4 km/h (2 Bft) O-SO 112 0,000 mm 0 W/m 7,9 C 11,6 C 11,3 km/h (2 Bft) 100,00 %
03.06.2023 01:11 11,6 C 10,0 C 20,0 C 77 % 1017,1 hPa 0,0 l/m 4,8 km/h (1 Bft) O-SO 112 0,000 mm 0 W/m 7,7 C 11,6 C 9,7 km/h (2 Bft) 100,00 %
03.06.2023 01:10 11,7 C 10,0 C 20,0 C 78 % 1017,1 hPa 0,0 l/m 4,8 km/h (1 Bft) O 90 0,000 mm 0 W/m 8,0 C 11,7 C 9,7 km/h (2 Bft) 95,65 %
03.06.2023 01:09 11,7 C 10,0 C 20,0 C 77 % 1017,1 hPa 0,0 l/m 6,4 km/h (2 Bft) O-SO 112 0,000 mm 0 W/m 7,8 C 11,7 C 11,3 km/h (2 Bft) 100,00 %
03.06.2023 01:08 11,7 C 10,0 C 20,0 C 77 % 1017,1 hPa 0,0 l/m 4,8 km/h (1 Bft) SO 135 0,000 mm 0 W/m 7,8 C 11,7 C 9,7 km/h (2 Bft) 100,00 %
03.06.2023 01:07 11,7 C 9,4 C 20,0 C 77 % 1017,1 hPa 0,0 l/m 6,4 km/h (2 Bft) O 90 0,000 mm 0 W/m 7,8 C 11,7 C 12,9 km/h (3 Bft) 91,30 %
03.06.2023 01:06 11,7 C 9,4 C 20,0 C 76 % 1017,0 hPa 0,0 l/m 8,0 km/h (2 Bft) O 90 0,000 mm 0 W/m 7,6 C 11,7 C 14,5 km/h (3 Bft) 100,00 %
03.06.2023 01:05 11,7 C 9,4 C 20,0 C 77 % 1017,0 hPa 0,0 l/m 4,8 km/h (1 Bft) O 90 0,000 mm 0 W/m 7,8 C 11,7 C 9,7 km/h (2 Bft) 100,00 %
03.06.2023 01:04 11,7 C 9,4 C 20,0 C 77 % 1017,0 hPa 0,0 l/m 3,2 km/h (1 Bft) O-SO 112 0,000 mm 0 W/m 7,8 C 11,7 C 6,4 km/h (2 Bft) 100,00 %
03.06.2023 01:03 11,7 C 9,4 C 20,0 C 78 % 1017,0 hPa 0,0 l/m 3,2 km/h (1 Bft) O-SO 112 0,000 mm 0 W/m 8,0 C 11,7 C 6,4 km/h (2 Bft) 100,00 %
03.06.2023 01:02 11,7 C 9,4 C 20,0 C 77 % 1016,9 hPa 0,0 l/m 4,8 km/h (1 Bft) O-SO 112 0,000 mm 0 W/m 7,8 C 11,7 C 8,0 km/h (2 Bft) 100,00 %
03.06.2023 01:01 11,7 C 9,4 C 20,0 C 78 % 1017,0 hPa 0,0 l/m 1,6 km/h (1 Bft) NO 45 0,000 mm 0 W/m 8,0 C 11,7 C 6,4 km/h (2 Bft) 95,65 %
03.06.2023 01:00 11,7 C 9,4 C 20,0 C 78 % 1016,9 hPa 0,0 l/m 8,0 km/h (2 Bft) N-NO 22 0,000 mm 0 W/m 8,0 C 11,7 C 17,7 km/h (3 Bft) 100,00 %
03.06.2023 00:59 11,7 C 9,4 C 20,0 C 78 % 1016,9 hPa 0,0 l/m 8,0 km/h (2 Bft) O 90 0,000 mm 0 W/m 8,0 C 11,7 C 11,3 km/h (2 Bft) 95,65 %
03.06.2023 00:58 11,7 C 9,4 C 20,0 C 78 % 1017,0 hPa 0,0 l/m 4,8 km/h (1 Bft) O 90 0,000 mm 0 W/m 8,0 C 11,7 C 8,0 km/h (2 Bft) 100,00 %
03.06.2023 00:57 11,7 C 9,4 C 20,0 C 78 % 1017,0 hPa 0,0 l/m 8,0 km/h (2 Bft) O-SO 112 0,000 mm 0 W/m 8,0 C 11,7 C 11,3 km/h (2 Bft) 100,00 %
03.06.2023 00:56 11,7 C 9,4 C 20,0 C 78 % 1017,0 hPa 0,0 l/m 8,0 km/h (2 Bft) O 90 0,000 mm 0 W/m 8,0 C 11,7 C 12,9 km/h (3 Bft) 100,00 %
03.06.2023 00:55 11,7 C 9,4 C 20,0 C 80 % 1016,9 hPa 0,0 l/m 8,0 km/h (2 Bft) SO 135 0,000 mm 0 W/m 8,4 C 11,7 C 9,7 km/h (2 Bft) 100,00 %
03.06.2023 00:54 11,7 C 10,0 C 20,0 C 79 % 1016,9 hPa 0,0 l/m 6,4 km/h (2 Bft) O 90 0,000 mm 0 W/m 8,2 C 11,7 C 11,3 km/h (2 Bft) 95,65 %
03.06.2023 00:53 11,7 C 9,4 C 20,0 C 79 % 1017,0 hPa 0,0 l/m 8,0 km/h (2 Bft) O 90 0,000 mm 0 W/m 8,2 C 11,7 C 16,1 km/h (3 Bft) 95,65 %
03.06.2023 00:52 11,6 C 9,4 C 20,0 C 79 % 1016,9 hPa 0,0 l/m 6,4 km/h (2 Bft) O 90 0,000 mm 0 W/m 8,1 C 11,6 C 11,3 km/h (2 Bft) 100,00 %
03.06.2023 00:51 11,6 C 9,4 C 20,0 C 78 % 1017,0 hPa 0,0 l/m 4,8 km/h (1 Bft) O-SO 112 0,000 mm 0 W/m 7,9 C 11,6 C 8,0 km/h (2 Bft) 100,00 %
03.06.2023 00:50 11,6 C 9,4 C 20,0 C 79 % 1016,9 hPa 0,0 l/m 4,8 km/h (1 Bft) O 90 0,000 mm 0 W/m 8,1 C 11,6 C 8,0 km/h (2 Bft) 100,00 %
03.06.2023 00:49 11,5 C 9,4 C 20,0 C 80 % 1016,9 hPa 0,0 l/m 6,4 km/h (2 Bft) O-SO 112 0,000 mm 0 W/m 8,2 C 11,5 C 6,4 km/h (2 Bft) 91,30 %
03.06.2023 00:48 11,4 C 9,4 C 20,0 C 79 % 1017,0 hPa 0,0 l/m 9,7 km/h (2 Bft) O 90 0,000 mm 0 W/m 7,9 C 11,4 C 14,5 km/h (3 Bft) 100,00 %
03.06.2023 00:47 11,3 C 9,4 C 20,0 C 80 % 1016,9 hPa 0,0 l/m 8,0 km/h (2 Bft) O 90 0,000 mm 0 W/m 8,0 C 11,3 C 16,1 km/h (3 Bft) 100,00 %
03.06.2023 00:46 11,3 C 9,4 C 20,0 C 80 % 1017,0 hPa 0,0 l/m 6,4 km/h (2 Bft) SO 135 0,000 mm 0 W/m 8,0 C 11,3 C 12,9 km/h (3 Bft) 100,00 %
03.06.2023 00:45 11,2 C 9,4 C 20,0 C 79 % 1016,9 hPa 0,0 l/m 6,4 km/h (2 Bft) O-NO 67 0,000 mm 0 W/m 7,7 C 11,2 C 20,9 km/h (4 Bft) 95,65 %
03.06.2023 00:44 11,2 C 9,4 C 20,0 C 79 % 1016,9 hPa 0,0 l/m 8,0 km/h (2 Bft) O 90 0,000 mm 0 W/m 7,7 C 11,2 C 14,5 km/h (3 Bft) 95,65 %
03.06.2023 00:43 11,1 C 10,0 C 20,0 C 79 % 1016,9 hPa 0,0 l/m 12,9 km/h (3 Bft) O 90 0,000 mm 0 W/m 7,6 C 11,1 C 20,9 km/h (4 Bft) 100,00 %
03.06.2023 00:42 11,0 C 10,0 C 20,0 C 79 % 1016,9 hPa 0,0 l/m 9,7 km/h (2 Bft) O-NO 67 0,000 mm 0 W/m 7,5 C 11,0 C 17,7 km/h (3 Bft) 95,65 %
03.06.2023 00:41 11,0 C 10,0 C 20,0 C 79 % 1016,9 hPa 0,0 l/m 6,4 km/h (2 Bft) O 90 0,000 mm 0 W/m 7,5 C 11,0 C 12,9 km/h (3 Bft) 100,00 %
03.06.2023 00:40 10,9 C 10,0 C 20,0 C 80 % 1016,9 hPa 0,0 l/m 6,4 km/h (2 Bft) O-NO 67 0,000 mm 0 W/m 7,6 C 10,9 C 14,5 km/h (3 Bft) 100,00 %
03.06.2023 00:39 10,9 C 10,0 C 20,0 C 79 % 1016,9 hPa 0,0 l/m 6,4 km/h (2 Bft) O 90 0,000 mm 0 W/m 7,4 C 10,9 C 14,5 km/h (3 Bft) 95,65 %
03.06.2023 00:38 11,0 C 9,4 C 20,6 C 77 % 1016,9 hPa 0,0 l/m 3,2 km/h (1 Bft) O 90 0,000 mm 0 W/m 7,1 C 11,0 C 4,8 km/h (1 Bft) 95,65 %
03.06.2023 00:37 11,1 C 9,4 C 20,6 C 77 % 1016,9 hPa 0,0 l/m 0,0 km/h (0 Bft) N 0 0,000 mm 0 W/m 7,2 C 11,1 C 0,0 km/h (0 Bft) 95,65 %
03.06.2023 00:36 11,2 C 9,4 C 20,6 C 77 % 1016,9 hPa 0,0 l/m 0,0 km/h (0 Bft) W-NW 292 0,000 mm 0 W/m 7,3 C 11,2 C 1,6 km/h (1 Bft) 95,65 %
03.06.2023 00:35 11,2 C 9,4 C 20,6 C 76 % 1016,8 hPa 0,0 l/m 0,0 km/h (0 Bft) W-NW 292 0,000 mm 0 W/m 7,1 C 11,2 C 1,6 km/h (1 Bft) 95,65 %
03.06.2023 00:34 11,2 C 9,4 C 20,6 C 77 % 1016,9 hPa 0,0 l/m 0,0 km/h (0 Bft) W-NW 292 0,000 mm 0 W/m 7,3 C 11,2 C 1,6 km/h (1 Bft) 95,65 %
03.06.2023 00:33 11,2 C 9,4 C 20,6 C 77 % 1016,8 hPa 0,0 l/m 0,0 km/h (0 Bft) N 0 0,000 mm 0 W/m 7,3 C 11,2 C 0,0 km/h (0 Bft) 95,65 %
03.06.2023 00:32 11,3 C 9,4 C 20,6 C 77 % 1016,8 hPa 0,0 l/m 0,0 km/h (0 Bft) N 0 0,000 mm 0 W/m 7,4 C 11,3 C 0,0 km/h (0 Bft) 100,00 %
03.06.2023 00:31 11,3 C 9,4 C 20,6 C 76 % 1016,9 hPa 0,0 l/m 0,0 km/h (0 Bft) N 0 0,000 mm 0 W/m 7,2 C 11,3 C 0,0 km/h (0 Bft) 86,96 %
03.06.2023 00:30 11,3 C 9,4 C 20,6 C 76 % 1016,9 hPa 0,0 l/m 0,0 km/h (0 Bft) N 0 0,000 mm 0 W/m 7,2 C 11,3 C 0,0 km/h (0 Bft) 95,65 %
03.06.2023 00:29 11,3 C 9,4 C 20,6 C 76 % 1016,8 hPa 0,0 l/m 0,0 km/h (0 Bft) N 0 0,000 mm 0 W/m 7,2 C 11,3 C 0,0 km/h (0 Bft) 95,65 %
03.06.2023 00:28 11,3 C 9,4 C 20,6 C 77 % 1016,9 hPa 0,0 l/m 0,0 km/h (0 Bft) N 0 0,000 mm 0 W/m 7,4 C 11,3 C 0,0 km/h (0 Bft) 95,65 %
03.06.2023 00:27 11,3 C 9,4 C 20,6 C 77 % 1016,8 hPa 0,0 l/m 0,0 km/h (0 Bft) N 0 0,000 mm 0 W/m 7,4 C 11,3 C 0,0 km/h (0 Bft) 100,00 %
03.06.2023 00:26 11,3 C 9,4 C 20,6 C 76 % 1016,8 hPa 0,0 l/m 0,0 km/h (0 Bft) N 0 0,000 mm 0 W/m 7,2 C 11,3 C 0,0 km/h (0 Bft) 91,30 %
03.06.2023 00:25 11,3 C 9,4 C 20,6 C 75 % 1016,8 hPa 0,0 l/m 0,0 km/h (0 Bft) N 0 0,000 mm 0 W/m 7,0 C 11,3 C 0,0 km/h (0 Bft) 100,00 %
03.06.2023 00:24 11,3 C 9,4 C 20,6 C 76 % 1016,7 hPa 0,0 l/m 0,0 km/h (0 Bft) N 0 0,000 mm 0 W/m 7,2 C 11,3 C 0,0 km/h (0 Bft) 86,96 %
03.06.2023 00:23 11,3 C 9,4 C 20,6 C 76 % 1016,9 hPa 0,0 l/m 0,0 km/h (0 Bft) N 0 0,000 mm 0 W/m 7,2 C 11,3 C 0,0 km/h (0 Bft) 100,00 %
03.06.2023 00:22 11,3 C 9,4 C 20,6 C 76 % 1016,7 hPa 0,0 l/m 0,0 km/h (0 Bft) N 0 0,000 mm 0 W/m 7,2 C 11,3 C 0,0 km/h (0 Bft) 91,30 %
03.06.2023 00:21 11,3 C 10,0 C 20,6 C 76 % 1016,8 hPa 0,0 l/m 0,0 km/h (0 Bft) N 0 0,000 mm 0 W/m 7,2 C 11,3 C 0,0 km/h (0 Bft) 100,00 %
03.06.2023 00:20 11,3 C 10,0 C 20,6 C 75 % 1016,8 hPa 0,0 l/m 0,0 km/h (0 Bft) N 0 0,000 mm 0 W/m 7,0 C 11,3 C 0,0 km/h (0 Bft) 95,65 %
03.06.2023 00:19 11,4 C 10,0 C 20,6 C 76 % 1016,8 hPa 0,0 l/m 0,0 km/h (0 Bft) W-NW 292 0,000 mm 0 W/m 7,3 C 11,4 C 1,6 km/h (1 Bft) 100,00 %
03.06.2023 00:18 11,3 C 10,0 C 20,6 C 76 % 1016,7 hPa 0,0 l/m 1,6 km/h (1 Bft) W-NW 292 0,000 mm 0 W/m 7,2 C 11,3 C 3,2 km/h (1 Bft) 91,30 %
03.06.2023 00:17 11,4 C 10,0 C 20,6 C 76 % 1016,8 hPa 0,0 l/m 0,0 km/h (0 Bft) N 360 0,000 mm 0 W/m 7,3 C 11,4 C 1,6 km/h (1 Bft) 91,30 %
03.06.2023 00:16 11,3 C 10,0 C 20,6 C 75 % 1016,7 hPa 0,0 l/m 0,0 km/h (0 Bft) N 360 0,000 mm 0 W/m 7,0 C 11,3 C 8,0 km/h (2 Bft) 95,65 %
03.06.2023 00:15 11,3 C 10,0 C 20,6 C 76 % 1016,7 hPa 0,0 l/m 4,8 km/h (1 Bft) NO 45 0,000 mm 0 W/m 7,2 C 11,3 C 8,0 km/h (2 Bft) 95,65 %
03.06.2023 00:14 11,3 C 10,0 C 20,6 C 76 % 1016,7 hPa 0,0 l/m 1,6 km/h (1 Bft) NO 45 0,000 mm 0 W/m 7,2 C 11,3 C 6,4 km/h (2 Bft) 95,65 %
03.06.2023 00:13 11,3 C 10,0 C 20,6 C 75 % 1016,7 hPa 0,0 l/m 1,6 km/h (1 Bft) N-NO 22 0,000 mm 0 W/m 7,0 C 11,3 C 4,8 km/h (1 Bft) 100,00 %
03.06.2023 00:12 11,3 C 10,0 C 20,6 C 75 % 1016,7 hPa 0,0 l/m 3,2 km/h (1 Bft) N-NW 337 0,000 mm 0 W/m 7,0 C 11,3 C 6,4 km/h (2 Bft) 95,65 %
03.06.2023 00:11 11,3 C 10,0 C 20,6 C 75 % 1016,8 hPa 0,0 l/m 3,2 km/h (1 Bft) N-NW 337 0,000 mm 0 W/m 7,0 C 11,3 C 3,2 km/h (1 Bft) 100,00 %
03.06.2023 00:10 11,3 C 10,0 C 20,6 C 75 % 1016,8 hPa 0,0 l/m 1,6 km/h (1 Bft) N-NO 22 0,000 mm 0 W/m 7,0 C 11,3 C 3,2 km/h (1 Bft) 91,30 %
03.06.2023 00:09 11,3 C 10,0 C 20,6 C 75 % 1016,9 hPa 0,0 l/m 1,6 km/h (1 Bft) N 360 0,000 mm 0 W/m 7,0 C 11,3 C 3,2 km/h (1 Bft) 100,00 %
03.06.2023 00:08 11,4 C 10,0 C 20,6 C 74 % 1016,8 hPa 0,0 l/m 0,0 km/h (0 Bft) N 360 0,000 mm 0 W/m 6,9 C 11,4 C 1,6 km/h (1 Bft) 95,65 %
03.06.2023 00:07 11,4 C 10,0 C 20,6 C 74 % 1016,7 hPa 0,0 l/m 0,0 km/h (0 Bft) N 0 0,000 mm 0 W/m 6,9 C 11,4 C 0,0 km/h (0 Bft) 95,65 %
03.06.2023 00:06 11,4 C 10,0 C 20,6 C 74 % 1016,7 hPa 0,0 l/m 1,6 km/h (1 Bft) N 360 0,000 mm 0 W/m 6,9 C 11,4 C 3,2 km/h (1 Bft) 95,65 %
03.06.2023 00:05 11,4 C 10,0 C 20,6 C 74 % 1016,7 hPa 0,0 l/m 1,6 km/h (1 Bft) NW 315 0,000 mm 0 W/m 6,9 C 11,4 C 3,2 km/h (1 Bft) 100,00 %
03.06.2023 00:04 11,4 C 10,0 C 20,6 C 75 % 1016,8 hPa 0,0 l/m 1,6 km/h (1 Bft) NW 315 0,000 mm 0 W/m 7,1 C 11,4 C 3,2 km/h (1 Bft) 100,00 %
03.06.2023 00:03 11,4 C 10,6 C 20,6 C 74 % 1016,9 hPa 0,0 l/m 1,6 km/h (1 Bft) N-NW 337 0,000 mm 0 W/m 6,9 C 11,4 C 3,2 km/h (1 Bft) 95,65 %
03.06.2023 00:02 11,6 C 10,6 C 20,6 C 74 % 1016,7 hPa 0,0 l/m 0,0 km/h (0 Bft) N-NW 337 0,000 mm 0 W/m 7,1 C 11,6 C 1,6 km/h (1 Bft) 95,65 %
03.06.2023 00:01 11,6 C 10,6 C 20,6 C 74 % 1016,7 hPa 0,0 l/m 1,6 km/h (1 Bft) NW 315 0,000 mm 0 W/m 7,1 C 11,6 C 3,2 km/h (1 Bft) 91,30 %
03.06.2023 00:00 11,6 C 10,6 C 20,6 C 74 % 1016,8 hPa 0,0 l/m 0,0 km/h (0 Bft) NW 315 0,000 mm 0 W/m 7,1 C 11,6 C 1,6 km/h (1 Bft) 100,00 %
02.06.2023 23:59 11,6 C 10,6 C 20,6 C 73 % 1016,8 hPa 0,0 l/m 1,6 km/h (1 Bft) N-NW 337 0,000 mm 0 W/m 6,9 C 11,6 C 3,2 km/h (1 Bft) 100,00 %
02.06.2023 23:58 11,5 C 10,6 C 20,6 C 73 % 1016,8 hPa 0,0 l/m 1,6 km/h (1 Bft) N-NW 337 0,000 mm 0 W/m 6,8 C 11,5 C 3,2 km/h (1 Bft) 95,65 %
02.06.2023 23:57 11,6 C 10,6 C 20,6 C 74 % 1016,7 hPa 0,0 l/m 3,2 km/h (1 Bft) N 360 0,000 mm 0 W/m 7,1 C 11,6 C 4,8 km/h (1 Bft) 95,65 %
02.06.2023 23:56 11,6 C 10,6 C 20,6 C 74 % 1016,7 hPa 0,0 l/m 3,2 km/h (1 Bft) N-NO 22 0,000 mm 0 W/m 7,1 C 11,6 C 4,8 km/h (1 Bft) 95,65 %
02.06.2023 23:55 11,6 C 10,6 C 20,6 C 74 % 1016,7 hPa 0,0 l/m 0,0 km/h (0 Bft) N-NO 22 0,000 mm 0 W/m 7,1 C 11,6 C 1,6 km/h (1 Bft) 100,00 %
02.06.2023 23:54 11,6 C 10,6 C 20,6 C 73 % 1016,7 hPa 0,0 l/m 0,0 km/h (0 Bft) N 360 0,000 mm 0 W/m 6,9 C 11,6 C 1,6 km/h (1 Bft) 100,00 %
02.06.2023 23:53 11,6 C 10,6 C 20,6 C 73 % 1016,7 hPa 0,0 l/m 1,6 km/h (1 Bft) N-NO 22 0,000 mm 0 W/m 6,9 C 11,6 C 3,2 km/h (1 Bft) 100,00 %
02.06.2023 23:52 11,7 C 10,6 C 20,6 C 73 % 1016,7 hPa 0,0 l/m 1,6 km/h (1 Bft) N-NO 22 0,000 mm 0 W/m 7,0 C 11,7 C 3,2 km/h (1 Bft) 100,00 %
02.06.2023 23:51 11,7 C 10,6 C 20,6 C 73 % 1016,7 hPa 0,0 l/m 0,0 km/h (0 Bft) N-NO 22 0,000 mm 0 W/m 7,0 C 11,7 C 3,2 km/h (1 Bft) 100,00 %
02.06.2023 23:50 11,7 C 10,6 C 20,6 C 73 % 1016,7 hPa 0,0 l/m 3,2 km/h (1 Bft) NO 45 0,000 mm 0 W/m 7,0 C 11,7 C 6,4 km/h (2 Bft) 95,65 %
02.06.2023 23:49 11,7 C 11,1 C 20,6 C 73 % 1016,7 hPa 0,0 l/m 3,2 km/h (1 Bft) N 360 0,000 mm 0 W/m 7,0 C 11,7 C 6,4 km/h (2 Bft) 95,65 %
02.06.2023 23:48 11,7 C 11,1 C 20,6 C 73 % 1016,7 hPa 0,0 l/m 1,6 km/h (1 Bft) N-NW 337 0,000 mm 0 W/m 7,0 C 11,7 C 3,2 km/h (1 Bft) 91,30 %
02.06.2023 23:47 11,7 C 11,1 C 20,6 C 73 % 1016,7 hPa 0,0 l/m 0,0 km/h (0 Bft) N-NO 22 0,000 mm 0 W/m 7,0 C 11,7 C 1,6 km/h (1 Bft) 100,00 %
02.06.2023 23:46 11,7 C 11,1 C 20,6 C 73 % 1016,7 hPa 0,0 l/m 1,6 km/h (1 Bft) N-NO 22 0,000 mm 0 W/m 7,0 C 11,7 C 3,2 km/h (1 Bft) 100,00 %
02.06.2023 23:45 11,8 C 11,1 C 20,6 C 73 % 1016,7 hPa 0,0 l/m 3,2 km/h (1 Bft) N-NO 22 0,000 mm 0 W/m 7,1 C 11,8 C 8,0 km/h (2 Bft) 95,65 %
02.06.2023 23:44 11,8 C 11,1 C 20,6 C 72 % 1016,7 hPa 0,0 l/m 3,2 km/h (1 Bft) N 360 0,000 mm 0 W/m 6,9 C 11,8 C 4,8 km/h (1 Bft) 100,00 %
02.06.2023 23:43 11,8 C 11,1 C 20,6 C 72 % 1016,7 hPa 0,0 l/m 3,2 km/h (1 Bft) NO 45 0,000 mm 0 W/m 6,9 C 11,8 C 4,8 km/h (1 Bft) 100,00 %
02.06.2023 23:42 11,8 C 11,1 C 20,6 C 72 % 1016,6 hPa 0,0 l/m 1,6 km/h (1 Bft) N-NO 22 0,000 mm 0 W/m 6,9 C 11,8 C 3,2 km/h (1 Bft) 95,65 %
02.06.2023 23:41 11,8 C 11,1 C 20,6 C 72 % 1016,6 hPa 0,0 l/m 3,2 km/h (1 Bft) N 360 0,000 mm 0 W/m 6,9 C 11,8 C 4,8 km/h (1 Bft) 95,65 %
02.06.2023 23:40 11,8 C 11,1 C 20,6 C 72 % 1016,7 hPa 0,0 l/m 3,2 km/h (1 Bft) N 360 0,000 mm 0 W/m 6,9 C 11,8 C 3,2 km/h (1 Bft) 95,65 %
02.06.2023 23:39 11,8 C 11,1 C 20,6 C 72 % 1016,7 hPa 0,0 l/m 1,6 km/h (1 Bft) N 360 0,000 mm 0 W/m 6,9 C 11,8 C 3,2 km/h (1 Bft) 100,00 %
02.06.2023 23:38 11,8 C 11,1 C 20,6 C 73 % 1016,6 hPa 0,0 l/m 1,6 km/h (1 Bft) N 360 0,000 mm 0 W/m 7,1 C 11,8 C 4,8 km/h (1 Bft) 100,00 %
02.06.2023 23:37 11,8 C 11,1 C 20,6 C 73 % 1016,6 hPa 0,0 l/m 3,2 km/h (1 Bft) N 360 0,000 mm 0 W/m 7,1 C 11,8 C 4,8 km/h (1 Bft) 100,00 %
02.06.2023 23:36 11,8 C 11,1 C 20,6 C 72 % 1016,6 hPa 0,0 l/m 3,2 km/h (1 Bft) N-NO 22 0,000 mm 0 W/m 6,9 C 11,8 C 4,8 km/h (1 Bft) 100,00 %
02.06.2023 23:35 11,8 C 11,1 C 20,6 C 72 % 1016,6 hPa 0,0 l/m 1,6 km/h (1 Bft) N-NO 22 0,000 mm 0 W/m 6,9 C 11,8 C 4,8 km/h (1 Bft) 95,65 %
02.06.2023 23:34 11,9 C 11,1 C 20,6 C 72 % 1016,7 hPa 0,0 l/m 3,2 km/h (1 Bft) NO 45 0,000 mm 0 W/m 7,0 C 11,9 C 6,4 km/h (2 Bft) 100,00 %
02.06.2023 23:33 11,9 C 11,1 C 20,6 C 72 % 1016,6 hPa 0,0 l/m 3,2 km/h (1 Bft) N-NO 22 0,000 mm 0 W/m 7,0 C 11,9 C 4,8 km/h (1 Bft) 100,00 %
02.06.2023 23:32 11,9 C 11,1 C 20,6 C 72 % 1016,6 hPa 0,0 l/m 1,6 km/h (1 Bft) N 360 0,000 mm 0 W/m 7,0 C 11,9 C 3,2 km/h (1 Bft) 100,00 %
02.06.2023 23:31 11,9 C 11,1 C 20,6 C 72 % 1016,6 hPa 0,0 l/m 3,2 km/h (1 Bft) N 360 0,000 mm 0 W/m 7,0 C 11,9 C 6,4 km/h (2 Bft) 100,00 %
02.06.2023 23:30 11,9 C 11,1 C 20,6 C 72 % 1016,6 hPa 0,0 l/m 3,2 km/h (1 Bft) N 360 0,000 mm 0 W/m 7,0 C 11,9 C 4,8 km/h (1 Bft) 100,00 %
02.06.2023 23:29 11,9 C 11,1 C 20,6 C 71 % 1016,6 hPa 0,0 l/m 1,6 km/h (1 Bft) O 90 0,000 mm 0 W/m 6,8 C 11,9 C 4,8 km/h (1 Bft) 95,65 %
02.06.2023 23:28 11,9 C 11,1 C 20,6 C 72 % 1016,7 hPa 0,0 l/m 4,8 km/h (1 Bft) N 360 0,000 mm 0 W/m 7,0 C 11,9 C 8,0 km/h (2 Bft) 91,30 %
02.06.2023 23:27 11,9 C 11,1 C 20,6 C 72 % 1016,7 hPa 0,0 l/m 4,8 km/h (1 Bft) N-NO 22 0,000 mm 0 W/m 7,0 C 11,9 C 4,8 km/h (1 Bft) 100,00 %
02.06.2023 23:26 11,9 C 11,1 C 20,6 C 72 % 1016,6 hPa 0,0 l/m 3,2 km/h (1 Bft) N-NO 22 0,000 mm 0 W/m 7,0 C 11,9 C 4,8 km/h (1 Bft) 100,00 %
02.06.2023 23:25 12,0 C 11,1 C 20,6 C 72 % 1016,7 hPa 0,0 l/m 3,2 km/h (1 Bft) N-NO 22 0,000 mm 0 W/m 7,1 C 12,0 C 4,8 km/h (1 Bft) 100,00 %
02.06.2023 23:24 12,1 C 11,1 C 20,6 C 72 % 1016,7 hPa 0,0 l/m 3,2 km/h (1 Bft) N-NO 22 0,000 mm 0 W/m 7,2 C 12,1 C 4,8 km/h (1 Bft) 100,00 %
02.06.2023 23:23 12,1 C 11,1 C 21,1 C 71 % 1016,7 hPa 0,0 l/m 3,2 km/h (1 Bft) N 360 0,000 mm 0 W/m 7,0 C 12,1 C 4,8 km/h (1 Bft) 95,65 %
02.06.2023 23:22 12,1 C 11,1 C 21,1 C 72 % 1016,7 hPa 0,0 l/m 4,8 km/h (1 Bft) NO 45 0,000 mm 0 W/m 7,2 C 12,1 C 4,8 km/h (1 Bft) 95,65 %
02.06.2023 23:21 12,1 C 11,1 C 21,1 C 71 % 1016,7 hPa 0,0 l/m 4,8 km/h (1 Bft) NO 45 0,000 mm 0 W/m 7,0 C 12,1 C 6,4 km/h (2 Bft) 95,65 %
02.06.2023 23:20 12,1 C 11,1 C 21,1 C 71 % 1016,7 hPa 0,0 l/m 3,2 km/h (1 Bft) N-NO 22 0,000 mm 0 W/m 7,0 C 12,1 C 6,4 km/h (2 Bft) 95,65 %
02.06.2023 23:19 12,1 C 11,1 C 21,1 C 71 % 1016,7 hPa 0,0 l/m 3,2 km/h (1 Bft) N-NO 22 0,000 mm 0 W/m 7,0 C 12,1 C 8,0 km/h (2 Bft) 100,00 %
02.06.2023 23:18 12,1 C 11,1 C 21,1 C 72 % 1016,7 hPa 0,0 l/m 3,2 km/h (1 Bft) NO 45 0,000 mm 0 W/m 7,2 C 12,1 C 6,4 km/h (2 Bft) 95,65 %
02.06.2023 23:17 12,1 C 11,1 C 21,1 C 71 % 1016,7 hPa 0,0 l/m 1,6 km/h (1 Bft) N-NO 22 0,000 mm 0 W/m 7,0 C 12,1 C 3,2 km/h (1 Bft) 100,00 %
02.06.2023 23:16 12,1 C 11,1 C 21,1 C 71 % 1016,7 hPa 0,0 l/m 3,2 km/h (1 Bft) NO 45 0,000 mm 0 W/m 7,0 C 12,1 C 4,8 km/h (1 Bft) 100,00 %
02.06.2023 23:15 12,2 C 11,1 C 21,1 C 72 % 1016,6 hPa 0,0 l/m 3,2 km/h (1 Bft) N 360 0,000 mm 0 W/m 7,3 C 12,2 C 6,4 km/h (2 Bft) 100,00 %
02.06.2023 23:14 12,2 C 11,1 C 21,1 C 71 % 1016,7 hPa 0,0 l/m 4,8 km/h (1 Bft) N 360 0,000 mm 0 W/m 7,1 C 12,2 C 8,0 km/h (2 Bft) 95,65 %
02.06.2023 23:13 12,2 C 11,1 C 21,1 C 71 % 1016,7 hPa 0,0 l/m 3,2 km/h (1 Bft) NO 45 0,000 mm 0 W/m 7,1 C 12,2 C 6,4 km/h (2 Bft) 100,00 %
02.06.2023 23:12 12,2 C 11,1 C 21,1 C 71 % 1016,7 hPa 0,0 l/m 3,2 km/h (1 Bft) N-NO 22 0,000 mm 0 W/m 7,1 C 12,2 C 4,8 km/h (1 Bft) 100,00 %
02.06.2023 23:11 12,2 C 11,1 C 21,1 C 70 % 1016,7 hPa 0,0 l/m 3,2 km/h (1 Bft) N-NO 22 0,000 mm 0 W/m 6,9 C 12,2 C 6,4 km/h (2 Bft) 100,00 %
02.06.2023 23:10 12,2 C 11,1 C 21,1 C 70 % 1016,7 hPa 0,0 l/m 3,2 km/h (1 Bft) NO 45 0,000 mm 0 W/m 6,9 C 12,2 C 4,8 km/h (1 Bft) 100,00 %
02.06.2023 23:09 12,3 C 11,1 C 21,1 C 70 % 1016,7 hPa 0,0 l/m 3,2 km/h (1 Bft) N 360 0,000 mm 0 W/m 7,0 C 12,3 C 6,4 km/h (2 Bft) 95,65 %
02.06.2023 23:08 12,3 C 11,1 C 21,1 C 70 % 1016,7 hPa 0,0 l/m 0,0 km/h (0 Bft) N 360 0,000 mm 0 W/m 7,0 C 12,3 C 3,2 km/h (1 Bft) 100,00 %
02.06.2023 23:07 12,2 C 11,1 C 21,1 C 71 % 1016,7 hPa 0,0 l/m 4,8 km/h (1 Bft) N-NO 22 0,000 mm 0 W/m 7,1 C 12,2 C 8,0 km/h (2 Bft) 95,65 %
02.06.2023 23:06 12,2 C 11,1 C 21,1 C 71 % 1016,7 hPa 0,0 l/m 1,6 km/h (1 Bft) O-NO 67 0,000 mm 0 W/m 7,1 C 12,2 C 3,2 km/h (1 Bft) 95,65 %
02.06.2023 23:05 12,2 C 11,1 C 21,1 C 70 % 1016,7 hPa 0,0 l/m 1,6 km/h (1 Bft) NO 45 0,000 mm 0 W/m 6,9 C 12,2 C 3,2 km/h (1 Bft) 95,65 %
02.06.2023 23:04 12,2 C 11,1 C 21,1 C 71 % 1016,7 hPa 0,0 l/m 1,6 km/h (1 Bft) N-NO 22 0,000 mm 0 W/m 7,1 C 12,2 C 3,2 km/h (1 Bft) 100,00 %
02.06.2023 23:03 12,2 C 11,1 C 21,1 C 71 % 1016,7 hPa 0,0 l/m 4,8 km/h (1 Bft) N-NO 22 0,000 mm 0 W/m 7,1 C 12,2 C 6,4 km/h (2 Bft) 95,65 %
02.06.2023 23:02 12,3 C 11,1 C 21,1 C 71 % 1016,7 hPa 0,0 l/m 1,6 km/h (1 Bft) N-NO 22 0,000 mm 0 W/m 7,2 C 12,3 C 4,8 km/h (1 Bft) 100,00 %
02.06.2023 23:01 12,3 C 11,1 C 21,1 C 71 % 1016,7 hPa 0,0 l/m 3,2 km/h (1 Bft) N-NO 22 0,000 mm 0 W/m 7,2 C 12,3 C 6,4 km/h (2 Bft) 91,30 %
02.06.2023 23:00 12,3 C 11,1 C 21,1 C 71 % 1016,7 hPa 0,0 l/m 3,2 km/h (1 Bft) N-NO 22 0,025 mm 0 W/m 7,2 C 12,3 C 4,8 km/h (1 Bft) 95,65 %
02.06.2023 22:59 12,3 C 11,1 C 21,1 C 71 % 1016,7 hPa 0,0 l/m 0,0 km/h (0 Bft) N 360 0,000 mm 0 W/m 7,2 C 12,3 C 1,6 km/h (1 Bft) 91,30 %
02.06.2023 22:58 12,3 C 11,1 C 21,1 C 71 % 1016,7 hPa 0,0 l/m 1,6 km/h (1 Bft) N 360 0,000 mm 0 W/m 7,2 C 12,3 C 3,2 km/h (1 Bft) 100,00 %
02.06.2023 22:57 12,3 C 11,1 C 21,1 C 71 % 1016,6 hPa 0,0 l/m 3,2 km/h (1 Bft) N 360 0,000 mm 0 W/m 7,2 C 12,3 C 4,8 km/h (1 Bft) 91,30 %
02.06.2023 22:56 12,3 C 11,1 C 21,1 C 71 % 1016,7 hPa 0,0 l/m 3,2 km/h (1 Bft) N 360 0,000 mm 0 W/m 7,2 C 12,3 C 4,8 km/h (1 Bft) 91,30 %
02.06.2023 22:55 12,3 C 11,1 C 21,1 C 71 % 1016,6 hPa 0,0 l/m 1,6 km/h (1 Bft) N-NW 337 0,000 mm 0 W/m 7,2 C 12,3 C 3,2 km/h (1 Bft) 95,65 %
02.06.2023 22:54 12,3 C 11,1 C 21,1 C 71 % 1016,7 hPa 0,0 l/m 3,2 km/h (1 Bft) NO 45 0,000 mm 0 W/m 7,2 C 12,3 C 6,4 km/h (2 Bft) 95,65 %
02.06.2023 22:53 12,3 C 11,1 C 21,1 C 71 % 1016,7 hPa 0,0 l/m 3,2 km/h (1 Bft) N-NO 22 0,000 mm 0 W/m 7,2 C 12,3 C 8,0 km/h (2 Bft) 100,00 %
02.06.2023 22:52 12,4 C 11,1 C 21,1 C 71 % 1016,7 hPa 0,0 l/m 1,6 km/h (1 Bft) N-NW 337 0,000 mm 0 W/m 7,3 C 12,4 C 4,8 km/h (1 Bft) 91,30 %
02.06.2023 22:51 12,4 C 11,1 C 21,1 C 71 % 1016,7 hPa 0,0 l/m 1,6 km/h (1 Bft) N 360 0,000 mm 0 W/m 7,3 C 12,4 C 3,2 km/h (1 Bft) 95,65 %
02.06.2023 22:50 12,4 C 11,1 C 21,1 C 71 % 1016,6 hPa 0,0 l/m 0,0 km/h (0 Bft) N-NO 22 0,000 mm 0 W/m 7,3 C 12,4 C 1,6 km/h (1 Bft) 95,65 %
02.06.2023 22:49 12,4 C 11,1 C 21,1 C 71 % 1016,6 hPa 0,0 l/m 0,0 km/h (0 Bft) N-NO 22 0,000 mm 0 W/m 7,3 C 12,4 C 1,6 km/h (1 Bft) 100,00 %
02.06.2023 22:48 12,4 C 11,1 C 21,1 C 71 % 1016,6 hPa 0,0 l/m 1,6 km/h (1 Bft) N-NO 22 0,000 mm 0 W/m 7,3 C 12,4 C 3,2 km/h (1 Bft) 95,65 %
02.06.2023 22:47 12,4 C 11,1 C 21,1 C 71 % 1016,6 hPa 0,0 l/m 3,2 km/h (1 Bft) NO 45 0,000 mm 0 W/m 7,3 C 12,4 C 4,8 km/h (1 Bft) 100,00 %
02.06.2023 22:46 12,4 C 11,1 C 21,1 C 70 % 1016,6 hPa 0,0 l/m 1,6 km/h (1 Bft) N-NO 22 0,000 mm 0 W/m 7,1 C 12,4 C 3,2 km/h (1 Bft) 95,65 %
02.06.2023 22:45 12,4 C 11,1 C 21,1 C 70 % 1016,6 hPa 0,0 l/m 3,2 km/h (1 Bft) N-NO 22 0,000 mm 0 W/m 7,1 C 12,4 C 4,8 km/h (1 Bft) 95,65 %
02.06.2023 22:44 12,4 C 11,1 C 21,1 C 71 % 1016,6 hPa 0,0 l/m 1,6 km/h (1 Bft) N-NO 22 0,000 mm 0 W/m 7,3 C 12,4 C 4,8 km/h (1 Bft) 100,00 %
02.06.2023 22:43 12,5 C 11,1 C 21,1 C 70 % 1016,6 hPa 0,0 l/m 3,2 km/h (1 Bft) N 360 0,000 mm 0 W/m 7,2 C 12,5 C 4,8 km/h (1 Bft) 100,00 %
02.06.2023 22:42 12,4 C 10,6 C 21,1 C 70 % 1016,5 hPa 0,0 l/m 1,6 km/h (1 Bft) N-NO 22 0,000 mm 0 W/m 7,1 C 12,4 C 1,6 km/h (1 Bft) 100,00 %
02.06.2023 22:41 12,4 C 10,6 C 21,1 C 70 % 1016,6 hPa 0,0 l/m 3,2 km/h (1 Bft) NO 45 0,000 mm 0 W/m 7,1 C 12,4 C 4,8 km/h (1 Bft) 100,00 %
02.06.2023 22:40 12,5 C 10,6 C 21,1 C 70 % 1016,6 hPa 0,0 l/m 4,8 km/h (1 Bft) N-NW 337 0,000 mm 0 W/m 7,2 C 12,5 C 8,0 km/h (2 Bft) 100,00 %
02.06.2023 22:39 12,5 C 10,6 C 21,1 C 70 % 1016,6 hPa 0,0 l/m 0,0 km/h (0 Bft) NO 45 0,000 mm 0 W/m 7,2 C 12,5 C 3,2 km/h (1 Bft) 100,00 %
02.06.2023 22:38 12,6 C 10,6 C 21,1 C 70 % 1016,7 hPa 0,0 l/m 1,6 km/h (1 Bft) NO 45 0,000 mm 0 W/m 7,3 C 12,6 C 3,2 km/h (1 Bft) 95,65 %
02.06.2023 22:37 12,6 C 10,6 C 21,1 C 70 % 1016,6 hPa 0,0 l/m 3,2 km/h (1 Bft) N-NO 22 0,000 mm 0 W/m 7,3 C 12,6 C 4,8 km/h (1 Bft) 95,65 %
02.06.2023 22:36 12,6 C 10,6 C 21,1 C 69 % 1016,6 hPa 0,0 l/m 3,2 km/h (1 Bft) NO 45 0,000 mm 0 W/m 7,1 C 12,6 C 4,8 km/h (1 Bft) 95,65 %
02.06.2023 22:35 12,6 C 10,6 C 21,1 C 69 % 1016,6 hPa 0,0 l/m 1,6 km/h (1 Bft) N-NO 22 0,000 mm 0 W/m 7,1 C 12,6 C 3,2 km/h (1 Bft) 95,65 %
02.06.2023 22:34 12,7 C 10,6 C 21,1 C 69 % 1016,6 hPa 0,0 l/m 0,0 km/h (0 Bft) N-NO 22 0,000 mm 0 W/m 7,2 C 12,7 C 1,6 km/h (1 Bft) 100,00 %
02.06.2023 22:33 12,7 C 10,6 C 21,1 C 69 % 1016,5 hPa 0,0 l/m 1,6 km/h (1 Bft) N-NO 22 0,000 mm 0 W/m 7,2 C 12,7 C 3,2 km/h (1 Bft) 100,00 %
02.06.2023 22:32 12,7 C 10,6 C 21,1 C 69 % 1016,5 hPa 0,0 l/m 3,2 km/h (1 Bft) N-NO 22 0,000 mm 0 W/m 7,2 C 12,7 C 4,8 km/h (1 Bft) 100,00 %
02.06.2023 22:31 12,7 C 10,6 C 21,1 C 69 % 1016,6 hPa 0,0 l/m 1,6 km/h (1 Bft) NW 315 0,000 mm 0 W/m 7,2 C 12,7 C 4,8 km/h (1 Bft) 91,30 %
02.06.2023 22:30 12,7 C 10,6 C 21,1 C 69 % 1016,6 hPa 0,0 l/m 0,0 km/h (0 Bft) N-NO 22 0,000 mm 0 W/m 7,2 C 12,7 C 1,6 km/h (1 Bft) 100,00 %
02.06.2023 22:29 12,7 C 10,6 C 21,1 C 69 % 1016,6 hPa 0,0 l/m 0,0 km/h (0 Bft) N-NO 22 0,000 mm 0 W/m 7,2 C 12,7 C 1,6 km/h (1 Bft) 100,00 %
02.06.2023 22:28 12,7 C 10,6 C 21,1 C 68 % 1016,6 hPa 0,0 l/m 1,6 km/h (1 Bft) N-NO 22 0,000 mm 0 W/m 6,9 C 12,7 C 4,8 km/h (1 Bft) 100,00 %
02.06.2023 22:27 12,7 C 10,6 C 21,1 C 68 % 1016,6 hPa 0,0 l/m 3,2 km/h (1 Bft) N 360 0,000 mm 0 W/m 6,9 C 12,7 C 8,0 km/h (2 Bft) 100,00 %
02.06.2023 22:26 12,7 C 10,6 C 21,1 C 69 % 1016,7 hPa 0,0 l/m 3,2 km/h (1 Bft) NO 45 0,000 mm 0 W/m 7,2 C 12,7 C 6,4 km/h (2 Bft) 95,65 %
02.06.2023 22:25 12,7 C 10,6 C 21,1 C 69 % 1016,6 hPa 0,0 l/m 3,2 km/h (1 Bft) O 90 0,000 mm 0 W/m 7,2 C 12,7 C 8,0 km/h (2 Bft) 100,00 %
02.06.2023 22:24 12,7 C 10,6 C 21,1 C 69 % 1016,6 hPa 0,0 l/m 3,2 km/h (1 Bft) NO 45 0,000 mm 0 W/m 7,2 C 12,7 C 6,4 km/h (2 Bft) 91,30 %
02.06.2023 22:23 12,7 C 10,6 C 21,1 C 69 % 1016,6 hPa 0,0 l/m 0,0 km/h (0 Bft) N 360 0,000 mm 0 W/m 7,2 C 12,7 C 1,6 km/h (1 Bft) 100,00 %
02.06.2023 22:22 12,7 C 10,6 C 21,1 C 69 % 1016,6 hPa 0,0 l/m 3,2 km/h (1 Bft) N 360 0,000 mm 0 W/m 7,2 C 12,7 C 6,4 km/h (2 Bft) 100,00 %
02.06.2023 22:21 12,8 C 10,6 C 21,1 C 68 % 1016,6 hPa 0,0 l/m 6,4 km/h (2 Bft) N-NO 22 0,000 mm 0 W/m 7,0 C 12,8 C 11,3 km/h (2 Bft) 100,00 %
02.06.2023 22:20 12,8 C 10,6 C 21,1 C 69 % 1016,6 hPa 0,0 l/m 3,2 km/h (1 Bft) NO 45 0,000 mm 0 W/m 7,3 C 12,8 C 4,8 km/h (1 Bft) 95,65 %
02.06.2023 22:19 12,8 C 10,6 C 21,1 C 69 % 1016,6 hPa 0,0 l/m 3,2 km/h (1 Bft) N-NO 22 0,000 mm 0 W/m 7,3 C 12,8 C 6,4 km/h (2 Bft) 95,65 %
02.06.2023 22:18 12,8 C 10,6 C 21,1 C 68 % 1016,6 hPa 0,0 l/m 1,6 km/h (1 Bft) N-NO 22 0,000 mm 0 W/m 7,0 C 12,8 C 3,2 km/h (1 Bft) 100,00 %
02.06.2023 22:17 12,8 C 10,6 C 21,1 C 68 % 1016,6 hPa 0,0 l/m 3,2 km/h (1 Bft) NO 45 0,000 mm 0 W/m 7,0 C 12,8 C 8,0 km/h (2 Bft) 95,65 %
02.06.2023 22:16 12,8 C 10,6 C 21,1 C 68 % 1016,6 hPa 0,0 l/m 3,2 km/h (1 Bft) NO 45 0,000 mm 0 W/m 7,0 C 12,8 C 4,8 km/h (1 Bft) 100,00 %
02.06.2023 22:15 12,8 C 10,6 C 21,1 C 69 % 1016,6 hPa 0,0 l/m 3,2 km/h (1 Bft) N 360 0,000 mm 0 W/m 7,3 C 12,8 C 6,4 km/h (2 Bft) 95,65 %
02.06.2023 22:14 12,8 C 10,6 C 21,1 C 69 % 1016,6 hPa 0,0 l/m 3,2 km/h (1 Bft) N-NO 22 0,000 mm 0 W/m 7,3 C 12,8 C 6,4 km/h (2 Bft) 100,00 %
02.06.2023 22:13 12,8 C 10,6 C 21,1 C 68 % 1016,6 hPa 0,0 l/m 1,6 km/h (1 Bft) N 360 0,000 mm 0 W/m 7,0 C 12,8 C 1,6 km/h (1 Bft) 100,00 %
02.06.2023 22:12 12,8 C 10,6 C 21,1 C 68 % 1016,6 hPa 0,0 l/m 1,6 km/h (1 Bft) N-NO 22 0,000 mm 0 W/m 7,0 C 12,8 C 4,8 km/h (1 Bft) 95,65 %
02.06.2023 22:11 12,8 C 10,6 C 21,1 C 68 % 1016,6 hPa 0,0 l/m 3,2 km/h (1 Bft) N 360 0,000 mm 0 W/m 7,0 C 12,8 C 9,7 km/h (2 Bft) 100,00 %
02.06.2023 22:10 12,8 C 10,6 C 21,1 C 69 % 1016,6 hPa 0,0 l/m 4,8 km/h (1 Bft) N-NW 337 0,000 mm 0 W/m 7,3 C 12,8 C 9,7 km/h (2 Bft) 91,30 %
02.06.2023 22:09 12,8 C 10,6 C 21,1 C 69 % 1016,7 hPa 0,0 l/m 1,6 km/h (1 Bft) N 360 0,000 mm 0 W/m 7,3 C 12,8 C 3,2 km/h (1 Bft) 95,65 %
02.06.2023 22:08 12,8 C 10,6 C 21,7 C 69 % 1016,6 hPa 0,0 l/m 0,0 km/h (0 Bft) N 360 0,000 mm 0 W/m 7,3 C 12,8 C 3,2 km/h (1 Bft) 100,00 %
02.06.2023 22:07 12,8 C 10,6 C 21,7 C 69 % 1016,6 hPa 0,0 l/m 1,6 km/h (1 Bft) N-NO 22 0,000 mm 0 W/m 7,3 C 12,8 C 3,2 km/h (1 Bft) 100,00 %
02.06.2023 22:06 12,8 C 10,6 C 21,7 C 69 % 1016,6 hPa 0,0 l/m 3,2 km/h (1 Bft) N 360 0,000 mm 0 W/m 7,3 C 12,8 C 4,8 km/h (1 Bft) 100,00 %
02.06.2023 22:05 12,8 C 11,1 C 21,7 C 70 % 1016,6 hPa 0,0 l/m 1,6 km/h (1 Bft) N 360 0,000 mm 0 W/m 7,5 C 12,8 C 3,2 km/h (1 Bft) 100,00 %
02.06.2023 22:04 12,9 C 11,1 C 21,7 C 69 % 1016,5 hPa 0,0 l/m 4,8 km/h (1 Bft) N 360 0,000 mm 0 W/m 7,4 C 12,9 C 4,8 km/h (1 Bft) 95,65 %
02.06.2023 22:03 12,9 C 11,1 C 21,7 C 69 % 1016,5 hPa 0,0 l/m 3,2 km/h (1 Bft) N 360 0,000 mm 0 W/m 7,4 C 12,9 C 6,4 km/h (2 Bft) 95,65 %
02.06.2023 22:02 12,9 C 11,1 C 21,7 C 70 % 1016,4 hPa 0,0 l/m 0,0 km/h (0 Bft) NO 45 0,000 mm 0 W/m 7,6 C 12,9 C 1,6 km/h (1 Bft) 95,65 %
02.06.2023 22:01 12,9 C 11,1 C 21,7 C 69 % 1016,5 hPa 0,0 l/m 3,2 km/h (1 Bft) NO 45 0,000 mm 0 W/m 7,4 C 12,9 C 6,4 km/h (2 Bft) 100,00 %
02.06.2023 22:00 12,9 C 11,1 C 21,7 C 69 % 1016,5 hPa 0,0 l/m 3,2 km/h (1 Bft) N-NO 22 0,025 mm 0 W/m 7,4 C 12,9 C 8,0 km/h (2 Bft) 100,00 %
02.06.2023 21:59 12,9 C 11,1 C 21,7 C 69 % 1016,5 hPa 0,0 l/m 1,6 km/h (1 Bft) N-NO 22 0,000 mm 0 W/m 7,4 C 12,9 C 3,2 km/h (1 Bft) 100,00 %
02.06.2023 21:58 12,9 C 11,1 C 21,7 C 70 % 1016,5 hPa 0,0 l/m 0,0 km/h (0 Bft) N-NO 22 0,000 mm 0 W/m 7,6 C 12,9 C 1,6 km/h (1 Bft) 95,65 %
02.06.2023 21:57 12,9 C 11,1 C 21,7 C 70 % 1016,4 hPa 0,0 l/m 0,0 km/h (0 Bft) N 360 0,000 mm 0 W/m 7,6 C 12,9 C 1,6 km/h (1 Bft) 100,00 %
02.06.2023 21:56 12,9 C 11,1 C 21,7 C 70 % 1016,4 hPa 0,0 l/m 3,2 km/h (1 Bft) N-NO 22 0,000 mm 0 W/m 7,6 C 12,9 C 4,8 km/h (1 Bft) 91,30 %
02.06.2023 21:55 12,9 C 11,1 C 21,7 C 70 % 1016,4 hPa 0,0 l/m 1,6 km/h (1 Bft) NO 45 0,000 mm 0 W/m 7,6 C 12,9 C 4,8 km/h (1 Bft) 95,65 %
02.06.2023 21:54 12,9 C 11,1 C 21,7 C 70 % 1016,4 hPa 0,0 l/m 3,2 km/h (1 Bft) N-NO 22 0,000 mm 0 W/m 7,6 C 12,9 C 4,8 km/h (1 Bft) 100,00 %
02.06.2023 21:53 12,9 C 11,1 C 21,7 C 70 % 1016,4 hPa 0,0 l/m 4,8 km/h (1 Bft) N-NO 22 0,000 mm 0 W/m 7,6 C 12,9 C 6,4 km/h (2 Bft) 100,00 %
02.06.2023 21:52 12,9 C 11,1 C 21,7 C 70 % 1016,4 hPa 0,0 l/m 1,6 km/h (1 Bft) N 360 0,000 mm 0 W/m 7,6 C 12,9 C 1,6 km/h (1 Bft) 100,00 %
02.06.2023 21:51 12,9 C 11,1 C 21,7 C 70 % 1016,4 hPa 0,0 l/m 1,6 km/h (1 Bft) N 360 0,000 mm 0 W/m 7,6 C 12,9 C 4,8 km/h (1 Bft) 100,00 %
02.06.2023 21:50 12,9 C 11,1 C 21,7 C 71 % 1016,4 hPa 0,0 l/m 3,2 km/h (1 Bft) N 360 0,000 mm 0 W/m 7,8 C 12,9 C 4,8 km/h (1 Bft) 100,00 %
02.06.2023 21:49 13,0 C 11,1 C 21,7 C 70 % 1016,4 hPa 0,0 l/m 3,2 km/h (1 Bft) N-NO 22 0,000 mm 0 W/m 7,7 C 13,0 C 4,8 km/h (1 Bft) 91,30 %
02.06.2023 21:48 13,1 C 11,1 C 21,7 C 70 % 1016,4 hPa 0,0 l/m 1,6 km/h (1 Bft) NW 315 0,000 mm 0 W/m 7,8 C 13,1 C 4,8 km/h (1 Bft) 95,65 %
02.06.2023 21:47 13,1 C 11,1 C 21,7 C 70 % 1016,4 hPa 0,0 l/m 4,8 km/h (1 Bft) N 360 0,000 mm 0 W/m 7,8 C 13,1 C 6,4 km/h (2 Bft) 95,65 %
02.06.2023 21:46 13,1 C 11,1 C 21,7 C 70 % 1016,4 hPa 0,0 l/m 1,6 km/h (1 Bft) O-NO 67 0,000 mm 0 W/m 7,8 C 13,1 C 1,6 km/h (1 Bft) 95,65 %
02.06.2023 21:45 13,1 C 11,1 C 21,7 C 71 % 1016,4 hPa 0,0 l/m 1,6 km/h (1 Bft) O-NO 67 0,000 mm 0 W/m 8,0 C 13,1 C 3,2 km/h (1 Bft) 100,00 %
02.06.2023 21:44 13,1 C 11,1 C 21,7 C 70 % 1016,3 hPa 0,0 l/m 4,8 km/h (1 Bft) N 360 0,000 mm 0 W/m 7,8 C 13,1 C 8,0 km/h (2 Bft) 100,00 %
02.06.2023 21:43 13,2 C 11,1 C 21,7 C 71 % 1016,3 hPa 0,0 l/m 3,2 km/h (1 Bft) N 360 0,000 mm 0 W/m 8,1 C 13,2 C 4,8 km/h (1 Bft) 100,00 %
02.06.2023 21:42 13,2 C 11,1 C 21,7 C 71 % 1016,3 hPa 0,0 l/m 6,4 km/h (2 Bft) N-NO 22 0,000 mm 0 W/m 8,1 C 13,2 C 12,9 km/h (3 Bft) 95,65 %
02.06.2023 21:41 13,2 C 11,1 C 21,7 C 70 % 1016,3 hPa 0,0 l/m 3,2 km/h (1 Bft) N 360 0,000 mm 0 W/m 7,9 C 13,2 C 11,3 km/h (2 Bft) 100,00 %
02.06.2023 21:40 13,2 C 11,1 C 21,7 C 70 % 1016,3 hPa 0,0 l/m 1,6 km/h (1 Bft) N-NW 337 0,000 mm 0 W/m 7,9 C 13,2 C 3,2 km/h (1 Bft) 95,65 %
02.06.2023 21:39 13,2 C 11,1 C 21,7 C 70 % 1016,3 hPa 0,0 l/m 3,2 km/h (1 Bft) NO 45 0,000 mm 0 W/m 7,9 C 13,2 C 6,4 km/h (2 Bft) 95,65 %
02.06.2023 21:38 13,2 C 11,1 C 21,7 C 70 % 1016,3 hPa 0,0 l/m 3,2 km/h (1 Bft) NO 45 0,000 mm 0 W/m 7,9 C 13,2 C 4,8 km/h (1 Bft) 95,65 %
02.06.2023 21:37 13,2 C 11,1 C 21,7 C 70 % 1016,3 hPa 0,0 l/m 3,2 km/h (1 Bft) NW 315 0,000 mm 0 W/m 7,9 C 13,2 C 3,2 km/h (1 Bft) 91,30 %
02.06.2023 21:36 13,2 C 11,1 C 21,1 C 70 % 1016,2 hPa 0,0 l/m 1,6 km/h (1 Bft) NW 315 0,000 mm 0 W/m 7,9 C 13,2 C 3,2 km/h (1 Bft) 100,00 %
02.06.2023 21:35 13,3 C 11,1 C 21,1 C 70 % 1016,2 hPa 0,0 l/m 3,2 km/h (1 Bft) N-NO 22 0,000 mm 0 W/m 7,9 C 13,3 C 4,8 km/h (1 Bft) 91,30 %
02.06.2023 21:34 13,3 C 11,1 C 21,1 C 70 % 1016,2 hPa 0,0 l/m 0,0 km/h (0 Bft) N-NW 337 0,000 mm 0 W/m 7,9 C 13,3 C 1,6 km/h (1 Bft) 95,65 %
02.06.2023 21:33 13,4 C 11,1 C 21,1 C 70 % 1016,2 hPa 0,0 l/m 1,6 km/h (1 Bft) N-NW 337 0,000 mm 0 W/m 8,0 C 13,4 C 3,2 km/h (1 Bft) 95,65 %
02.06.2023 21:32 13,4 C 11,1 C 21,1 C 69 % 1016,2 hPa 0,0 l/m 3,2 km/h (1 Bft) NO 45 0,000 mm 0 W/m 7,8 C 13,4 C 6,4 km/h (2 Bft) 100,00 %
02.06.2023 21:31 13,5 C 11,1 C 21,1 C 70 % 1016,2 hPa 0,0 l/m 1,6 km/h (1 Bft) NO 45 0,000 mm 0 W/m 8,1 C 13,5 C 3,2 km/h (1 Bft) 95,65 %
02.06.2023 21:30 13,6 C 11,1 C 21,1 C 70 % 1016,2 hPa 0,0 l/m 1,6 km/h (1 Bft) N-NO 22 0,000 mm 0 W/m 8,2 C 13,6 C 4,8 km/h (1 Bft) 100,00 %
02.06.2023 21:29 13,5 C 11,1 C 21,1 C 70 % 1016,2 hPa 0,0 l/m 3,2 km/h (1 Bft) N-NO 22 0,000 mm 0 W/m 8,1 C 13,5 C 8,0 km/h (2 Bft) 95,65 %
02.06.2023 21:28 13,6 C 11,1 C 21,1 C 70 % 1016,2 hPa 0,0 l/m 1,6 km/h (1 Bft) N-NO 22 0,000 mm 0 W/m 8,2 C 13,6 C 3,2 km/h (1 Bft) 91,30 %
02.06.2023 21:27 13,5 C 11,1 C 21,1 C 70 % 1016,2 hPa 0,0 l/m 1,6 km/h (1 Bft) N-NO 22 0,000 mm 0 W/m 8,1 C 13,5 C 3,2 km/h (1 Bft) 95,65 %
02.06.2023 21:26 13,5 C 11,1 C 21,1 C 70 % 1016,2 hPa 0,0 l/m 0,0 km/h (0 Bft) N-NW 337 0,000 mm 0 W/m 8,1 C 13,5 C 1,6 km/h (1 Bft) 100,00 %
02.06.2023 21:25 13,5 C 11,1 C 21,1 C 69 % 1016,2 hPa 0,0 l/m 1,6 km/h (1 Bft) N-NW 337 0,000 mm 0 W/m 7,9 C 13,5 C 3,2 km/h (1 Bft) 95,65 %
02.06.2023 21:24 13,5 C 11,7 C 21,1 C 70 % 1016,2 hPa 0,0 l/m 1,6 km/h (1 Bft) N-NW 337 0,000 mm 0 W/m 8,1 C 13,5 C 3,2 km/h (1 Bft) 100,00 %
02.06.2023 21:23 13,6 C 11,7 C 21,1 C 70 % 1016,2 hPa 0,0 l/m 1,6 km/h (1 Bft) NW 315 0,000 mm 0 W/m 8,2 C 13,6 C 3,2 km/h (1 Bft) 95,65 %
02.06.2023 21:22 13,6 C 11,7 C 21,1 C 69 % 1016,2 hPa 0,0 l/m 1,6 km/h (1 Bft) NW 315 0,000 mm 0 W/m 8,0 C 13,6 C 4,8 km/h (1 Bft) 91,30 %
02.06.2023 21:21 13,6 C 11,7 C 21,7 C 69 % 1016,2 hPa 0,0 l/m 4,8 km/h (1 Bft) N 360 0,000 mm 0 W/m 8,0 C 13,6 C 6,4 km/h (2 Bft) 91,30 %
02.06.2023 21:20 13,6 C 11,7 C 21,7 C 69 % 1016,1 hPa 0,0 l/m 3,2 km/h (1 Bft) NO 45 0,000 mm 0 W/m 8,0 C 13,6 C 4,8 km/h (1 Bft) 95,65 %
02.06.2023 21:19 13,6 C 11,7 C 21,1 C 69 % 1016,1 hPa 0,0 l/m 0,0 km/h (0 Bft) N-NO 22 0,000 mm 0 W/m 8,0 C 13,6 C 1,6 km/h (1 Bft) 100,00 %
02.06.2023 21:18 13,7 C 11,7 C 21,1 C 69 % 1016,1 hPa 0,0 l/m 1,6 km/h (1 Bft) N-NO 22 0,000 mm 0 W/m 8,1 C 13,7 C 3,2 km/h (1 Bft) 95,65 %
02.06.2023 21:17 13,6 C 11,7 C 21,7 C 69 % 1016,1 hPa 0,0 l/m 1,6 km/h (1 Bft) W-NW 292 0,000 mm 0 W/m 8,0 C 13,6 C 3,2 km/h (1 Bft) 100,00 %
02.06.2023 21:16 13,6 C 11,7 C 21,7 C 69 % 1016,1 hPa 0,0 l/m 1,6 km/h (1 Bft) N-NO 22 0,000 mm 0 W/m 8,0 C 13,6 C 3,2 km/h (1 Bft) 100,00 %
02.06.2023 21:15 13,7 C 11,7 C 21,7 C 70 % 1016,2 hPa 0,0 l/m 1,6 km/h (1 Bft) N-NO 22 0,000 mm 0 W/m 8,3 C 13,7 C 3,2 km/h (1 Bft) 100,00 %
02.06.2023 21:14 13,7 C 11,7 C 21,7 C 70 % 1016,1 hPa 0,0 l/m 4,8 km/h (1 Bft) N-NW 337 0,000 mm 0 W/m 8,3 C 13,7 C 6,4 km/h (2 Bft) 91,30 %
02.06.2023 21:13 13,7 C 11,7 C 21,7 C 69 % 1016,1 hPa 0,0 l/m 3,2 km/h (1 Bft) N 360 0,000 mm 0 W/m 8,1 C 13,7 C 4,8 km/h (1 Bft) 95,65 %
02.06.2023 21:12 13,7 C 11,7 C 21,7 C 70 % 1016,1 hPa 0,0 l/m 1,6 km/h (1 Bft) N 360 0,000 mm 0 W/m 8,3 C 13,7 C 3,2 km/h (1 Bft) 100,00 %
02.06.2023 21:11 13,7 C 11,7 C 21,7 C 70 % 1016,0 hPa 0,0 l/m 4,8 km/h (1 Bft) N 360 0,000 mm 0 W/m 8,3 C 13,7 C 6,4 km/h (2 Bft) 100,00 %
02.06.2023 21:10 13,8 C 11,7 C 21,7 C 70 % 1016,0 hPa 0,0 l/m 6,4 km/h (2 Bft) N-NW 337 0,000 mm 0 W/m 8,4 C 13,8 C 9,7 km/h (2 Bft) 100,00 %
02.06.2023 21:09 13,8 C 11,7 C 21,7 C 69 % 1016,0 hPa 0,0 l/m 1,6 km/h (1 Bft) NW 315 0,000 mm 0 W/m 8,2 C 13,8 C 3,2 km/h (1 Bft) 95,65 %
02.06.2023 21:08 13,8 C 11,7 C 21,7 C 69 % 1016,0 hPa 0,0 l/m 3,2 km/h (1 Bft) NW 315 0,000 mm 0 W/m 8,2 C 13,8 C 4,8 km/h (1 Bft) 100,00 %
02.06.2023 21:07 13,8 C 11,7 C 21,7 C 69 % 1016,1 hPa 0,0 l/m 3,2 km/h (1 Bft) NW 315 0,000 mm 0 W/m 8,2 C 13,8 C 6,4 km/h (2 Bft) 95,65 %
02.06.2023 21:06 13,9 C 11,7 C 21,7 C 69 % 1016,0 hPa 0,0 l/m 3,2 km/h (1 Bft) N-NO 22 0,000 mm 0 W/m 8,3 C 13,9 C 4,8 km/h (1 Bft) 100,00 %
02.06.2023 21:05 13,9 C 11,7 C 21,7 C 69 % 1016,0 hPa 0,0 l/m 3,2 km/h (1 Bft) N-NO 22 0,000 mm 0 W/m 8,3 C 13,9 C 4,8 km/h (1 Bft) 100,00 %
02.06.2023 21:04 13,9 C 11,7 C 21,7 C 69 % 1015,9 hPa 0,0 l/m 3,2 km/h (1 Bft) NW 315 0,000 mm 0 W/m 8,3 C 13,9 C 4,8 km/h (1 Bft) 95,65 %
02.06.2023 21:03 13,9 C 11,7 C 21,7 C 69 % 1015,9 hPa 0,0 l/m 1,6 km/h (1 Bft) NO 45 0,000 mm 0 W/m 8,3 C 13,9 C 4,8 km/h (1 Bft) 100,00 %
02.06.2023 21:02 13,9 C 11,7 C 21,7 C 69 % 1016,0 hPa 0,0 l/m 1,6 km/h (1 Bft) N-NO 22 0,000 mm 0 W/m 8,3 C 13,9 C 3,2 km/h (1 Bft) 100,00 %
02.06.2023 21:01 13,9 C 11,7 C 21,7 C 69 % 1015,9 hPa 0,0 l/m 3,2 km/h (1 Bft) N 360 0,000 mm 0 W/m 8,3 C 13,9 C 4,8 km/h (1 Bft) 95,65 %
02.06.2023 21:00 14,0 C 12,2 C 21,7 C 69 % 1015,9 hPa 0,0 l/m 1,6 km/h (1 Bft) N 360 0,025 mm 0 W/m 8,4 C 14,0 C 3,2 km/h (1 Bft) 95,65 %
02.06.2023 20:59 14,0 C 12,2 C 21,7 C 69 % 1015,9 hPa 0,0 l/m 3,2 km/h (1 Bft) N-NW 337 0,000 mm 0 W/m 8,4 C 14,0 C 4,8 km/h (1 Bft) 95,65 %
02.06.2023 20:58 14,1 C 12,2 C 21,7 C 69 % 1015,9 hPa 0,0 l/m 4,8 km/h (1 Bft) N-NW 337 0,000 mm 0 W/m 8,5 C 14,1 C 6,4 km/h (2 Bft) 100,00 %
02.06.2023 20:57 14,1 C 12,2 C 21,7 C 69 % 1015,9 hPa 0,0 l/m 3,2 km/h (1 Bft) N 360 0,000 mm 0 W/m 8,5 C 14,1 C 6,4 km/h (2 Bft) 95,65 %
02.06.2023 20:56 14,1 C 12,2 C 21,7 C 69 % 1015,9 hPa 0,0 l/m 3,2 km/h (1 Bft) N 360 0,000 mm 0 W/m 8,5 C 14,1 C 4,8 km/h (1 Bft) 100,00 %
02.06.2023 20:55 14,2 C 12,2 C 21,7 C 70 % 1015,9 hPa 0,0 l/m 3,2 km/h (1 Bft) NW 315 0,000 mm 5 W/m 8,8 C 14,2 C 6,4 km/h (2 Bft) 100,00 %
02.06.2023 20:54 14,2 C 12,8 C 21,7 C 69 % 1015,9 hPa 0,0 l/m 1,6 km/h (1 Bft) N-NW 337 0,000 mm 5 W/m 8,6 C 14,2 C 4,8 km/h (1 Bft) 100,00 %
02.06.2023 20:53 14,2 C 12,8 C 21,7 C 69 % 1015,9 hPa 0,0 l/m 3,2 km/h (1 Bft) N-NW 337 0,000 mm 5 W/m 8,6 C 14,2 C 4,8 km/h (1 Bft) 91,30 %
02.06.2023 20:52 14,2 C 12,8 C 21,7 C 69 % 1015,8 hPa 0,0 l/m 4,8 km/h (1 Bft) NW 315 0,000 mm 5 W/m 8,6 C 14,2 C 6,4 km/h (2 Bft) 100,00 %
02.06.2023 20:51 14,2 C 12,8 C 21,7 C 69 % 1015,9 hPa 0,0 l/m 6,4 km/h (2 Bft) N-NW 337 0,000 mm 5 W/m 8,6 C 14,2 C 11,3 km/h (2 Bft) 100,00 %
02.06.2023 20:50 14,2 C 12,8 C 21,7 C 69 % 1015,8 hPa 0,0 l/m 4,8 km/h (1 Bft) N-NO 22 0,000 mm 5 W/m 8,6 C 14,2 C 8,0 km/h (2 Bft) 95,65 %
02.06.2023 20:49 14,2 C 12,8 C 21,7 C 70 % 1015,8 hPa 0,0 l/m 0,0 km/h (0 Bft) W-NW 292 0,000 mm 5 W/m 8,8 C 14,2 C 1,6 km/h (1 Bft) 100,00 %
02.06.2023 20:48 14,3 C 12,8 C 21,7 C 70 % 1015,9 hPa 0,0 l/m 3,2 km/h (1 Bft) N-NO 22 0,000 mm 5 W/m 8,9 C 14,3 C 6,4 km/h (2 Bft) 100,00 %
02.06.2023 20:47 14,3 C 12,8 C 21,7 C 70 % 1015,8 hPa 0,0 l/m 3,2 km/h (1 Bft) NO 45 0,000 mm 7 W/m 8,9 C 14,3 C 6,4 km/h (2 Bft) 100,00 %
02.06.2023 20:46 14,3 C 12,8 C 21,7 C 70 % 1015,9 hPa 0,0 l/m 3,2 km/h (1 Bft) N 360 0,000 mm 7 W/m 8,9 C 14,3 C 4,8 km/h (1 Bft) 95,65 %
02.06.2023 20:45 14,3 C 12,8 C 21,7 C 69 % 1015,8 hPa 0,0 l/m 1,6 km/h (1 Bft) N-NW 337 0,000 mm 9 W/m 8,7 C 14,3 C 3,2 km/h (1 Bft) 100,00 %
02.06.2023 20:44 14,3 C 12,8 C 21,7 C 69 % 1015,8 hPa 0,0 l/m 3,2 km/h (1 Bft) N-NO 22 0,000 mm 9 W/m 8,7 C 14,3 C 6,4 km/h (2 Bft) 100,00 %
02.06.2023 20:43 14,3 C 12,8 C 21,7 C 69 % 1015,8 hPa 0,0 l/m 3,2 km/h (1 Bft) O-NO 67 0,000 mm 9 W/m 8,7 C 14,3 C 4,8 km/h (1 Bft) 95,65 %
02.06.2023 20:42 14,3 C 12,8 C 21,7 C 69 % 1015,8 hPa 0,0 l/m 1,6 km/h (1 Bft) N-NW 337 0,000 mm 9 W/m 8,7 C 14,3 C 3,2 km/h (1 Bft) 95,65 %
02.06.2023 20:41 14,4 C 12,8 C 21,7 C 69 % 1015,8 hPa 0,0 l/m 1,6 km/h (1 Bft) O-NO 67 0,000 mm 11 W/m 8,8 C 14,4 C 4,8 km/h (1 Bft) 100,00 %
02.06.2023 20:40 14,4 C 12,8 C 21,7 C 69 % 1015,8 hPa 0,0 l/m 3,2 km/h (1 Bft) N-NO 22 0,000 mm 11 W/m 8,8 C 14,4 C 8,0 km/h (2 Bft) 100,00 %
02.06.2023 20:39 14,4 C 13,3 C 21,7 C 69 % 1015,8 hPa 0,0 l/m 3,2 km/h (1 Bft) N-NO 22 0,000 mm 12 W/m 8,8 C 14,4 C 4,8 km/h (1 Bft) 91,30 %
02.06.2023 20:38 14,4 C 13,3 C 21,7 C 69 % 1015,7 hPa 0,0 l/m 3,2 km/h (1 Bft) NO 45 0,000 mm 12 W/m 8,8 C 14,4 C 6,4 km/h (2 Bft) 100,00 %
02.06.2023 20:37 14,5 C 13,3 C 21,7 C 69 % 1015,8 hPa 0,0 l/m 1,6 km/h (1 Bft) N 360 0,000 mm 14 W/m 8,9 C 14,5 C 4,8 km/h (1 Bft) 100,00 %
02.06.2023 20:36 14,5 C 13,3 C 21,7 C 69 % 1015,7 hPa 0,0 l/m 1,6 km/h (1 Bft) N-NO 22 0,000 mm 14 W/m 8,9 C 14,5 C 3,2 km/h (1 Bft) 100,00 %
02.06.2023 20:35 14,5 C 13,3 C 21,7 C 69 % 1015,8 hPa 0,0 l/m 1,6 km/h (1 Bft) N-NW 337 0,000 mm 16 W/m 8,9 C 14,5 C 4,8 km/h (1 Bft) 100,00 %
02.06.2023 20:34 14,6 C 13,3 C 21,7 C 69 % 1015,7 hPa 0,0 l/m 4,8 km/h (1 Bft) N 360 0,000 mm 18 W/m 9,0 C 14,6 C 8,0 km/h (2 Bft) 100,00 %
02.06.2023 20:33 14,6 C 13,3 C 21,7 C 69 % 1015,7 hPa 0,0 l/m 3,2 km/h (1 Bft) N 360 0,000 mm 19 W/m 9,0 C 14,6 C 6,4 km/h (2 Bft) 100,00 %
02.06.2023 20:32 14,6 C 13,3 C 21,7 C 69 % 1015,6 hPa 0,0 l/m 3,2 km/h (1 Bft) N-NW 337 0,000 mm 21 W/m 9,0 C 14,6 C 6,4 km/h (2 Bft) 95,65 %
02.06.2023 20:31 14,7 C 13,3 C 21,7 C 69 % 1015,6 hPa 0,0 l/m 1,6 km/h (1 Bft) N-NW 337 0,000 mm 21 W/m 9,1 C 14,7 C 3,2 km/h (1 Bft) 100,00 %
02.06.2023 20:30 14,6 C 13,3 C 21,7 C 69 % 1015,6 hPa 0,0 l/m 3,2 km/h (1 Bft) N 360 0,000 mm 25 W/m 9,0 C 14,6 C 6,4 km/h (2 Bft) 100,00 %
02.06.2023 20:29 14,7 C 13,3 C 21,7 C 70 % 1015,7 hPa 0,0 l/m 1,6 km/h (1 Bft) N-NW 337 0,000 mm 26 W/m 9,3 C 14,7 C 4,8 km/h (1 Bft) 100,00 %
02.06.2023 20:28 14,7 C 13,3 C 21,7 C 69 % 1015,6 hPa 0,0 l/m 3,2 km/h (1 Bft) N-NO 22 0,000 mm 28 W/m 9,1 C 14,7 C 6,4 km/h (2 Bft) 100,00 %
02.06.2023 20:27 14,7 C 13,3 C 21,7 C 69 % 1015,5 hPa 0,0 l/m 3,2 km/h (1 Bft) N 360 0,000 mm 28 W/m 9,1 C 14,7 C 3,2 km/h (1 Bft) 95,65 %
02.06.2023 20:26 14,7 C 13,3 C 21,7 C 69 % 1015,6 hPa 0,0 l/m 3,2 km/h (1 Bft) O 90 0,000 mm 30 W/m 9,1 C 14,7 C 6,4 km/h (2 Bft) 100,00 %
02.06.2023 20:25 14,7 C 13,3 C 21,7 C 69 % 1015,6 hPa 0,0 l/m 6,4 km/h (2 Bft) NO 45 0,000 mm 32 W/m 9,1 C 14,7 C 9,7 km/h (2 Bft) 100,00 %
02.06.2023 20:24 14,7 C 13,3 C 21,7 C 68 % 1015,5 hPa 0,0 l/m 3,2 km/h (1 Bft) N-NO 22 0,000 mm 32 W/m 8,9 C 14,7 C 6,4 km/h (2 Bft) 95,65 %
02.06.2023 20:23 14,8 C 13,9 C 21,7 C 68 % 1015,5 hPa 0,0 l/m 3,2 km/h (1 Bft) N 360 0,000 mm 32 W/m 9,0 C 14,8 C 6,4 km/h (2 Bft) 100,00 %
02.06.2023 20:22 14,7 C 13,9 C 21,7 C 68 % 1015,5 hPa 0,0 l/m 4,8 km/h (1 Bft) NW 315 0,000 mm 30 W/m 8,9 C 14,7 C 6,4 km/h (2 Bft) 95,65 %
02.06.2023 20:21 14,8 C 13,9 C 21,7 C 68 % 1015,5 hPa 0,0 l/m 1,6 km/h (1 Bft) N 360 0,000 mm 30 W/m 9,0 C 14,8 C 4,8 km/h (1 Bft) 100,00 %
02.06.2023 20:20 14,8 C 13,9 C 21,7 C 68 % 1015,4 hPa 0,0 l/m 3,2 km/h (1 Bft) N 360 0,000 mm 30 W/m 9,0 C 14,8 C 4,8 km/h (1 Bft) 100,00 %
02.06.2023 20:19 14,8 C 13,9 C 21,7 C 68 % 1015,5 hPa 0,0 l/m 1,6 km/h (1 Bft) NO 45 0,000 mm 28 W/m 9,0 C 14,8 C 4,8 km/h (1 Bft) 100,00 %
02.06.2023 20:18 14,8 C 13,9 C 21,7 C 68 % 1015,5 hPa 0,0 l/m 1,6 km/h (1 Bft) N-NW 337 0,000 mm 28 W/m 9,0 C 14,8 C 3,2 km/h (1 Bft) 100,00 %
02.06.2023 20:17 14,9 C 13,9 C 21,7 C 68 % 1015,5 hPa 0,0 l/m 4,8 km/h (1 Bft) N-NO 22 0,000 mm 30 W/m 9,0 C 14,9 C 6,4 km/h (2 Bft) 91,30 %
02.06.2023 20:16 14,9 C 13,9 C 21,7 C 68 % 1015,4 hPa 0,0 l/m 9,7 km/h (2 Bft) NO 45 0,000 mm 30 W/m 9,0 C 14,9 C 14,5 km/h (3 Bft) 100,00 %
02.06.2023 20:15 14,9 C 13,9 C 21,7 C 68 % 1015,4 hPa 0,0 l/m 6,4 km/h (2 Bft) N-NW 337 0,000 mm 30 W/m 9,0 C 14,9 C 9,7 km/h (2 Bft) 100,00 %
02.06.2023 20:14 14,9 C 13,9 C 21,7 C 68 % 1015,4 hPa 0,0 l/m 1,6 km/h (1 Bft) N 360 0,000 mm 28 W/m 9,0 C 14,9 C 3,2 km/h (1 Bft) 100,00 %
02.06.2023 20:13 14,9 C 13,9 C 21,7 C 68 % 1015,4 hPa 0,0 l/m 3,2 km/h (1 Bft) NO 45 0,000 mm 30 W/m 9,0 C 14,9 C 6,4 km/h (2 Bft) 100,00 %
02.06.2023 20:12 14,9 C 13,9 C 21,7 C 68 % 1015,3 hPa 0,0 l/m 3,2 km/h (1 Bft) N 360 0,000 mm 30 W/m 9,0 C 14,9 C 4,8 km/h (1 Bft) 100,00 %
02.06.2023 20:11 15,0 C 13,9 C 21,7 C 68 % 1015,4 hPa 0,0 l/m 3,2 km/h (1 Bft) NO 45 0,000 mm 37 W/m 9,1 C 15,0 C 6,4 km/h (2 Bft) 100,00 %
02.06.2023 20:10 15,0 C 13,9 C 21,7 C 68 % 1015,4 hPa 0,0 l/m 3,2 km/h (1 Bft) N 360 0,000 mm 37 W/m 9,1 C 15,0 C 6,4 km/h (2 Bft) 86,96 %
02.06.2023 20:09 15,0 C 13,9 C 21,7 C 68 % 1015,3 hPa 0,0 l/m 0,0 km/h (0 Bft) N-NO 22 0,000 mm 37 W/m 9,1 C 15,0 C 1,6 km/h (1 Bft) 100,00 %
02.06.2023 20:08 15,1 C 13,9 C 21,7 C 68 % 1015,3 hPa 0,0 l/m 0,0 km/h (0 Bft) N 360 0,000 mm 37 W/m 9,2 C 15,1 C 3,2 km/h (1 Bft) 91,30 %
02.06.2023 20:07 15,1 C 13,9 C 21,7 C 68 % 1015,3 hPa 0,0 l/m 1,6 km/h (1 Bft) N 360 0,000 mm 37 W/m 9,2 C 15,1 C 4,8 km/h (1 Bft) 100,00 %
02.06.2023 20:06 15,1 C 13,9 C 21,7 C 68 % 1015,3 hPa 0,0 l/m 3,2 km/h (1 Bft) NO 45 0,000 mm 37 W/m 9,2 C 15,1 C 6,4 km/h (2 Bft) 91,30 %
02.06.2023 20:05 15,1 C 13,9 C 21,7 C 68 % 1015,2 hPa 0,0 l/m 1,6 km/h (1 Bft) O-NO 67 0,000 mm 37 W/m 9,2 C 15,1 C 3,2 km/h (1 Bft) 100,00 %
02.06.2023 20:04 15,1 C 13,9 C 21,7 C 68 % 1015,2 hPa 0,0 l/m 4,8 km/h (1 Bft) NO 45 0,000 mm 39 W/m 9,2 C 15,1 C 8,0 km/h (2 Bft) 95,65 %
02.06.2023 20:03 15,2 C 13,9 C 21,7 C 68 % 1015,3 hPa 0,0 l/m 4,8 km/h (1 Bft) N-NO 22 0,000 mm 40 W/m 9,3 C 15,2 C 8,0 km/h (2 Bft) 91,30 %
02.06.2023 20:02 15,1 C 13,9 C 21,7 C 69 % 1015,2 hPa 0,0 l/m 3,2 km/h (1 Bft) N 360 0,000 mm 42 W/m 9,5 C 15,1 C 6,4 km/h (2 Bft) 100,00 %
02.06.2023 20:01 15,1 C 13,9 C 21,7 C 69 % 1015,2 hPa 0,0 l/m 4,8 km/h (1 Bft) N-NO 22 0,000 mm 51 W/m 9,5 C 15,1 C 12,9 km/h (3 Bft) 95,65 %
02.06.2023 20:00 15,1 C 13,9 C 21,7 C 68 % 1015,2 hPa 0,0 l/m 3,2 km/h (1 Bft) N-NW 337 0,076 mm 51 W/m 9,2 C 15,1 C 6,4 km/h (2 Bft) 100,00 %
02.06.2023 19:59 15,1 C 13,9 C 21,7 C 68 % 1015,2 hPa 0,0 l/m 3,2 km/h (1 Bft) O 90 0,000 mm 54 W/m 9,2 C 15,1 C 3,2 km/h (1 Bft) 95,65 %
02.06.2023 19:58 15,1 C 13,9 C 21,7 C 69 % 1015,2 hPa 0,0 l/m 4,8 km/h (1 Bft) NO 45 0,000 mm 51 W/m 9,5 C 15,1 C 9,7 km/h (2 Bft) 95,65 %
02.06.2023 19:57 15,2 C 14,4 C 21,7 C 69 % 1015,1 hPa 0,0 l/m 3,2 km/h (1 Bft) N-NO 22 0,000 mm 53 W/m 9,6 C 15,2 C 4,8 km/h (1 Bft) 95,65 %
02.06.2023 19:56 15,1 C 14,4 C 21,7 C 69 % 1015,1 hPa 0,0 l/m 1,6 km/h (1 Bft) NO 45 0,000 mm 53 W/m 9,5 C 15,1 C 3,2 km/h (1 Bft) 95,65 %
02.06.2023 19:55 15,1 C 14,4 C 21,7 C 68 % 1015,1 hPa 0,0 l/m 1,6 km/h (1 Bft) N-NW 337 0,000 mm 49 W/m 9,2 C 15,1 C 3,2 km/h (1 Bft) 95,65 %
02.06.2023 19:54 15,1 C 14,4 C 21,7 C 68 % 1015,1 hPa 0,0 l/m 3,2 km/h (1 Bft) N-NO 22 0,000 mm 54 W/m 9,2 C 15,1 C 4,8 km/h (1 Bft) 95,65 %
02.06.2023 19:53 15,1 C 14,4 C 21,7 C 68 % 1015,1 hPa 0,0 l/m 3,2 km/h (1 Bft) N-NO 22 0,000 mm 54 W/m 9,2 C 15,1 C 4,8 km/h (1 Bft) 95,65 %
02.06.2023 19:52 15,1 C 14,4 C 21,7 C 68 % 1015,2 hPa 0,0 l/m 3,2 km/h (1 Bft) N 360 0,000 mm 49 W/m 9,2 C 15,1 C 4,8 km/h (1 Bft) 100,00 %
02.06.2023 19:51 15,2 C 14,4 C 21,7 C 68 % 1015,2 hPa 0,0 l/m 3,2 km/h (1 Bft) NW 315 0,000 mm 47 W/m 9,3 C 15,2 C 6,4 km/h (2 Bft) 95,65 %
02.06.2023 19:50 15,2 C 14,4 C 21,7 C 68 % 1015,1 hPa 0,0 l/m 3,2 km/h (1 Bft) N 360 0,000 mm 46 W/m 9,3 C 15,2 C 4,8 km/h (1 Bft) 100,00 %
02.06.2023 19:49 15,2 C 14,4 C 21,7 C 68 % 1015,0 hPa 0,0 l/m 3,2 km/h (1 Bft) N-NO 22 0,000 mm 44 W/m 9,3 C 15,2 C 6,4 km/h (2 Bft) 86,96 %
02.06.2023 19:48 15,2 C 14,4 C 21,7 C 68 % 1015,0 hPa 0,0 l/m 1,6 km/h (1 Bft) NO 45 0,000 mm 46 W/m 9,3 C 15,2 C 4,8 km/h (1 Bft) 100,00 %
02.06.2023 19:47 15,2 C 14,4 C 21,7 C 68 % 1015,0 hPa 0,0 l/m 3,2 km/h (1 Bft) O 90 0,000 mm 51 W/m 9,3 C 15,2 C 8,0 km/h (2 Bft) 95,65 %
02.06.2023 19:46 15,2 C 15,0 C 21,7 C 67 % 1015,0 hPa 0,0 l/m 8,0 km/h (2 Bft) NO 45 0,000 mm 51 W/m 9,1 C 15,2 C 16,1 km/h (3 Bft) 95,65 %
02.06.2023 19:45 15,2 C 15,0 C 21,7 C 68 % 1015,0 hPa 0,0 l/m 4,8 km/h (1 Bft) NO 45 0,000 mm 47 W/m 9,3 C 15,2 C 16,1 km/h (3 Bft) 100,00 %
02.06.2023 19:44 15,3 C 15,0 C 21,7 C 68 % 1015,1 hPa 0,0 l/m 4,8 km/h (1 Bft) N-NO 22 0,000 mm 51 W/m 9,4 C 15,3 C 8,0 km/h (2 Bft) 95,65 %
02.06.2023 19:43 15,3 C 15,0 C 21,7 C 67 % 1015,0 hPa 0,0 l/m 8,0 km/h (2 Bft) N-NO 22 0,000 mm 51 W/m 9,2 C 15,3 C 16,1 km/h (3 Bft) 95,65 %
02.06.2023 19:42 15,3 C 15,0 C 21,7 C 67 % 1015,0 hPa 0,0 l/m 4,8 km/h (1 Bft) O-NO 67 0,000 mm 49 W/m 9,2 C 15,3 C 9,7 km/h (2 Bft) 95,65 %
02.06.2023 19:41 15,3 C 15,0 C 21,7 C 67 % 1014,9 hPa 0,0 l/m 3,2 km/h (1 Bft) N 360 0,000 mm 51 W/m 9,2 C 15,3 C 6,4 km/h (2 Bft) 95,65 %
02.06.2023 19:40 15,4 C 15,0 C 21,7 C 68 % 1014,9 hPa 0,0 l/m 8,0 km/h (2 Bft) N 360 0,000 mm 53 W/m 9,5 C 15,4 C 19,3 km/h (3 Bft) 100,00 %
02.06.2023 19:39 15,4 C 15,0 C 21,7 C 67 % 1014,9 hPa 0,0 l/m 3,2 km/h (1 Bft) N-NO 22 0,000 mm 56 W/m 9,3 C 15,4 C 6,4 km/h (2 Bft) 100,00 %
02.06.2023 19:38 15,4 C 15,0 C 21,7 C 67 % 1015,0 hPa 0,0 l/m 4,8 km/h (1 Bft) N 360 0,000 mm 58 W/m 9,3 C 15,4 C 8,0 km/h (2 Bft) 95,65 %
02.06.2023 19:37 15,4 C 15,0 C 21,7 C 67 % 1014,9 hPa 0,0 l/m 4,8 km/h (1 Bft) N-NO 22 0,000 mm 62 W/m 9,3 C 15,4 C 12,9 km/h (3 Bft) 100,00 %
02.06.2023 19:36 15,4 C 15,0 C 21,7 C 67 % 1014,9 hPa 0,0 l/m 3,2 km/h (1 Bft) N-NO 22 0,000 mm 70 W/m 9,3 C 15,4 C 4,8 km/h (1 Bft) 100,00 %
02.06.2023 19:35 15,4 C 15,0 C 21,7 C 67 % 1014,9 hPa 0,0 l/m 4,8 km/h (1 Bft) N-NO 22 0,000 mm 77 W/m 9,3 C 15,4 C 6,4 km/h (2 Bft) 95,65 %
02.06.2023 19:34 15,5 C 15,0 C 21,7 C 67 % 1014,9 hPa 0,0 l/m 4,8 km/h (1 Bft) N 360 0,000 mm 86 W/m 9,4 C 15,5 C 6,4 km/h (2 Bft) 100,00 %
02.06.2023 19:33 15,5 C 15,0 C 21,7 C 67 % 1015,0 hPa 0,0 l/m 6,4 km/h (2 Bft) NO 45 0,000 mm 86 W/m 9,4 C 15,5 C 12,9 km/h (3 Bft) 100,00 %
02.06.2023 19:32 15,6 C 15,0 C 21,7 C 67 % 1014,9 hPa 0,0 l/m 8,0 km/h (2 Bft) NO 45 0,000 mm 83 W/m 9,5 C 15,6 C 16,1 km/h (3 Bft) 95,65 %
02.06.2023 19:31 15,6 C 15,0 C 21,7 C 67 % 1014,9 hPa 0,0 l/m 4,8 km/h (1 Bft) N-NO 22 0,000 mm 84 W/m 9,5 C 15,6 C 12,9 km/h (3 Bft) 95,65 %
02.06.2023 19:30 15,6 C 15,6 C 21,7 C 67 % 1014,8 hPa 0,0 l/m 4,8 km/h (1 Bft) N 360 0,000 mm 86 W/m 9,5 C 15,6 C 8,0 km/h (2 Bft) 100,00 %
02.06.2023 19:29 15,7 C 15,6 C 21,7 C 67 % 1014,9 hPa 0,0 l/m 4,8 km/h (1 Bft) NO 45 0,000 mm 84 W/m 9,6 C 15,7 C 11,3 km/h (2 Bft) 100,00 %
02.06.2023 19:28 15,7 C 15,6 C 21,7 C 67 % 1014,9 hPa 0,0 l/m 4,8 km/h (1 Bft) N-NO 22 0,000 mm 77 W/m 9,6 C 15,7 C 8,0 km/h (2 Bft) 95,65 %
02.06.2023 19:27 15,7 C 16,1 C 21,7 C 66 % 1014,9 hPa 0,0 l/m 4,8 km/h (1 Bft) N-NO 22 0,000 mm 74 W/m 9,4 C 15,7 C 8,0 km/h (2 Bft) 100,00 %
02.06.2023 19:26 15,7 C 16,1 C 21,7 C 66 % 1014,9 hPa 0,0 l/m 4,8 km/h (1 Bft) N 360 0,000 mm 72 W/m 9,4 C 15,7 C 9,7 km/h (2 Bft) 100,00 %
02.06.2023 19:25 15,8 C 16,1 C 21,7 C 66 % 1014,8 hPa 0,0 l/m 8,0 km/h (2 Bft) N 360 0,000 mm 74 W/m 9,5 C 15,8 C 16,1 km/h (3 Bft) 100,00 %
02.06.2023 19:24 15,8 C 16,1 C 21,7 C 67 % 1014,8 hPa 0,0 l/m 8,0 km/h (2 Bft) N 360 0,000 mm 81 W/m 9,7 C 15,8 C 12,9 km/h (3 Bft) 100,00 %
02.06.2023 19:23 15,9 C 16,1 C 21,7 C 67 % 1014,8 hPa 0,0 l/m 6,4 km/h (2 Bft) N 360 0,000 mm 81 W/m 9,8 C 15,9 C 16,1 km/h (3 Bft) 100,00 %
02.06.2023 19:22 15,9 C 16,1 C 21,7 C 67 % 1014,8 hPa 0,0 l/m 4,8 km/h (1 Bft) N-NO 22 0,000 mm 79 W/m 9,8 C 15,9 C 8,0 km/h (2 Bft) 100,00 %
02.06.2023 19:21 16,0 C 16,1 C 21,7 C 68 % 1014,8 hPa 0,0 l/m 3,2 km/h (1 Bft) N 360 0,000 mm 81 W/m 10,1 C 16,0 C 4,8 km/h (1 Bft) 91,30 %
02.06.2023 19:20 16,0 C 16,1 C 21,7 C 67 % 1014,7 hPa 0,0 l/m 1,6 km/h (1 Bft) O-NO 67 0,000 mm 84 W/m 9,9 C 16,0 C 4,8 km/h (1 Bft) 100,00 %
02.06.2023 19:19 16,1 C 16,1 C 21,7 C 67 % 1014,7 hPa 0,0 l/m 1,6 km/h (1 Bft) N-NW 337 0,000 mm 88 W/m 10,0 C 16,1 C 3,2 km/h (1 Bft) 95,65 %
02.06.2023 19:18 16,1 C 16,1 C 21,7 C 67 % 1014,7 hPa 0,0 l/m 3,2 km/h (1 Bft) NO 45 0,000 mm 84 W/m 10,0 C 16,1 C 9,7 km/h (2 Bft) 100,00 %
02.06.2023 19:17 16,1 C 16,7 C 21,7 C 68 % 1014,7 hPa 0,0 l/m 4,8 km/h (1 Bft) O-NO 67 0,000 mm 86 W/m 10,2 C 16,1 C 16,1 km/h (3 Bft) 95,65 %
02.06.2023 19:16 16,1 C 16,7 C 21,7 C 68 % 1014,7 hPa 0,0 l/m 3,2 km/h (1 Bft) N-NO 22 0,000 mm 90 W/m 10,2 C 16,1 C 4,8 km/h (1 Bft) 100,00 %
02.06.2023 19:15 16,1 C 16,7 C 21,7 C 67 % 1014,7 hPa 0,0 l/m 4,8 km/h (1 Bft) N 360 0,000 mm 93 W/m 10,0 C 16,1 C 6,4 km/h (2 Bft) 100,00 %
02.06.2023 19:14 16,1 C 16,7 C 21,7 C 67 % 1014,7 hPa 0,0 l/m 6,4 km/h (2 Bft) N-NO 22 0,000 mm 98 W/m 10,0 C 16,1 C 8,0 km/h (2 Bft) 95,65 %
02.06.2023 19:13 16,1 C 17,2 C 21,7 C 67 % 1014,6 hPa 0,0 l/m 4,8 km/h (1 Bft) N-NO 22 0,000 mm 104 W/m 10,0 C 16,1 C 9,7 km/h (2 Bft) 100,00 %
02.06.2023 19:12 16,1 C 17,2 C 21,7 C 67 % 1014,7 hPa 0,0 l/m 4,8 km/h (1 Bft) N-NO 22 0,000 mm 128 W/m 10,0 C 16,1 C 9,7 km/h (2 Bft) 95,65 %
02.06.2023 19:11 16,2 C 17,2 C 21,7 C 67 % 1014,7 hPa 0,0 l/m 8,0 km/h (2 Bft) NW 315 0,000 mm 142 W/m 10,1 C 16,2 C 14,5 km/h (3 Bft) 100,00 %
02.06.2023 19:10 16,2 C 17,2 C 21,7 C 67 % 1014,7 hPa 0,0 l/m 6,4 km/h (2 Bft) N-NW 337 0,000 mm 144 W/m 10,1 C 16,2 C 14,5 km/h (3 Bft) 95,65 %
02.06.2023 19:09 16,3 C 17,2 C 21,7 C 66 % 1014,6 hPa 0,0 l/m 3,2 km/h (1 Bft) N 360 0,000 mm 141 W/m 9,9 C 16,3 C 9,7 km/h (2 Bft) 100,00 %
02.06.2023 19:08 16,3 C 17,2 C 21,7 C 66 % 1014,6 hPa 0,0 l/m 3,2 km/h (1 Bft) N 360 0,000 mm 144 W/m 9,9 C 16,3 C 6,4 km/h (2 Bft) 95,65 %
02.06.2023 19:07 16,4 C 17,2 C 21,7 C 66 % 1014,7 hPa 0,0 l/m 4,8 km/h (1 Bft) N-NO 22 0,000 mm 120 W/m 10,0 C 16,4 C 12,9 km/h (3 Bft) 95,65 %
02.06.2023 19:06 16,4 C 17,2 C 21,7 C 67 % 1014,7 hPa 0,0 l/m 1,6 km/h (1 Bft) O 90 0,000 mm 114 W/m 10,3 C 16,4 C 3,2 km/h (1 Bft) 100,00 %
02.06.2023 19:05 16,4 C 17,2 C 21,7 C 67 % 1014,7 hPa 0,0 l/m 8,0 km/h (2 Bft) N 360 0,000 mm 165 W/m 10,3 C 16,4 C 14,5 km/h (3 Bft) 100,00 %
02.06.2023 19:04 16,5 C 17,2 C 21,7 C 67 % 1014,7 hPa 0,0 l/m 3,2 km/h (1 Bft) NO 45 0,000 mm 174 W/m 10,4 C 16,5 C 12,9 km/h (3 Bft) 100,00 %
02.06.2023 19:03 16,6 C 17,2 C 21,7 C 66 % 1014,6 hPa 0,0 l/m 8,0 km/h (2 Bft) N-NO 22 0,000 mm 190 W/m 10,2 C 16,6 C 17,7 km/h (3 Bft) 95,65 %
02.06.2023 19:02 16,6 C 17,2 C 21,7 C 67 % 1014,6 hPa 0,0 l/m 3,2 km/h (1 Bft) NO 45 0,000 mm 200 W/m 10,4 C 16,6 C 4,8 km/h (1 Bft) 100,00 %
02.06.2023 19:01 16,6 C 17,2 C 21,7 C 67 % 1014,6 hPa 0,0 l/m 4,8 km/h (1 Bft) N-NO 22 0,000 mm 221 W/m 10,4 C 16,6 C 11,3 km/h (2 Bft) 95,65 %
02.06.2023 19:00 16,7 C 17,2 C 21,7 C 66 % 1014,6 hPa 0,0 l/m 4,8 km/h (1 Bft) N 360 0,178 mm 225 W/m 10,3 C 16,7 C 12,9 km/h (3 Bft) 95,65 %
02.06.2023 18:59 16,7 C 17,2 C 21,7 C 66 % 1014,6 hPa 0,0 l/m 4,8 km/h (1 Bft) N 360 0,000 mm 221 W/m 10,3 C 16,7 C 9,7 km/h (2 Bft) 100,00 %
02.06.2023 18:58 16,8 C 17,2 C 21,7 C 68 % 1014,6 hPa 0,0 l/m 6,4 km/h (2 Bft) N-NO 22 0,000 mm 213 W/m 10,9 C 16,8 C 11,3 km/h (2 Bft) 95,65 %
02.06.2023 18:57 16,8 C 17,2 C 21,7 C 67 % 1014,5 hPa 0,0 l/m 4,8 km/h (1 Bft) N-NO 22 0,000 mm 213 W/m 10,6 C 16,8 C 8,0 km/h (2 Bft) 100,00 %
02.06.2023 18:56 16,8 C 17,2 C 21,7 C 66 % 1014,6 hPa 0,0 l/m 4,8 km/h (1 Bft) N-NO 22 0,000 mm 214 W/m 10,4 C 16,8 C 9,7 km/h (2 Bft) 95,65 %
02.06.2023 18:55 16,8 C 16,7 C 21,7 C 66 % 1014,5 hPa 0,0 l/m 4,8 km/h (1 Bft) N 360 0,000 mm 227 W/m 10,4 C 16,8 C 9,7 km/h (2 Bft) 100,00 %
02.06.2023 18:54 16,9 C 17,2 C 21,7 C 67 % 1014,5 hPa 0,0 l/m 4,8 km/h (1 Bft) N 360 0,000 mm 236 W/m 10,7 C 16,9 C 9,7 km/h (2 Bft) 100,00 %
02.06.2023 18:53 16,9 C 17,2 C 21,7 C 66 % 1014,5 hPa 0,0 l/m 4,8 km/h (1 Bft) NO 45 0,000 mm 244 W/m 10,5 C 16,9 C 8,0 km/h (2 Bft) 95,65 %
02.06.2023 18:52 17,0 C 16,7 C 21,7 C 66 % 1014,5 hPa 0,0 l/m 8,0 km/h (2 Bft) N-NW 337 0,000 mm 250 W/m 10,6 C 17,0 C 12,9 km/h (3 Bft) 100,00 %
02.06.2023 18:51 17,1 C 16,7 C 21,7 C 67 % 1014,5 hPa 0,0 l/m 6,4 km/h (2 Bft) N-NO 22 0,000 mm 258 W/m 10,9 C 17,1 C 12,9 km/h (3 Bft) 95,65 %
02.06.2023 18:50 17,1 C 16,7 C 21,7 C 67 % 1014,4 hPa 0,0 l/m 8,0 km/h (2 Bft) N-NO 22 0,000 mm 265 W/m 10,9 C 17,1 C 14,5 km/h (3 Bft) 100,00 %
02.06.2023 18:49 17,1 C 16,7 C 21,7 C 66 % 1014,3 hPa 0,0 l/m 9,7 km/h (2 Bft) N-NO 22 0,000 mm 272 W/m 10,7 C 17,1 C 14,5 km/h (3 Bft) 100,00 %
02.06.2023 18:48 17,1 C 16,7 C 21,7 C 68 % 1014,4 hPa 0,0 l/m 4,8 km/h (1 Bft) N 360 0,000 mm 272 W/m 11,1 C 17,1 C 9,7 km/h (2 Bft) 95,65 %
02.06.2023 18:47 17,1 C 16,7 C 21,7 C 67 % 1014,4 hPa 0,0 l/m 8,0 km/h (2 Bft) N 360 0,000 mm 271 W/m 10,9 C 17,1 C 12,9 km/h (3 Bft) 100,00 %
02.06.2023 18:46 17,1 C 16,7 C 21,7 C 67 % 1014,4 hPa 0,0 l/m 6,4 km/h (2 Bft) N-NO 22 0,000 mm 271 W/m 10,9 C 17,1 C 12,9 km/h (3 Bft) 95,65 %
02.06.2023 18:45 17,1 C 16,7 C 21,7 C 67 % 1014,4 hPa 0,0 l/m 4,8 km/h (1 Bft) N 360 0,000 mm 269 W/m 10,9 C 17,1 C 6,4 km/h (2 Bft) 100,00 %
02.06.2023 18:44 17,1 C 16,7 C 21,7 C 68 % 1014,4 hPa 0,0 l/m 8,0 km/h (2 Bft) N 360 0,000 mm 267 W/m 11,1 C 17,1 C 14,5 km/h (3 Bft) 100,00 %
02.06.2023 18:43 17,0 C 16,7 C 21,7 C 68 % 1014,4 hPa 0,0 l/m 4,8 km/h (1 Bft) N 360 0,000 mm 285 W/m 11,0 C 17,0 C 12,9 km/h (3 Bft) 100,00 %
02.06.2023 18:42 17,0 C 16,7 C 21,7 C 68 % 1014,3 hPa 0,0 l/m 4,8 km/h (1 Bft) N 360 0,000 mm 288 W/m 11,0 C 17,0 C 11,3 km/h (2 Bft) 100,00 %
02.06.2023 18:41 16,9 C 16,7 C 21,7 C 68 % 1014,3 hPa 0,0 l/m 3,2 km/h (1 Bft) NO 45 0,000 mm 253 W/m 11,0 C 16,9 C 9,7 km/h (2 Bft) 100,00 %
02.06.2023 18:40 16,9 C 16,7 C 21,7 C 68 % 1014,4 hPa 0,0 l/m 3,2 km/h (1 Bft) N 360 0,000 mm 292 W/m 11,0 C 16,9 C 6,4 km/h (2 Bft) 95,65 %
02.06.2023 18:39 16,9 C 16,7 C 21,7 C 68 % 1014,4 hPa 0,0 l/m 8,0 km/h (2 Bft) N-NO 22 0,000 mm 295 W/m 11,0 C 16,9 C 16,1 km/h (3 Bft) 91,30 %
02.06.2023 18:38 16,9 C 16,7 C 21,7 C 67 % 1014,3 hPa 0,0 l/m 9,7 km/h (2 Bft) N-NO 22 0,000 mm 301 W/m 10,7 C 16,9 C 19,3 km/h (3 Bft) 95,65 %
02.06.2023 18:37 16,9 C 16,7 C 21,7 C 67 % 1014,4 hPa 0,0 l/m 6,4 km/h (2 Bft) N 360 0,000 mm 311 W/m 10,7 C 16,9 C 11,3 km/h (2 Bft) 95,65 %
02.06.2023 18:36 16,9 C 16,7 C 21,7 C 67 % 1014,3 hPa 0,0 l/m 4,8 km/h (1 Bft) N 360 0,000 mm 315 W/m 10,7 C 16,9 C 9,7 km/h (2 Bft) 95,65 %
02.06.2023 18:35 16,9 C 16,7 C 21,7 C 67 % 1014,4 hPa 0,0 l/m 8,0 km/h (2 Bft) N-NO 22 0,000 mm 316 W/m 10,7 C 16,9 C 12,9 km/h (3 Bft) 100,00 %
02.06.2023 18:34 16,8 C 16,7 C 21,7 C 68 % 1014,3 hPa 0,0 l/m 4,8 km/h (1 Bft) O-NO 67 0,000 mm 302 W/m 10,9 C 16,8 C 9,7 km/h (2 Bft) 95,65 %
02.06.2023 18:33 16,7 C 16,7 C 21,7 C 68 % 1014,2 hPa 0,0 l/m 6,4 km/h (2 Bft) N 360 0,000 mm 156 W/m 10,8 C 16,7 C 11,3 km/h (2 Bft) 100,00 %
02.06.2023 18:32 16,7 C 17,2 C 21,7 C 68 % 1014,4 hPa 0,0 l/m 8,0 km/h (2 Bft) N-NO 22 0,000 mm 156 W/m 10,8 C 16,7 C 12,9 km/h (3 Bft) 91,30 %
02.06.2023 18:31 16,8 C 17,2 C 21,7 C 68 % 1014,4 hPa 0,0 l/m 6,4 km/h (2 Bft) N-NO 22 0,000 mm 146 W/m 10,9 C 16,8 C 12,9 km/h (3 Bft) 100,00 %
02.06.2023 18:30 16,8 C 17,2 C 21,7 C 68 % 1014,3 hPa 0,0 l/m 3,2 km/h (1 Bft) NO 45 0,000 mm 121 W/m 10,9 C 16,8 C 8,0 km/h (2 Bft) 95,65 %
02.06.2023 18:29 16,8 C 17,2 C 21,7 C 68 % 1014,3 hPa 0,0 l/m 4,8 km/h (1 Bft) NW 315 0,000 mm 121 W/m 10,9 C 16,8 C 6,4 km/h (2 Bft) 95,65 %
02.06.2023 18:28 16,9 C 17,2 C 21,7 C 67 % 1014,3 hPa 0,0 l/m 4,8 km/h (1 Bft) N-NO 22 0,000 mm 118 W/m 10,7 C 16,9 C 14,5 km/h (3 Bft) 100,00 %
02.06.2023 18:27 16,9 C 17,2 C 21,7 C 66 % 1014,3 hPa 0,0 l/m 4,8 km/h (1 Bft) N 360 0,000 mm 295 W/m 10,5 C 16,9 C 8,0 km/h (2 Bft) 95,65 %
02.06.2023 18:26 17,0 C 17,2 C 21,7 C 66 % 1014,2 hPa 0,0 l/m 1,6 km/h (1 Bft) N-NO 22 0,000 mm 295 W/m 10,6 C 17,0 C 4,8 km/h (1 Bft) 95,65 %
02.06.2023 18:25 17,1 C 17,2 C 21,7 C 67 % 1014,3 hPa 0,0 l/m 3,2 km/h (1 Bft) N 360 0,000 mm 288 W/m 10,9 C 17,1 C 8,0 km/h (2 Bft) 91,30 %
02.06.2023 18:24 17,2 C 17,2 C 21,7 C 67 % 1014,3 hPa 0,0 l/m 6,4 km/h (2 Bft) N 360 0,000 mm 288 W/m 11,0 C 17,2 C 19,3 km/h (3 Bft) 100,00 %
02.06.2023 18:23 17,2 C 17,2 C 21,7 C 66 % 1014,2 hPa 0,0 l/m 6,4 km/h (2 Bft) N-NO 22 0,000 mm 288 W/m 10,8 C 17,2 C 11,3 km/h (2 Bft) 91,30 %
02.06.2023 18:22 17,2 C 17,2 C 21,7 C 67 % 1014,3 hPa 0,0 l/m 9,7 km/h (2 Bft) N-NO 22 0,000 mm 327 W/m 11,0 C 17,2 C 19,3 km/h (3 Bft) 100,00 %
02.06.2023 18:21 17,2 C 17,2 C 21,7 C 67 % 1014,2 hPa 0,0 l/m 9,7 km/h (2 Bft) NO 45 0,000 mm 325 W/m 11,0 C 17,2 C 17,7 km/h (3 Bft) 95,65 %
02.06.2023 18:20 17,2 C 17,2 C 21,7 C 66 % 1014,3 hPa 0,0 l/m 6,4 km/h (2 Bft) NO 45 0,000 mm 329 W/m 10,8 C 17,2 C 8,0 km/h (2 Bft) 100,00 %
02.06.2023 18:19 17,3 C 17,2 C 21,7 C 67 % 1014,3 hPa 0,0 l/m 4,8 km/h (1 Bft) N-NW 337 0,000 mm 330 W/m 11,1 C 17,3 C 12,9 km/h (3 Bft) 95,65 %
02.06.2023 18:18 17,3 C 17,2 C 21,7 C 67 % 1014,2 hPa 0,0 l/m 4,8 km/h (1 Bft) N-NO 22 0,000 mm 327 W/m 11,1 C 17,3 C 9,7 km/h (2 Bft) 91,30 %
02.06.2023 18:17 17,3 C 17,2 C 21,7 C 68 % 1014,2 hPa 0,0 l/m 6,4 km/h (2 Bft) N-NO 22 0,000 mm 327 W/m 11,3 C 17,3 C 11,3 km/h (2 Bft) 95,65 %
02.06.2023 18:16 17,3 C 17,2 C 21,7 C 67 % 1014,2 hPa 0,0 l/m 6,4 km/h (2 Bft) N 360 0,000 mm 334 W/m 11,1 C 17,3 C 14,5 km/h (3 Bft) 100,00 %
02.06.2023 18:15 17,3 C 17,2 C 21,7 C 66 % 1014,2 hPa 0,0 l/m 6,4 km/h (2 Bft) NO 45 0,000 mm 339 W/m 10,9 C 17,3 C 9,7 km/h (2 Bft) 100,00 %
02.06.2023 18:14 17,3 C 17,2 C 21,7 C 67 % 1014,2 hPa 0,0 l/m 4,8 km/h (1 Bft) N-NW 337 0,000 mm 345 W/m 11,1 C 17,3 C 9,7 km/h (2 Bft) 100,00 %
02.06.2023 18:13 17,3 C 17,2 C 21,7 C 66 % 1014,3 hPa 0,0 l/m 6,4 km/h (2 Bft) N-NO 22 0,000 mm 343 W/m 10,9 C 17,3 C 9,7 km/h (2 Bft) 100,00 %
02.06.2023 18:12 17,3 C 17,2 C 21,7 C 67 % 1014,3 hPa 0,0 l/m 4,8 km/h (1 Bft) N 360 0,000 mm 336 W/m 11,1 C 17,3 C 9,7 km/h (2 Bft) 100,00 %
02.06.2023 18:11 17,3 C 17,2 C 21,7 C 67 % 1014,3 hPa 0,0 l/m 9,7 km/h (2 Bft) N-NO 22 0,000 mm 329 W/m 11,1 C 17,3 C 19,3 km/h (3 Bft) 95,65 %
02.06.2023 18:10 17,3 C 17,2 C 21,7 C 67 % 1014,3 hPa 0,0 l/m 4,8 km/h (1 Bft) NW 315 0,000 mm 323 W/m 11,1 C 17,3 C 9,7 km/h (2 Bft) 100,00 %
02.06.2023 18:09 17,3 C 17,2 C 21,7 C 67 % 1014,3 hPa 0,0 l/m 4,8 km/h (1 Bft) NO 45 0,000 mm 332 W/m 11,1 C 17,3 C 11,3 km/h (2 Bft) 95,65 %
02.06.2023 18:08 17,3 C 17,2 C 21,7 C 68 % 1014,2 hPa 0,0 l/m 3,2 km/h (1 Bft) O-NO 67 0,000 mm 339 W/m 11,3 C 17,3 C 8,0 km/h (2 Bft) 91,30 %
02.06.2023 18:07 17,3 C 17,2 C 21,7 C 68 % 1014,2 hPa 0,0 l/m 1,6 km/h (1 Bft) N 360 0,000 mm 345 W/m 11,3 C 17,3 C 4,8 km/h (1 Bft) 100,00 %
02.06.2023 18:06 17,2 C 17,2 C 21,7 C 68 % 1014,2 hPa 0,0 l/m 4,8 km/h (1 Bft) NO 45 0,000 mm 355 W/m 11,2 C 17,2 C 8,0 km/h (2 Bft) 95,65 %
02.06.2023 18:05 17,2 C 17,8 C 21,7 C 67 % 1014,2 hPa 0,0 l/m 4,8 km/h (1 Bft) N-NW 337 0,000 mm 360 W/m 11,0 C 17,2 C 9,7 km/h (2 Bft) 100,00 %
02.06.2023 18:04 17,2 C 17,8 C 21,7 C 67 % 1014,2 hPa 0,0 l/m 4,8 km/h (1 Bft) N 360 0,000 mm 357 W/m 11,0 C 17,2 C 8,0 km/h (2 Bft) 95,65 %
02.06.2023 18:03 17,2 C 17,8 C 21,7 C 69 % 1014,2 hPa 0,0 l/m 1,6 km/h (1 Bft) N-NO 22 0,000 mm 357 W/m 11,5 C 17,2 C 4,8 km/h (1 Bft) 95,65 %
02.06.2023 18:02 17,2 C 17,8 C 21,7 C 67 % 1014,3 hPa 0,0 l/m 8,0 km/h (2 Bft) N-NO 22 0,000 mm 360 W/m 11,0 C 17,2 C 12,9 km/h (3 Bft) 100,00 %
02.06.2023 18:01 17,2 C 17,2 C 21,7 C 67 % 1014,1 hPa 0,0 l/m 4,8 km/h (1 Bft) N 360 0,000 mm 346 W/m 11,0 C 17,2 C 9,7 km/h (2 Bft) 100,00 %
02.06.2023 18:00 17,2 C 17,2 C 21,7 C 67 % 1014,2 hPa 0,0 l/m 4,8 km/h (1 Bft) N-NO 22 0,229 mm 343 W/m 11,0 C 17,2 C 11,3 km/h (2 Bft) 100,00 %
_ Min-Zeit 06:14 04:57 04:25 17:11 18:01 - 20:08 - - - - 10:02 06:07 00:07 11:54
Minimum _ 8,1 C 6,7 C 18,3 C 50 % 1014,1 hPa - 0,0 km/h (0 Bft) - - - - 2,9 C 6,4 C 0,0 km/h (0 Bft) 82,61 %
_ Max-Zeit 18:07 12:48 18:00 05:30 10:39 18:00 08:13 - - 14:00 13:04 18:03 18:07 09:07 18:00
Maximum _ 17,3 C 30,6 C 21,7 C 87 % 1018,8 hPa 0,0 l/m 14,5 km/h
O (3 Bft)
- - 0,533 mm 824 W/m 11,5 C 17,3 C 25,7 km/h
SO (4 Bft)
100,00 %
Durchschnitt _ 12,6 C 15,5 C 20,2 C 69 % 1017,0 hPa #0,0 l/m 5,3 km/h (1 Bft) O - #3,834 mm 527 W/m 7,0 C 12,5 C 10,2 km/h (2 Bft) 97,51 %